[[{"header":{"parameterUnit":"m.s-1","parameterCategory":1,"la1":30.6,"la2":28.766,"lo1":-90.7593,"lo2":-88.6598,"dy":0.0162,"dx":0.0183,"nx":116,"ny":114,"refTime":"2023-09-09T12:00:00:Z","depth":0,"parameterNumber":2,"parameterNumberName":"U-component_of_WINDS"},"data":[0.0,0.0,0.0,0.0,0.0,0.0,0.0,0.0,0.0,0.0,0.0,0.0,0.0,0.0,0.0,0.0,0.0,0.0,0.0,0.0,0.0,0.0,0.0,0.0,0.0,0.0,0.0,0.0,0.0,0.0,0.0,0.0,0.0,0.0,0.0,0.0,0.0,0.0,0.0,0.0,0.0,0.0,0.0,0.0,0.0,0.0,0.0,0.0,0.0,0.0,0.0,0.0,0.0,0.0,0.0,0.0,0.0,0.0,0.0,0.0,0.0,0.0,0.0,0.0,0.0,0.0,0.0,0.0,0.0,0.0,0.0,0.0,0.0,0.0,0.0,0.0,0.0,0.0,0.0,0.0,0.0,0.0,0.0,0.0,0.0,0.0,0.0,0.0,0.0,0.0,0.0,0.0,0.0,0.0,0.0,0.0,0.0,0.0,0.0,0.0,0.0,0.0,0.0,0.0,0.0,0.0,0.0,0.0,0.0,0.0,0.0,0.0,0.0,0.0,0.0,0.0,0.0,0.0,0.0,0.0,0.0,0.0,0.0,0.0,0.0,0.0,0.0,0.0,0.0,0.0,0.0,0.0,0.0,0.0,0.0,0.0,0.0,0.0,0.0,0.0,0.0,0.0,0.0,0.0,0.0,0.0,0.0,0.0,0.0,0.0,0.0,0.0,0.0,0.0,0.0,0.0,0.0,0.0,0.0,0.0,0.0,0.0,0.0,0.0,0.0,0.0,0.0,0.0,0.0,0.0,0.0,0.0,0.0,0.0,0.0,0.0,0.0,0.0,0.0,0.0,0.0,0.0,0.0,0.0,0.0,0.0,0.0,0.0,0.0,0.0,0.0,0.0,0.0,0.0,0.0,0.0,0.0,0.0,0.0,0.0,0.0,0.0,0.0,0.0,0.0,0.0,0.0,0.0,0.0,0.0,0.0,0.0,0.0,0.0,0.0,0.0,0.0,0.0,0.0,0.0,0.0,0.0,0.0,0.0,0.0,0.0,0.0,0.0,0.0,0.0,0.0,0.0,0.0,0.0,0.0,0.0,0.0,0.0,0.0,0.0,0.0,0.0,0.0,0.0,0.0,0.0,0.0,0.0,0.0,0.0,0.0,0.0,0.0,0.0,0.0,0.0,0.0,0.0,0.0,0.0,0.0,0.0,0.0,0.0,0.0,0.0,0.0,0.0,0.0,0.0,0.0,0.0,0.0,0.0,0.0,0.0,0.0,0.0,0.0,0.0,0.0,0.0,0.0,0.0,0.0,0.0,0.0,0.0,0.0,0.0,0.0,0.0,0.0,0.0,0.0,0.0,0.0,0.0,0.0,0.0,0.0,0.0,0.0,0.0,0.0,0.0,0.0,0.0,0.0,0.0,0.0,0.0,0.0,0.0,0.0,0.0,0.0,0.0,0.0,0.0,0.0,0.0,0.0,0.0,0.0,0.0,0.0,0.0,0.0,0.0,0.0,0.0,0.0,0.0,0.0,0.0,0.0,0.0,0.0,0.0,0.0,0.0,0.0,0.0,0.0,0.0,0.0,0.0,0.0,0.0,0.0,0.0,0.0,0.0,0.0,0.0,0.0,0.0,0.0,0.0,0.0,0.0,0.0,0.0,0.0,0.0,0.0,0.0,0.0,0.0,0.0,0.0,0.0,0.0,0.0,0.0,0.0,0.0,0.0,0.0,0.0,0.0,0.0,0.0,0.0,0.0,0.0,0.0,0.0,0.0,0.0,0.0,0.0,0.0,0.0,0.0,0.0,0.0,0.0,0.0,0.0,0.0,0.0,0.0,0.0,0.0,0.0,0.0,0.0,0.0,0.0,0.0,0.0,0.0,0.0,0.0,0.0,0.0,0.0,0.0,0.0,0.0,0.0,0.0,0.0,0.0,0.0,0.0,0.0,0.0,0.0,0.0,0.0,0.0,0.0,0.0,0.0,0.0,0.0,0.0,0.0,0.0,0.0,0.0,0.0,0.0,0.0,0.0,0.0,0.0,0.0,0.0,0.0,0.0,0.0,0.0,0.0,0.0,0.0,0.0,0.0,0.0,0.0,0.0,0.0,0.0,0.0,0.0,0.0,0.0,0.0,0.0,0.0,0.0,0.0,0.0,0.0,0.0,0.0,0.0,0.0,0.0,0.0,0.0,0.0,0.0,0.0,0.0,0.0,0.0,0.0,0.0,0.0,0.0,0.0,0.0,0.0,0.0,0.0,0.0,0.0,0.0,0.0,0.0,0.0,0.0,0.0,0.0,0.0,0.0,0.0,0.0,0.0,0.0,0.0,0.0,0.0,0.0,0.0,0.0,0.0,0.0,0.0,0.0,0.0,0.0,0.0,0.0,0.0,0.0,0.0,0.0,0.0,0.0,0.0,0.0,0.0,0.0,0.0,0.0,0.0,0.0,0.0,0.0,0.0,0.0,0.0,0.0,0.0,0.0,0.0,0.0,0.0,0.0,0.0,0.0,0.0,0.0,0.0,0.0,0.0,0.0,0.0,0.0,0.0,0.0,0.0,0.0,0.0,0.0,0.0,0.0,0.0,0.0,0.0,0.0,0.0,0.0,0.0,0.0,0.0,0.0,0.0,0.0,0.0,0.0,0.0,0.0,0.0,0.0,0.0,0.0,0.0,0.0,0.0,0.0,0.0,0.0,0.0,0.0,0.0,0.0,0.0,0.0,0.0,0.0,0.0,0.0,0.0,0.0,0.0,0.0,0.0,0.0,0.0,0.0,0.0,0.0,0.0,0.0,0.0,0.0,0.0,0.0,0.0,0.0,0.0,0.0,0.0,0.0,0.0,0.0,0.0,0.0,0.0,0.0,0.0,0.0,0.0,0.0,0.0,0.0,0.0,0.0,0.0,0.0,0.0,0.0,0.0,0.0,0.0,0.0,0.0,0.0,0.0,0.0,0.0,0.0,0.0,0.0,0.0,0.0,0.0,0.0,0.0,0.0,0.0,0.0,0.0,0.0,0.0,0.0,0.0,0.0,0.0,0.0,0.0,0.0,0.0,0.0,0.0,0.0,0.0,0.0,0.0,0.0,0.0,0.0,0.0,0.0,0.0,0.0,0.0,0.0,0.0,0.0,0.0,0.0,0.0,0.0,0.0,0.0,0.0,0.0,0.0,0.0,0.0,0.0,0.0,0.0,0.0,0.0,0.0,0.0,0.0,0.0,0.0,0.0,0.0,0.0,0.0,0.0,0.0,0.0,0.0,0.0,0.0,0.0,0.0,0.0,0.0,0.0,0.0,0.0,0.0,0.0,0.0,0.0,0.0,0.0,0.0,0.0,0.0,0.0,0.0,0.0,0.0,0.0,0.0,0.0,0.0,0.0,0.0,0.0,0.0,0.0,0.0,0.0,0.0,0.0,0.0,0.0,0.0,0.0,0.0,0.0,0.0,0.0,0.0,0.0,0.0,0.0,0.0,0.0,0.0,0.0,0.0,0.0,0.0,0.0,0.0,0.0,0.0,0.0,0.0,0.0,0.0,0.0,0.0,0.0,0.0,0.0,0.0,0.0,0.0,0.0,0.0,0.0,0.0,0.0,0.0,0.0,0.0,0.0,0.0,0.0,0.0,0.0,0.0,0.0,0.0,0.0,0.0,0.0,0.0,0.0,0.0,0.0,0.0,0.0,0.0,0.0,0.0,0.0,0.0,0.0,0.0,0.0,0.0,0.0,0.0,0.0,0.0,0.0,0.0,0.0,0.0,0.0,0.0,0.0,0.0,0.0,0.0,0.0,0.0,0.0,0.0,0.0,0.0,0.0,0.0,0.0,0.0,0.0,0.0,0.0,0.0,0.0,0.0,0.0,0.0,0.0,0.0,0.0,0.0,0.0,0.0,0.0,0.0,0.0,0.0,0.0,0.0,0.0,0.0,0.0,0.0,0.0,0.0,0.0,0.0,0.0,0.0,0.0,0.0,0.0,0.0,0.0,0.0,0.0,0.0,0.0,0.0,0.0,0.0,0.0,0.0,0.0,0.0,0.0,0.0,0.0,0.0,0.0,0.0,0.0,0.0,0.0,0.0,0.0,0.0,0.0,0.0,0.0,0.0,0.0,0.0,0.0,0.0,0.0,0.0,0.0,0.0,0.0,0.0,0.0,0.0,0.0,0.0,0.0,0.0,0.0,0.0,0.0,0.0,0.0,0.0,0.0,0.0,0.0,0.0,0.0,0.0,0.0,0.0,0.0,0.0,0.0,0.0,0.0,0.0,0.0,0.0,0.0,0.0,0.0,0.0,0.0,0.0,0.0,0.0,0.0,0.0,0.0,0.0,0.0,0.0,0.0,0.0,0.0,0.0,0.0,0.0,0.0,0.0,0.0,0.0,0.0,0.0,0.0,0.0,0.0,0.0,0.0,0.0,0.0,0.0,0.0,0.0,0.0,0.0,0.0,0.0,0.0,0.0,0.0,0.0,0.0,0.0,0.0,0.0,0.0,0.0,0.0,0.0,0.0,0.0,0.0,0.0,0.0,0.0,0.0,0.0,0.0,0.0,0.0,0.0,0.0,0.0,0.0,0.0,0.0,0.0,0.0,0.0,0.0,0.0,0.0,0.0,0.0,0.0,0.0,0.0,0.0,0.0,0.0,0.0,0.0,0.0,0.0,0.0,0.0,0.0,0.0,0.0,0.0,0.0,0.0,0.0,0.0,0.0,0.0,0.0,0.0,0.0,0.0,0.0,0.0,0.0,0.0,0.0,0.0,0.0,0.0,0.0,0.0,0.0,0.0,0.0,0.0,0.0,0.0,0.0,0.0,0.0,0.0,0.0,0.0,0.0,0.0,0.0,0.0,0.0,0.0,0.0,0.0,0.0,0.0,0.0,0.0,0.0,0.0,0.0,0.0,0.0,0.0,0.0,0.0,0.0,0.0,0.0,0.0,0.0,0.0,0.0,0.0,0.0,0.0,0.0,0.0,0.0,0.0,0.0,0.0,0.0,0.0,0.0,0.0,0.0,0.0,0.0,0.0,0.0,0.0,0.0,0.0,0.0,0.0,0.0,0.0,0.0,0.0,0.0,0.0,0.0,0.0,0.0,0.0,0.0,0.0,0.0,0.0,0.0,0.0,0.0,0.0,0.0,0.0,0.0,0.0,0.0,0.0,0.0,0.0,0.0,0.0,0.0,0.0,0.0,0.0,0.0,0.0,0.0,0.0,0.0,0.0,0.0,0.0,0.0,0.0,0.0,0.0,0.0,0.0,0.0,0.0,0.0,0.0,0.0,0.0,0.0,0.0,0.0,0.0,0.0,0.0,0.0,0.0,0.0,0.0,0.0,0.0,0.0,0.0,0.0,0.0,0.0,0.0,0.0,0.0,0.0,0.0,0.0,0.0,0.0,0.0,0.0,0.0,0.0,0.0,0.0,0.0,0.0,0.0,0.0,0.0,0.0,0.0,0.0,0.0,0.0,0.0,0.0,0.0,0.0,0.0,0.0,0.0,0.0,0.0,0.0,0.0,0.0,0.0,0.0,0.0,0.0,0.0,0.0,0.0,0.0,0.0,0.0,0.0,0.0,0.0,0.0,0.0,0.0,0.0,0.0,0.0,0.0,0.0,0.0,0.0,0.0,0.0,0.0,0.0,0.0,0.0,0.0,0.0,0.0,0.0,0.0,0.0,0.0,0.0,0.0,0.0,0.0,0.0,0.0,0.0,0.0,0.0,0.0,0.0,0.0,0.0,0.0,0.0,0.0,0.0,0.0,0.0,0.0,0.0,0.0,0.0,0.0,0.0,0.0,0.0,0.0,0.0,0.0,0.0,0.0,0.0,0.0,0.0,0.0,0.0,0.0,0.0,0.0,0.0,0.0,0.0,0.0,0.0,0.0,0.0,0.0,0.0,0.0,0.0,0.0,0.0,0.0,0.0,0.0,0.0,0.0,0.0,0.0,0.0,0.0,0.0,0.0,0.0,0.0,0.0,0.0,0.0,0.0,0.0,0.0,0.0,0.0,0.0,0.0,0.0,0.0,0.0,0.0,0.0,0.0,0.0,0.0,0.0,0.0,0.0,0.0,0.0,0.0,0.0,0.0,0.0,0.0,0.0,0.0,0.0,0.0,0.0,0.0,0.0,0.0,0.0,0.0,0.0,0.0,0.0,0.0,0.0,0.0,0.0,1.9284,1.9288,0.0,0.0,0.0,0.0,0.0,0.0,0.0,0.0,0.0,0.0,0.0,0.0,0.0,0.0,0.0,0.0,0.0,0.0,0.0,0.0,0.0,0.0,0.0,0.0,0.0,0.0,0.0,0.0,0.0,0.0,0.0,0.0,0.0,0.0,0.0,0.0,0.0,0.0,0.0,0.0,0.0,0.0,0.0,0.0,0.0,0.0,0.0,0.0,0.0,0.0,0.0,0.0,0.0,0.0,0.0,0.0,0.0,0.0,0.0,0.0,0.0,0.0,0.0,0.0,0.0,0.0,0.0,0.0,0.0,0.0,0.0,0.0,0.0,0.0,0.0,0.0,0.0,0.0,0.0,0.0,0.0,0.0,0.0,0.0,0.0,0.0,0.0,0.0,0.0,0.0,0.0,0.0,0.0,0.0,0.0,0.0,0.0,0.0,0.0,0.0,0.0,0.0,0.0,0.0,0.0,0.0,0.0,0.0,0.0,0.0,0.0,0.0,0.0,0.0,1.954,1.9522,0.0,0.0,0.0,0.0,0.0,0.0,0.0,0.0,0.0,0.0,0.0,0.0,0.0,0.0,0.0,0.0,0.0,0.0,0.0,0.0,0.0,0.0,0.0,0.0,0.0,0.0,0.0,0.0,0.0,0.0,0.0,0.0,0.0,0.0,0.0,0.0,0.0,0.0,0.0,0.0,0.0,0.0,0.0,0.0,0.0,0.0,0.0,0.0,0.0,0.0,0.0,0.0,0.0,0.0,0.0,0.0,0.0,0.0,0.0,0.0,0.0,0.0,0.0,0.0,0.0,0.0,0.0,0.0,0.0,0.0,0.0,0.0,0.0,0.0,0.0,0.0,0.0,0.0,0.0,0.0,0.0,0.0,0.0,0.0,0.0,0.0,0.0,0.0,0.0,0.0,0.0,0.0,0.0,0.0,0.0,0.0,0.0,0.0,0.0,0.0,0.0,0.0,0.0,0.0,0.0,0.0,0.0,0.0,1.8535,1.8848,1.9682,1.9244,1.9288,1.9718,1.9782,1.9811,1.9811,1.9811,0.0,0.0,0.0,0.0,0.0,0.0,0.0,0.0,0.0,0.0,0.0,0.0,0.0,0.0,0.0,0.0,0.0,0.0,0.0,0.0,0.0,0.0,0.4036,0.3132,0.3908,0.0,0.0,0.0,0.0,0.0,0.0,0.0,0.0,0.0,0.0,0.0,0.0,0.0,1.2353,1.2716,1.2296,1.1007,0.6083,0.0,0.0,0.0,0.0,0.0,0.0,0.0,0.0,0.0,0.0,0.0,0.0,0.0,0.0,0.0,0.0,0.0,0.0,0.0,0.0,0.0,0.0,0.0,0.0,0.0,0.0,0.0,0.0,0.0,0.0,0.0,0.0,0.0,0.0,0.0,0.0,0.0,0.0,0.0,0.0,0.0,0.0,0.0,1.798,1.7894,0.0,0.0,0.0,0.0,0.0,0.0,0.0,0.0,0.0,0.0,0.0,0.0,0.0,1.8013,1.8099,1.8574,1.881,1.8893,1.9288,1.9566,1.9682,1.9646,1.9646,1.9718,2.0062,0.0,2.0219,2.0219,0.0,0.0,0.0,0.0,0.0,0.0,0.0,0.0,0.0,0.0,0.0,0.0,0.0,0.0,0.0,0.0,0.0,0.0,0.0,0.0,0.0,0.763,0.8713,0.8824,0.8728,0.8465,0.0,0.0,0.0,0.0,0.0,0.0,0.0,0.0,0.0,0.0,1.5698,1.7249,1.6716,1.6716,1.5349,1.2797,1.0322,0.9205,0.9217,0.9206,0.0,0.0,0.0,0.0,0.0,0.0,0.0,0.0,0.0,0.0,0.0,0.0,0.0,0.0,0.0,0.0,0.0,0.0,0.0,0.0,0.0,0.0,0.0,0.0,0.0,0.0,0.0,0.0,0.0,0.0,0.0,0.0,0.0,0.0,0.0,0.0,0.0,0.0,0.0,1.8138,1.8217,1.8496,1.8295,1.8217,0.0,0.0,0.0,0.0,0.0,0.0,0.0,0.0,0.0,1.9006,1.9006,1.9006,1.9006,1.9463,1.9671,1.9671,1.9907,2.0174,2.0405,2.0166,2.0166,2.0439,2.0632,2.0813,2.0991,2.0781,2.0821,2.1031,0.0,0.0,0.0,0.0,2.1507,2.1683,0.0,0.0,0.0,0.0,0.0,0.0,0.0,0.0,0.0,0.0,0.0,0.0,0.8753,1.0592,1.214,1.2774,1.2393,1.1773,1.0976,0.0,0.0,0.0,0.0,0.0,0.0,0.0,0.0,1.6784,1.6117,1.6803,1.8714,1.8695,1.7068,1.4175,1.4946,1.443,1.2985,1.416,1.4622,0.0,0.0,0.0,0.0,0.0,0.0,0.0,0.0,0.0,0.0,0.0,0.0,0.0,0.0,0.0,0.0,0.0,0.0,0.0,0.0,0.0,0.0,0.0,0.0,0.0,0.0,0.0,0.0,0.0,0.0,0.0,0.0,0.0,0.0,0.0,0.0,0.0,0.0,1.8743,1.8781,1.908,1.8932,1.8948,0.0,0.0,0.0,0.0,0.0,0.0,2.0483,2.0382,2.0151,1.9874,1.9839,1.9839,1.9839,2.0261,2.0483,2.0483,2.0483,2.0649,2.0999,2.0649,2.0682,2.0999,2.1126,2.1337,2.159,2.1275,2.1221,2.1354,2.1667,2.1794,2.1794,2.1794,2.2003,2.2245,0.0,0.0,0.0,0.0,0.0,0.0,0.0,0.0,0.0,0.0,0.0,1.0406,1.0396,1.1993,1.2936,1.2478,1.3365,1.3573,1.2622,1.1164,0.0,0.0,0.0,0.0,0.0,0.0,0.0,1.9492,1.7015,1.5878,1.5986,1.6009,1.6561,1.7694,2.0555,1.8514,1.3165,1.7517,1.9342,1.8975,0.0,0.0,0.0,0.0,0.0,0.0,0.0,0.0,0.0,0.0,0.0,0.0,0.0,0.0,0.0,0.0,0.0,0.0,0.0,0.0,0.0,0.0,0.0,0.0,0.0,0.0,0.0,0.0,0.0,0.0,0.0,0.0,0.0,0.0,0.0,0.0,0.0,0.0,0.0,1.9711,2.0364,0.0,0.0,0.0,0.0,2.0959,2.0999,2.0999,2.0967,2.055,2.0272,2.028,2.028,2.028,2.028,2.0723,2.0959,2.0959,2.0959,2.0967,2.0999,2.0967,2.0967,2.1031,2.1399,2.159,2.159,2.159,2.1832,2.2245,2.2254,2.2245,2.2245,2.2245,2.2282,2.231,0.0,0.0,0.0,0.0,0.0,0.0,0.0,0.0,0.0,0.939,1.0697,1.1598,1.1598,1.3392,1.4557,1.4353,1.5259,1.528,1.4018,1.3405,0.0,0.0,0.0,0.0,0.0,0.0,2.2136,2.2595,1.8909,1.7086,1.7101,1.7081,1.7348,1.784,1.8927,1.8171,1.6213,1.8673,1.9679,1.9556,1.7934,1.6466,0.0,0.0,0.0,0.0,0.0,0.0,0.0,0.0,0.0,0.0,0.0,0.0,0.0,0.0,0.0,0.0,0.0,0.0,0.0,0.0,0.0,0.0,0.0,0.0,0.0,0.0,0.0,0.0,0.0,0.0,0.0,0.0,0.0,0.0,0.0,0.0,0.0,2.054,2.0797,0.0,2.0764,2.1142,2.1407,2.1407,2.1683,2.1705,2.1399,2.1228,2.1007,2.0756,2.1209,2.1225,2.0764,2.1649,2.1848,2.1407,2.1407,2.1538,2.1819,2.1538,2.1538,2.1848,2.2003,2.204,2.204,2.204,2.2143,2.231,2.231,2.231,2.231,2.231,2.231,2.231,0.0,0.0,0.0,0.0,0.0,0.0,0.0,0.0,0.0,1.0386,1.2077,1.3304,1.3439,1.5108,1.6218,1.6218,1.6926,1.6829,1.5522,0.0,0.0,0.0,0.0,0.0,0.0,2.1713,2.4191,2.4214,2.1356,1.9964,1.9938,1.881,1.813,1.7791,1.7799,1.7815,1.7919,1.9798,2.0235,1.9707,1.9715,1.8847,1.733,0.0,0.0,0.0,0.0,0.0,0.0,0.0,0.0,0.0,0.0,0.0,0.0,0.0,0.0,0.0,0.0,0.0,0.0,0.0,0.0,0.0,0.0,0.0,0.0,0.0,0.0,0.0,0.0,0.0,0.0,0.0,0.0,0.0,0.0,2.1023,2.1328,2.1172,2.1516,2.1627,2.1397,2.1728,2.1928,2.1853,2.2106,2.2273,2.221,2.182,2.1728,2.1965,2.2175,2.2062,2.1568,2.2483,2.2568,2.1832,2.1832,2.2003,2.2282,2.1966,2.2003,2.231,2.231,2.231,2.231,2.231,2.231,2.231,2.231,2.231,2.231,2.231,2.231,2.231,0.0,0.0,0.0,0.0,0.0,0.0,0.0,0.0,0.0,1.2217,1.4108,1.5541,1.5871,1.706,1.7819,1.7819,1.8263,1.8132,1.7251,1.6605,0.0,0.0,0.0,0.0,1.9366,2.2562,2.4212,2.4209,2.42,2.4208,2.4126,2.093,1.8944,1.8025,1.798,1.7939,1.8122,2.1051,2.134,1.9786,1.9715,1.9695,1.9462,0.0,0.0,0.0,0.0,0.0,0.0,0.0,0.0,0.0,0.0,0.0,0.0,0.0,0.0,0.0,0.0,0.0,0.0,0.0,0.0,0.0,0.0,0.0,0.0,0.0,0.0,0.0,0.0,0.0,0.0,0.0,0.0,0.0,2.1165,2.1673,2.1987,2.1586,2.2522,2.2921,2.219,2.2495,2.2599,2.2321,2.2336,2.2649,2.338,2.2323,2.2376,2.3893,2.3191,2.2764,2.277,2.3231,2.3088,2.2344,2.2344,2.2327,2.231,2.231,2.231,2.231,2.231,2.231,2.231,2.231,2.231,2.231,2.231,2.231,2.231,2.231,2.231,2.231,0.0,0.0,0.0,0.0,0.0,0.0,0.0,0.0,1.3383,1.3167,1.4833,1.6099,1.6168,1.7634,1.8612,1.8612,1.8862,1.9003,1.8992,0.0,0.0,0.0,0.0,0.0,2.2814,2.3735,2.4192,2.4197,2.42,2.4205,2.4178,2.3284,2.2989,2.3162,2.1716,2.1057,2.1123,2.1946,2.2015,2.1472,2.0223,1.9691,1.9645,0.0,0.0,0.0,0.0,0.0,0.0,0.0,0.0,0.0,0.0,0.0,0.0,0.0,0.0,0.0,0.0,0.0,0.0,0.0,0.0,0.0,0.0,0.0,0.0,0.0,0.0,0.0,0.0,0.0,0.0,0.0,2.266,2.2711,2.224,2.26,2.2863,2.2745,2.2994,2.3109,2.2921,2.2788,2.2678,2.2608,2.29,2.3317,2.3807,2.3752,2.4027,2.4756,2.478,2.4547,2.4,2.465,2.4365,2.3105,2.3105,2.2826,2.231,2.231,2.231,2.231,2.231,2.231,2.231,2.231,2.231,2.231,2.231,2.231,2.231,2.231,2.231,2.231,0.0,0.0,0.0,0.0,0.0,0.0,0.0,0.0,1.4651,1.4681,1.597,1.7015,1.734,1.8288,1.8934,1.9021,1.8979,1.9156,1.9675,0.0,0.0,0.0,0.0,2.4828,2.4836,2.4832,2.4832,2.4838,2.4828,2.4775,2.4661,2.4657,2.4888,2.5252,2.4091,2.3391,2.3093,2.3103,2.3101,2.2957,2.1421,2.0788,2.0785,2.0785,2.0779,2.0803,2.0803,2.0803,2.0782,2.0781,0.0,0.0,0.0,0.0,0.0,0.0,0.0,0.0,0.0,0.0,0.0,0.0,0.0,0.0,0.0,0.0,0.0,0.0,0.0,0.0,0.0,0.0,0.0,0.0,2.3268,2.3481,2.3743,2.3561,2.3414,2.3414,2.3535,2.3566,2.3414,2.3546,2.3422,2.2949,2.3779,2.4413,2.462,2.4849,2.5302,2.599,2.5914,2.5663,2.521,2.5646,2.527,2.4118,2.4118,2.3789,2.3215,2.3215,2.3054,2.2767,2.2767,2.2649,2.2463,2.2349,2.2369,2.2472,0.0,0.0,0.0,0.0,2.2572,2.2353,0.0,0.0,0.0,0.0,0.0,0.0,0.0,0.0,1.586,1.6393,1.7261,1.8117,1.8865,1.8915,1.902,1.93,1.8933,1.9,0.0,0.0,0.0,2.5552,2.5701,2.5698,2.5693,2.5702,2.5702,2.5702,2.5702,2.5582,2.5337,2.531,2.529,2.5299,2.5295,2.4892,2.4199,2.4207,2.4406,2.4609,2.2955,2.2301,2.2302,2.2292,2.2315,2.2307,2.2306,2.2283,2.2294,2.2288,0.0,0.0,0.0,0.0,0.0,0.0,0.0,0.0,0.0,0.0,0.0,0.0,0.0,0.0,0.0,0.0,0.0,0.0,0.0,0.0,0.0,0.0,0.0,0.0,2.388,2.4275,2.5381,2.4647,2.4037,2.4037,2.429,2.4339,2.4067,2.4635,2.4631,2.3602,2.4892,2.5727,2.5709,2.5798,0.0,0.0,0.0,2.6367,2.6307,2.6367,2.6005,2.5296,2.5249,2.4976,2.4567,2.4506,2.4129,2.3511,2.3485,2.3226,2.2808,2.2479,2.2482,2.2686,2.25,2.2485,2.2609,2.3185,2.3007,2.257,0.0,0.0,0.0,0.0,0.0,0.0,0.0,0.0,1.7371,1.742,1.8156,1.8803,1.9183,1.9071,1.9282,2.0013,1.9517,1.9515,0.0,0.0,2.354,2.5612,2.5703,2.5698,2.5699,2.5699,2.5699,2.5699,2.5699,2.5665,2.5625,2.5398,2.5309,2.5292,2.5301,2.4893,2.4189,2.4201,2.5689,2.7731,2.3856,2.2298,2.2294,2.2286,2.2301,2.2294,2.2306,2.2289,2.2289,2.231,2.2089,2.1804,2.1787,2.2125,0.0,0.0,0.0,0.0,0.0,0.0,0.0,0.0,0.0,0.0,0.0,0.0,0.0,0.0,0.0,0.0,0.0,0.0,0.0,2.455,2.4902,2.5379,2.6254,2.6185,2.6033,2.6033,2.6093,2.6114,2.6063,2.5937,2.5768,2.5559,2.6193,2.6684,2.6936,2.7264,2.755,2.7765,2.7642,2.7417,2.7078,2.7408,2.7203,2.648,2.6127,0.0,2.4977,2.465,2.443,2.4269,2.3942,2.3757,2.3604,2.2911,2.2652,2.2738,2.3054,2.3528,2.3954,2.354,2.3522,2.3567,0.0,0.0,0.0,0.0,0.0,0.0,0.0,0.0,1.7875,1.8115,1.8496,1.8816,1.8977,1.8913,1.9045,1.9567,1.9808,0.0,0.0,2.0898,2.2998,2.5586,2.5703,2.5703,2.5703,2.5703,2.5703,2.5703,2.5703,2.57,2.5688,2.543,2.5293,2.5303,2.5292,2.6053,2.7272,2.68,2.78,2.9465,2.6755,2.5275,2.4578,2.2931,2.2699,2.3241,2.3253,2.325,2.3251,2.324,2.3241,2.3133,2.2492,2.2704,2.3195,0.0,0.0,0.0,0.0,0.0,0.0,0.0,0.0,0.0,0.0,0.0,0.0,0.0,0.0,2.4331,2.4298,0.0,2.5275,2.5685,2.5896,2.6273,2.709,2.72,2.7053,2.6658,2.6603,2.6768,2.7163,2.7053,2.6945,2.6945,2.755,2.7969,2.8139,2.8341,2.854,2.8747,2.8353,2.8057,2.7853,2.8038,2.7969,2.7611,2.7405,2.6915,2.6189,2.5988,2.5707,2.5339,2.5129,2.5039,2.494,2.4134,2.3806,2.3828,2.4295,2.4436,2.4472,2.4923,2.4985,2.4708,0.0,0.0,0.0,0.0,0.0,0.0,0.0,0.0,0.0,1.839,1.8569,1.8685,1.8802,1.871,1.8527,0.0,0.0,0.0,0.0,1.9824,2.2129,2.5547,2.5703,2.5703,2.5703,2.5703,2.5703,2.5703,2.5703,2.5703,2.5703,2.5476,2.5351,2.5302,2.5306,2.7195,3.0343,2.9585,2.9718,3.0336,2.9575,2.8488,2.7018,2.4022,2.3477,2.432,2.4225,2.4261,2.4325,2.4392,2.4329,2.4051,2.3088,2.3079,2.3509,2.4005,2.3875,0.0,0.0,0.0,0.0,0.0,0.0,0.0,0.0,2.4499,2.4634,2.4522,2.5147,2.5697,2.563,2.6163,2.6658,2.6814,2.6833,2.7172,2.8126,2.8264,2.8081,2.7594,2.7392,2.7622,2.8411,2.8494,2.8494,2.8494,2.9099,2.9485,2.9485,2.9485,2.9515,2.9593,2.9202,2.8885,2.8646,2.8885,2.8983,2.8983,2.8744,2.828,2.7657,2.7487,2.7057,2.6424,2.6406,2.6269,2.6049,2.5294,2.4968,2.4942,2.5508,2.5345,2.498,2.6304,2.6428,2.5873,0.0,0.0,0.0,0.0,0.0,0.0,0.0,0.0,0.0,1.7873,1.8409,1.8892,1.9204,1.8754,1.7723,0.0,0.0,0.0,2.0322,2.0488,2.2129,2.5547,2.5703,2.5703,2.5703,2.5703,2.5703,2.5703,2.5703,2.5703,2.5703,2.5677,2.553,2.53,2.5305,2.7204,3.038,3.0285,3.0304,3.04,3.0298,2.9272,2.7606,2.5695,2.4867,2.4684,2.4339,2.4421,2.4786,2.5074,2.4774,2.4326,2.4483,2.4349,2.4145,2.3987,2.3933,2.3839,2.3342,2.3726,2.4508,2.5512,2.6381,2.7227,0.0,2.7839,2.7364,2.7349,2.6887,2.6463,2.6463,2.6548,2.6833,2.7548,2.7668,2.82,2.9723,2.9934,3.0164,3.0788,3.0228,3.0109,3.0916,3.099,3.099,3.099,3.1072,3.1127,3.1127,3.1127,3.0648,2.962,3.0542,3.0558,2.9484,3.054,3.105,3.105,2.9969,2.9259,2.888,2.8169,2.7575,2.7161,2.7121,2.672,2.6049,2.5561,2.5169,2.5005,2.6053,2.6423,2.6397,2.6674,2.6941,2.6862,0.0,0.0,0.0,0.0,0.0,0.0,0.0,0.0,0.0,0.0,0.0,1.9098,1.9283,1.7719,0.0,0.0,0.0,0.0,2.0596,2.2461,2.4209,2.5644,2.5703,2.5703,2.5703,2.5703,2.5703,2.5703,2.5703,2.6738,2.873,2.873,2.8557,2.8261,2.8272,2.9058,3.0397,3.04,3.0405,3.0352,2.981,2.8917,2.7711,2.5965,2.5203,2.5079,2.4908,2.4949,0.0,0.0,2.4873,2.4671,2.4809,2.4735,2.4589,2.4495,2.4467,2.4495,2.4621,2.5244,2.6057,2.6881,2.7693,2.841,2.8879,2.8922,2.8795,2.8549,2.883,2.9031,2.8741,2.8705,2.8815,2.9145,2.92,2.9324,2.9675,3.042,3.0916,3.0923,3.1326,3.1733,3.2072,3.1669,3.1586,3.2063,3.1659,3.1595,3.2072,3.165,3.138,3.1344,3.1373,3.1169,3.0642,3.116,3.1155,3.0696,3.0198,2.9507,2.8676,2.8354,2.8093,2.793,2.7655,2.7369,2.7,2.5864,2.5312,2.5248,2.5718,2.619,2.6716,2.7722,2.8176,2.8108,0.0,0.0,0.0,0.0,0.0,0.0,0.0,0.0,0.0,0.0,0.0,0.0,0.0,0.0,0.0,0.0,0.0,0.0,0.0,2.3799,2.5703,2.5703,2.5703,2.5703,2.5703,2.5703,2.5703,2.5703,2.5703,2.748,3.0898,3.0898,3.0765,3.0529,3.0437,3.0406,3.0404,3.0404,3.0404,3.0251,2.8632,2.8039,2.7909,2.6021,2.5301,2.5302,2.5301,2.53,0.0,2.5078,2.5012,2.5012,2.5012,2.4983,2.4942,2.494,2.4875,2.4939,2.5592,2.6549,2.7494,2.8091,2.9189,3.0129,3.0283,3.0385,3.0419,3.0345,3.0688,3.0928,3.0583,3.0531,3.0457,3.0237,3.0262,3.0179,2.979,3.0567,3.1122,3.0943,3.1797,3.2474,3.2686,3.2316,3.2302,3.2898,3.2394,3.2311,3.2908,3.2375,3.2228,3.2596,3.2247,3.1953,3.1724,3.1944,3.177,3.1191,3.0742,3.002,2.907,2.8619,2.8446,2.8563,2.8274,2.8126,2.8007,2.6383,2.5722,2.5704,2.5495,2.575,2.6438,2.7842,2.8494,2.853,0.0,0.0,0.0,0.0,0.0,0.0,0.0,0.0,0.0,0.0,0.0,0.0,0.0,0.0,0.0,0.0,0.0,0.0,0.0,2.3799,2.5703,2.5703,2.5703,2.5703,2.5703,2.5703,2.5703,2.5703,2.5703,2.748,3.0898,3.0898,3.0892,3.0876,3.0549,3.041,3.041,3.0398,3.0398,3.011,2.6765,2.672,2.8431,2.6167,2.5302,2.5293,2.5293,0.0,2.5302,2.5293,2.5293,2.5293,2.5293,2.5293,2.5253,2.5055,2.4904,2.4974,2.5761,2.7201,2.8604,2.9211,3.1123,3.3008,3.3546,3.3073,3.2725,3.3504,3.244,3.1384,3.1357,3.1357,3.11,3.0329,3.0405,3.0583,3.0565,3.0602,3.0918,3.1672,3.1812,3.2138,3.2901,3.3453,3.3743,3.3761,3.3743,3.3743,3.3761,3.3743,3.3385,3.2632,3.333,3.3357,3.2577,3.3339,3.3706,3.3669,3.21,3.1177,3.0766,2.9142,2.8624,2.8984,2.8966,2.8948,2.8828,2.7236,2.6566,2.6493,2.5695,2.5412,2.555,2.6374,2.7172,2.7603,0.0,0.0,0.0,0.0,0.0,0.0,0.0,0.0,0.0,0.0,0.0,0.0,0.0,0.0,0.0,0.0,0.0,0.0,0.0,2.168,2.333,2.5596,2.5703,2.5703,2.5703,2.5703,2.5703,2.5703,2.5703,2.748,3.0898,3.0898,3.0903,3.0892,3.0549,3.0398,3.0398,3.0398,3.0408,3.0191,2.794,2.7241,2.7319,2.5042,2.4639,2.5226,0.0,0.0,2.5293,2.5293,2.5293,2.5293,2.5293,2.5293,2.5293,2.5214,2.5996,2.7,2.7671,2.9078,3.0627,3.177,3.2663,3.3417,3.3928,3.3855,3.3704,3.3787,3.2631,3.1607,3.1607,3.0838,3.0107,2.9856,3.0356,3.0659,3.0255,3.1007,3.1307,3.0499,3.1363,3.1836,3.1443,3.2167,3.3156,3.43,3.3691,3.3497,3.404,3.3902,3.3678,3.3403,3.366,3.3669,3.3403,3.366,3.3256,3.2183,3.1118,3.028,2.9646,2.9609,2.939,2.8966,2.8438,2.7906,2.7328,2.6245,2.5484,2.4979,2.4704,2.4944,2.5375,2.5098,2.5511,2.622,0.0,0.0,0.0,0.0,0.0,0.0,0.0,0.0,0.0,0.0,0.0,0.0,0.0,0.0,0.0,0.0,0.0,2.0596,0.0,0.0,2.1582,2.3779,2.5049,2.5703,2.5703,2.5703,2.5703,2.5703,2.5703,2.6846,2.9043,2.9042,2.9712,3.0826,2.9274,2.8589,2.8616,2.9244,2.9514,2.9367,2.7655,2.6742,2.6232,2.4773,2.4658,0.0,0.0,0.0,2.5322,2.5303,2.5293,2.5293,2.5322,2.5332,2.5389,2.5678,2.6784,2.8118,2.9095,3.0599,3.2134,3.3256,3.3771,3.416,3.4689,3.4594,3.4311,3.4126,3.2887,3.1768,3.1467,3.0423,2.9503,2.9211,2.9695,3.0,2.9622,3.0352,3.0754,3.0324,3.1178,3.1806,3.1751,3.2134,3.2907,3.4137,3.3555,3.3439,3.4162,3.4043,3.3902,3.3798,3.3798,3.3798,3.3798,3.3798,3.299,3.1384,3.0577,2.9787,2.9012,2.9549,2.9503,2.8966,2.8457,2.7769,2.697,2.6153,2.5346,2.4593,2.4309,2.4511,2.4896,2.4382,2.4704,2.5476,0.0,0.0,0.0,0.0,0.0,0.0,0.0,0.0,0.0,0.0,0.0,0.0,0.0,0.0,0.0,0.0,0.0,0.0,0.0,0.0,0.0,2.0596,2.3711,2.5439,2.5439,2.5439,2.5439,2.5439,2.5439,2.5527,2.5703,2.5693,2.7404,3.0336,2.6927,2.5367,2.5414,2.7128,2.7823,2.763,2.6013,2.534,2.5301,2.5245,0.0,0.0,0.0,2.5313,2.539,2.5322,2.5303,2.5332,2.5438,2.5476,2.563,2.6438,2.7342,2.8438,2.9996,3.1698,3.3169,3.3691,3.4454,3.5186,3.568,3.5156,3.4543,3.4446,3.3099,3.1695,3.0932,3.0095,2.9285,2.8542,2.8635,2.8808,2.8869,2.8921,2.9532,3.1115,3.1344,3.1999,3.3583,3.323,3.3058,3.3403,3.3439,3.3667,3.4209,3.4209,3.4083,3.3798,3.3798,3.3798,3.3798,3.3715,3.2889,3.132,3.0558,2.9787,2.8994,2.903,2.903,2.8994,2.8994,2.853,2.7677,2.6915,2.6098,2.5265,2.4493,2.4199,2.4199,2.4199,2.4676,2.5348,0.0,0.0,0.0,0.0,0.0,0.0,0.0,0.0,0.0,0.0,0.0,0.0,0.0,0.0,0.0,0.0,0.0,0.0,0.0,0.0,0.0,0.0,0.0,0.0,0.0,0.0,0.0,2.1904,2.1904,2.3203,2.5703,2.5596,2.5302,2.4923,2.616,2.6186,2.5378,2.6676,2.6742,2.5979,0.0,2.5888,2.5233,0.0,0.0,0.0,0.0,2.488,2.5399,2.538,2.5409,2.5572,2.6226,2.6409,2.6553,2.745,2.9184,3.077,3.0592,3.2718,3.4859,3.4309,3.4338,3.4467,3.4348,3.3669,3.2821,3.2015,3.0625,2.9501,2.9301,2.875,2.846,2.8865,2.9503,2.9972,2.9982,3.0551,3.1046,3.1273,3.2005,3.2603,3.2882,3.2904,3.3198,3.3935,3.3808,3.3941,3.4546,3.4334,3.4083,3.3798,3.3798,3.3798,3.3798,3.2605,3.1503,3.0503,3.0301,2.9787,2.9012,2.9631,2.9576,2.8994,2.8994,2.8187,2.6897,2.6686,2.5768,2.4483,2.4272,2.4199,2.4199,2.4199,2.4327,2.4584,0.0,0.0,0.0,0.0,0.0,0.0,0.0,0.0,0.0,0.0,0.0,0.0,0.0,0.0,0.0,0.0,0.0,0.0,0.0,0.0,0.0,0.0,0.0,0.0,0.0,0.0,0.0,0.0,0.0,0.0,2.4525,2.5216,2.4947,2.3976,2.563,2.5976,2.534,2.5975,0.0,0.0,0.0,0.0,0.0,0.0,0.0,0.0,0.0,2.5043,2.5553,2.5957,2.6108,2.6197,2.6662,2.7322,2.8097,2.8984,3.0482,3.1824,3.1757,3.3422,3.4959,3.4049,3.4092,3.4134,3.3144,3.2532,3.1905,3.0902,2.9718,2.8874,2.8874,2.8341,2.8044,2.8496,2.8977,2.9429,2.9785,3.0246,3.0912,3.1885,3.2532,3.316,3.3801,3.3972,3.4247,3.4728,3.4275,3.4238,3.4832,3.4686,3.4392,3.3986,3.3986,3.3753,3.3284,3.2027,3.0999,3.02,2.9843,2.9448,2.9012,2.9485,2.9237,2.8475,2.8475,2.7567,2.6071,2.6071,2.5328,2.4199,2.4199,2.4199,2.4199,2.4199,2.4199,2.4254,0.0,0.0,0.0,0.0,0.0,0.0,0.0,0.0,0.0,0.0,0.0,0.0,0.0,0.0,0.0,0.0,0.0,0.0,0.0,0.0,0.0,0.0,0.0,0.0,0.0,0.0,0.0,0.0,0.0,0.0,0.0,0.0,0.0,0.0,0.0,0.0,0.0,0.0,0.0,0.0,0.0,0.0,0.0,0.0,0.0,0.0,0.0,2.5515,2.5736,2.6553,2.6864,2.6939,2.7118,2.8242,2.9682,3.062,3.1377,3.2083,3.2864,3.3696,3.4142,3.326,3.3527,3.3593,3.2002,3.1459,3.103,3.0112,2.941,2.892,2.8813,2.8313,2.7919,2.7909,2.7909,2.8188,2.8986,2.9198,3.014,3.2458,3.2939,3.367,3.5189,3.5334,3.5334,3.5334,3.4632,3.4453,3.5066,3.5105,3.4813,3.4232,3.4209,3.3638,3.2458,3.1751,3.0935,3.0035,2.9338,2.8994,2.8994,2.8897,2.8466,2.7787,2.7686,2.6778,2.5403,2.5403,2.4944,2.4199,2.4199,2.4199,2.4199,2.4199,2.4199,2.4199,0.0,0.0,0.0,0.0,0.0,0.0,0.0,0.0,0.0,0.0,2.0596,2.0596,0.0,0.0,0.0,0.0,0.0,0.0,0.0,0.0,0.0,0.0,0.0,0.0,0.0,2.0596,2.1279,2.2666,2.1739,0.0,0.0,0.0,0.0,0.0,0.0,0.0,0.0,0.0,0.0,0.0,0.0,0.0,0.0,0.0,0.0,0.0,2.5553,2.562,2.5715,0.0,2.64,2.7227,2.8659,2.9286,2.9824,3.1457,3.1964,3.2038,3.2299,3.2975,3.3375,3.2436,3.1815,3.1331,3.0898,2.9689,2.8411,2.7599,2.7832,2.7987,2.7321,2.7668,2.8044,2.7984,2.7984,2.8245,2.8986,2.9717,3.0612,3.1775,3.3131,3.4083,3.4401,3.443,3.443,3.443,3.4285,3.4453,3.5066,3.5105,3.4813,3.4232,3.4209,3.3379,3.1623,3.1458,3.0659,2.9195,2.9058,2.8994,2.8966,2.831,2.7925,2.7759,2.7099,2.6264,2.5403,2.5403,2.4944,2.4199,2.4199,2.4199,2.4199,2.4199,2.4199,2.4199,0.0,0.0,0.0,0.0,0.0,0.0,0.0,2.0527,2.0557,2.0596,2.0596,2.0596,2.0596,2.0596,2.0596,0.0,0.0,0.0,0.0,0.0,0.0,0.0,0.0,0.0,0.0,2.0596,2.1221,2.248,0.0,2.259,2.33,2.3625,2.3944,2.427,2.4581,2.4736,2.4803,0.0,0.0,2.5293,2.5332,2.537,0.0,0.0,0.0,0.0,0.0,2.5624,2.5711,2.6127,2.6547,2.713,2.8485,2.9521,3.0488,3.1807,3.2153,3.2119,3.2184,3.248,3.2451,3.1094,3.0801,3.0468,2.9006,2.8031,2.7313,2.6892,2.7111,2.7406,2.7462,2.7828,2.8089,2.8062,2.8049,2.8323,2.9095,2.9563,3.0321,3.1643,3.2512,3.3154,3.3542,3.3993,3.4243,3.4199,3.4622,3.4802,3.4649,3.4932,3.4907,3.4467,3.4279,3.3304,3.1412,3.1393,3.0586,2.8994,2.8994,2.8994,2.8966,2.8172,2.7567,2.7126,2.6319,2.5511,2.4768,2.4768,2.4548,2.4199,2.4199,2.4199,2.4199,2.4199,2.4199,2.4199,0.0,0.0,0.0,0.0,0.0,0.0,0.0,2.0471,2.0504,2.0553,2.0566,2.0576,2.0576,2.0586,2.0596,0.0,0.0,0.0,0.0,0.0,0.0,0.0,0.0,0.0,0.0,0.0,0.0,2.1904,2.2939,0.0,0.0,0.0,0.0,0.0,2.5135,2.5206,2.5418,2.537,2.5332,0.0,0.0,2.5428,0.0,0.0,0.0,0.0,0.0,2.5591,2.5678,2.631,2.6526,2.6689,2.7673,2.9058,3.0498,3.1377,3.1641,3.168,3.1865,3.1924,3.1553,2.999,2.9971,2.9736,2.7441,2.6768,2.6612,2.6576,2.6695,2.6975,2.7493,2.7741,2.78,2.7605,2.7563,2.791,2.8907,2.9043,2.9678,3.1417,3.1794,3.2199,3.2966,3.3644,3.4086,3.4205,3.4843,3.5007,3.4507,3.4931,3.5061,3.4793,3.4532,3.3472,3.1593,3.1503,3.0687,2.9098,2.903,2.8994,2.8966,2.8172,2.7356,2.6566,2.5741,2.4933,2.4199,2.4199,2.4199,2.4199,2.4199,2.4199,2.4199,2.4199,2.4199,2.4199,0.0,0.0,0.0,0.0,0.0,0.0,0.0,2.0376,2.0412,2.0422,2.0468,2.0508,2.0508,2.0557,2.0596,0.0,0.0,0.0,0.0,0.0,0.0,0.0,0.0,0.0,0.0,0.0,0.0,2.1904,2.1963,0.0,0.0,0.0,0.0,0.0,0.0,2.4807,2.5495,2.5486,0.0,0.0,0.0,0.0,0.0,0.0,0.0,0.0,0.0,2.5563,2.5515,2.5592,2.562,2.5774,2.6668,2.7625,2.8633,2.957,2.9844,3.001,3.0801,3.1016,3.0791,2.9844,2.9072,2.8271,2.7226,2.6328,2.5742,2.5789,2.6378,2.6691,2.6044,2.6571,2.6815,2.5966,2.5828,2.639,2.7994,2.8212,2.883,3.0513,3.1424,3.2237,3.3099,3.314,3.3448,3.4226,3.4311,3.4632,3.5343,3.5422,3.5344,3.5061,3.5034,3.4082,3.2156,3.1876,3.0956,2.9372,2.9112,2.8994,2.8966,2.8172,2.7356,2.6566,2.5741,2.4933,2.4199,2.4199,2.4199,2.4199,2.4199,2.4199,2.4199,2.4199,2.4199,2.4199,0.0,0.0,0.0,0.0,0.0,0.0,2.0302,2.032,2.035,2.0395,2.0418,2.0441,2.0436,2.0503,2.0557,2.0596,0.0,0.0,0.0,0.0,0.0,0.0,0.0,0.0,0.0,0.0,2.1787,2.2617,2.3115,0.0,0.0,0.0,0.0,0.0,0.0,2.5225,2.556,2.5521,0.0,0.0,0.0,0.0,0.0,0.0,0.0,0.0,0.0,0.0,2.5428,2.539,2.538,2.5457,2.5842,2.6207,2.6812,2.8315,2.8789,2.9014,2.9883,2.9726,2.9248,2.8896,2.8164,2.7285,2.6416,2.5928,2.5674,2.5693,2.5949,2.6084,2.5761,2.5977,2.6103,2.5723,2.5664,2.6083,2.7274,2.7436,2.8266,3.0509,3.0616,3.1241,3.3078,3.3207,3.3705,3.4993,3.5051,3.518,3.5488,3.5493,3.5369,3.5105,3.5105,3.4173,3.2232,3.2079,3.1203,2.957,2.9353,2.9246,2.9206,2.8242,2.7622,2.7246,2.5972,2.5228,2.4869,2.4392,2.4199,2.4199,2.4199,2.4199,2.4199,2.4199,2.4199,2.4199,0.0,0.0,0.0,0.0,0.0,2.0302,2.0302,2.0302,2.0321,2.036,2.0369,2.0374,2.0375,2.0429,2.0503,2.0557,2.0586,0.0,0.0,0.0,0.0,0.0,0.0,0.0,0.0,0.0,2.2051,2.3135,2.374,2.4609,0.0,0.0,2.5654,2.5703,0.0,0.0,0.0,0.0,0.0,0.0,0.0,0.0,0.0,0.0,0.0,0.0,0.0,0.0,0.0,0.0,0.0,2.5303,2.5361,0.0,0.0,2.7026,2.7646,2.8018,2.8662,2.8574,2.8242,2.7978,2.7451,2.6768,2.5898,2.5703,2.5703,2.5703,2.5703,2.5703,2.5703,2.5703,2.5703,2.5703,2.5703,2.5996,2.6885,2.7002,2.7871,3.0244,2.9971,3.0488,3.2764,3.3414,3.4226,3.5523,3.5608,3.5584,3.5536,3.5516,3.5408,3.5223,3.5223,3.4451,3.2816,3.2708,3.1839,3.0175,2.9983,2.9707,2.9364,2.8611,2.8104,2.7714,2.6346,2.5632,2.5348,2.452,2.4199,2.4199,2.4199,2.4199,2.4199,2.4199,2.4199,2.4199,0.0,0.0,0.0,0.0,0.0,0.0,2.0302,2.0302,2.0302,2.0302,2.0302,2.0302,2.0302,2.036,2.0431,2.0497,2.0557,0.0,0.0,0.0,0.0,0.0,0.0,0.0,0.0,0.0,2.1465,2.3203,2.3213,2.4072,2.5703,2.5703,2.5703,2.5703,0.0,0.0,0.0,0.0,0.0,0.0,0.0,0.0,0.0,0.0,0.0,0.0,0.0,0.0,0.0,0.0,0.0,0.0,0.0,0.0,0.0,0.0,2.624,2.6934,2.7012,2.7646,2.8086,2.7226,2.7012,2.6768,2.5898,2.5703,2.5703,2.5703,2.5703,2.5703,2.5703,2.5703,2.5703,2.5703,2.5703,2.5996,2.6885,2.7002,2.7646,2.9414,2.9609,3.0293,3.2041,3.3652,3.49,3.5639,3.5644,3.5603,3.5603,3.5545,3.5493,3.5493,3.5493,3.5074,3.4189,3.3915,3.2943,3.1281,3.1072,3.0434,2.9412,2.9383,2.8813,2.7741,2.6943,2.6135,2.5348,2.452,2.4199,2.4199,2.4199,2.4199,2.4199,2.4199,2.4199,2.4199,0.0,0.0,0.0,0.0,0.0,0.0,0.0,2.0302,2.0302,2.0302,2.0302,2.0302,2.0302,2.0321,2.0337,2.0359,2.0467,0.0,0.0,0.0,0.0,0.0,0.0,0.0,0.0,0.0,2.2031,2.3135,2.373,2.46,2.5703,2.5703,2.5703,2.5703,2.5702,2.5664,0.0,0.0,0.0,0.0,0.0,0.0,0.0,0.0,0.0,0.0,0.0,0.0,0.0,0.0,0.0,0.0,0.0,0.0,0.0,2.5444,2.572,2.6152,2.6758,2.6728,2.6602,2.6924,2.6553,2.6035,2.5762,2.5703,2.5703,2.5703,2.5703,2.5703,2.5703,2.5703,2.5703,2.5703,2.5703,2.5801,2.6074,2.6621,2.7646,2.9394,3.1143,3.2197,3.2197,3.3701,3.4754,3.4929,3.5485,3.5767,3.567,3.5603,3.5555,3.5493,3.5493,3.5084,3.4209,3.412,3.3225,3.1575,3.1325,3.0719,2.9796,2.9532,2.9202,2.8825,2.7414,2.6583,2.6137,2.4912,2.4312,2.4199,2.4199,2.4199,2.4199,2.4199,2.4199,2.4199,0.0,0.0,0.0,0.0,0.0,0.0,0.0,2.0302,2.0302,2.0302,2.0302,2.0302,2.0302,2.0302,2.0302,2.0302,2.0376,0.0,0.0,0.0,0.0,0.0,0.0,0.0,0.0,2.1133,2.1963,2.3096,2.3645,2.451,2.5658,2.564,2.5641,2.5658,2.5638,2.5626,0.0,0.0,0.0,0.0,0.0,0.0,2.5457,0.0,0.0,0.0,0.0,0.0,0.0,0.0,0.0,0.0,0.0,0.0,0.0,0.0,2.5437,2.5645,2.6222,2.6022,2.5791,2.6338,2.606,2.5658,2.5658,2.566,2.5663,2.5634,2.5661,2.5683,2.5634,2.5651,2.5762,2.6071,2.6122,2.6238,2.6591,2.7109,2.7988,2.9434,3.1582,3.2754,3.2246,3.3418,3.4189,3.415,3.5236,3.5718,3.5305,3.5489,3.5589,3.5545,3.5516,3.5247,3.4699,3.4689,3.3843,3.215,3.1979,3.1241,2.9999,2.9738,2.9589,2.942,2.7745,2.6944,0.0,2.5224,2.4536,2.4418,2.4418,2.4418,2.4418,2.4418,2.4418,2.4418,0.0,0.0,0.0,0.0,0.0,0.0,0.0,2.0302,2.0302,2.0302,2.0302,2.0302,2.0302,2.0302,2.0302,2.0302,0.0,0.0,0.0,0.0,0.0,0.0,0.0,0.0,0.0,2.0596,2.1386,2.3006,2.3075,2.3928,2.5515,2.5506,2.5527,2.5595,2.5527,2.5528,0.0,0.0,0.0,0.0,0.0,0.0,0.0,0.0,0.0,0.0,0.0,0.0,0.0,0.0,0.0,0.0,0.0,0.0,0.0,0.0,0.0,0.0,0.0,2.5541,2.5594,2.5585,2.5596,2.5592,2.5592,2.5586,0.0,2.5511,2.5598,2.5654,2.5521,2.5546,2.586,2.6673,2.6799,2.7128,2.8069,2.831,2.8711,2.9578,3.122,3.2236,3.2109,3.2939,3.3467,3.3398,3.4902,3.5457,3.4651,3.5193,3.5532,3.553,3.5516,3.5493,3.5493,3.5493,3.4632,3.2901,3.2901,3.1891,3.0037,2.9956,2.9813,2.9542,2.7862,2.711,2.7006,2.5446,2.4818,2.4804,2.4804,2.4804,2.4804,2.4804,2.4804,2.4804,0.0,0.0,0.0,0.0,0.0,0.0,0.0,0.0,0.0,0.0,2.0302,2.0302,2.0302,2.0302,2.0302,0.0,0.0,0.0,0.0,0.0,0.0,0.0,0.0,0.0,0.0,2.0566,2.1093,2.2113,2.2772,2.3621,2.462,2.5224,2.5501,2.552,2.5508,2.5509,0.0,0.0,0.0,0.0,0.0,0.0,0.0,0.0,0.0,0.0,2.5293,2.5293,0.0,0.0,0.0,0.0,0.0,0.0,0.0,0.0,2.5303,2.5332,2.5339,0.0,2.5521,2.5521,2.5518,2.5518,0.0,0.0,2.5524,2.5493,2.5534,2.5543,2.5508,2.5507,2.5794,2.6661,2.6795,2.7132,2.8067,2.9392,3.033,3.0503,3.2059,3.2588,3.126,3.3105,3.4121,3.3447,3.4385,3.489,3.4687,3.4785,3.4806,3.4758,3.529,3.5555,3.5493,3.5493,3.4632,3.2901,3.2901,3.1991,3.0279,2.9459,2.906,2.8921,2.7182,2.6375,2.6208,2.5321,2.4891,2.4804,2.4804,2.4804,2.4804,2.4804,2.4804,2.4804,0.0,0.0,0.0,0.0,0.0,0.0,0.0,0.0,0.0,0.0,0.0,0.0,0.0,0.0,0.0,0.0,0.0,0.0,0.0,0.0,0.0,0.0,0.0,2.0451,2.0451,2.0876,2.1318,2.1748,2.2964,2.3794,2.4265,2.5043,2.5418,2.5447,2.5445,2.5439,2.5399,0.0,0.0,0.0,2.5303,0.0,0.0,0.0,0.0,0.0,2.5293,2.5293,0.0,2.5293,2.5293,2.5293,0.0,0.0,0.0,0.0,2.5293,2.5293,2.5293,2.538,2.5447,2.5449,2.5449,2.5449,2.5447,0.0,0.0,2.5418,2.5462,2.5601,2.594,2.5703,2.5861,2.7101,2.7299,2.7618,2.8531,2.9556,3.0359,3.075,3.1992,3.2593,3.205,3.3633,3.4189,3.2939,3.4004,3.4531,3.4121,3.4423,3.4771,3.5133,3.5441,3.5376,3.4911,3.5305,3.4632,3.2901,3.2901,3.2025,3.0379,2.9794,2.9315,2.8855,2.7551,2.6708,2.6222,2.5451,2.5086,2.5022,2.5022,2.5022,2.5022,2.5022,2.5022,2.5022,0.0,0.0,0.0,0.0,0.0,0.0,0.0,0.0,0.0,0.0,0.0,0.0,0.0,0.0,0.0,0.0,0.0,0.0,0.0,0.0,0.0,0.0,0.0,2.0375,2.0381,2.1114,2.1556,2.1682,2.3178,2.4015,2.4197,2.4947,2.5322,2.538,2.538,2.5341,2.5293,2.5293,2.5293,2.5293,2.5293,0.0,0.0,0.0,0.0,0.0,0.0,0.0,0.0,2.5293,2.5293,2.5293,2.5293,0.0,0.0,0.0,0.0,0.0,2.5233,2.5271,2.531,2.533,2.536,2.538,2.535,2.536,0.0,2.5303,2.539,2.5659,2.6294,2.5842,2.589,2.7448,2.8044,2.8694,2.9826,3.0085,3.0419,3.1089,3.2063,3.2869,3.3338,3.4295,3.4248,3.2695,3.3769,3.418,3.3437,3.3926,3.4615,3.5474,3.5465,3.4979,3.4048,3.4882,3.4497,3.2901,3.2641,3.1775,3.0388,3.015,2.9621,2.8861,2.8053,2.7207,2.6342,2.5591,2.5293,2.5293,2.5293,2.5293,2.5293,2.5293,2.5293,2.5293,0.0,0.0,0.0,0.0,0.0,0.0,0.0,0.0,0.0,0.0,0.0,0.0,0.0,0.0,0.0,0.0,0.0,0.0,0.0,0.0,0.0,2.0312,2.0321,2.0327,2.0318,2.0494,2.0928,2.1621,2.2601,2.3438,2.4129,2.4928,2.5303,2.5312,2.5312,2.5303,2.5293,2.5293,2.5293,2.5293,2.5293,0.0,0.0,0.0,0.0,0.0,0.0,0.0,0.0,2.5293,2.5293,2.5293,2.5293,0.0,0.0,0.0,0.0,0.0,2.491,2.4888,2.4915,2.503,2.5192,2.5273,2.5098,2.5192,2.5303,0.0,2.5312,2.537,2.5476,2.5399,2.5639,2.664,2.8666,3.09,3.3193,3.3632,3.3497,3.2899,3.4301,3.4791,3.345,3.482,3.5391,3.4394,3.3867,3.3535,3.3408,3.2871,3.2919,3.368,3.4333,3.4216,3.3282,3.402,3.3891,3.2881,3.1468,3.0648,3.034,2.8929,2.8207,2.8034,2.7169,2.6303,2.5485,2.536,2.5293,2.5293,2.5293,2.5293,2.5293,2.5293,2.5293,2.5293,0.0,0.0,0.0,0.0,0.0,0.0,0.0,0.0,0.0,0.0,0.0,0.0,0.0,0.0,0.0,0.0,0.0,0.0,0.0,0.0,0.0,2.0134,2.0069,2.0317,2.0929,2.1437,2.1879,2.2246,2.3563,2.4159,2.412,2.4918,2.5293,2.5293,2.5293,2.5293,2.5293,2.5293,2.5293,2.5293,0.0,0.0,0.0,0.0,0.0,0.0,0.0,0.0,0.0,0.0,2.5141,2.513,2.5049,0.0,0.0,0.0,0.0,0.0,2.4809,2.4804,2.478,2.4737,2.4933,2.5142,2.5163,2.5224,2.5293,2.5293,2.5214,2.5316,2.5898,2.5914,2.6304,2.7716,2.8956,3.0311,3.1956,3.2247,3.2497,3.3085,3.3913,3.4511,3.4686,3.5488,3.5644,3.4766,3.3887,3.3398,3.3398,3.2637,3.2549,3.333,3.3682,3.3623,3.3154,3.2987,3.2689,3.2237,3.1477,3.0612,2.9669,2.89,2.8044,2.7178,2.6774,2.6111,2.5293,2.5293,2.5293,2.5293,2.5293,2.5293,2.5293,2.5293,2.5293,2.5293,0.0,0.0,0.0,0.0,0.0,0.0,0.0,0.0,0.0,0.0,0.0,0.0,0.0,0.0,0.0,0.0,0.0,0.0,0.0,0.0,1.9858,1.9993,1.9902,2.0343,2.1414,2.2095,2.2642,2.3026,2.437,2.4803,2.4389,2.5014,2.5293,2.5293,2.5293,2.5293,2.5293,2.5293,2.5293,2.5293,0.0,0.0,0.0,0.0,0.0,0.0,0.0,0.0,0.0,0.0,0.0,0.0,0.0,0.0,0.0,2.4746,2.4731,2.4716,2.467,2.4654,2.4623,2.4528,2.4723,2.4996,2.5149,2.5213,2.5244,2.5293,2.5183,2.531,2.6077,2.6266,2.6899,2.8737,2.9417,3.0083,3.1141,3.1477,3.2112,3.3519,3.3722,3.4326,3.5761,3.5947,3.5713,3.5049,3.4014,3.3398,3.3398,3.2441,3.2266,3.3086,3.3041,3.2973,3.292,3.2186,3.1782,3.1689,3.1102,3.0208,2.9083,2.8688,2.7813,2.6601,2.6601,2.6111,2.5293,2.5293,2.5293,2.5293,2.5293,2.5293,2.5293,2.5293,2.5293,2.5293,0.0,0.0,0.0,0.0,0.0,0.0,0.0,0.0,0.0,0.0,0.0,0.0,0.0,0.0,0.0,0.0,0.0,0.0,0.0,0.0,1.9858,1.9993,1.9993,2.0374,2.1202,2.1337,2.2179,2.3732,2.4034,2.4534,2.5207,2.5264,2.5293,2.5293,2.5293,2.5293,2.5293,2.5293,2.5293,2.5293,2.5293,0.0,0.0,0.0,0.0,0.0,0.0,0.0,0.0,0.0,0.0,0.0,0.0,0.0,2.476,2.4584,2.4519,2.4478,2.4284,2.4238,2.4284,2.447,2.4654,2.4809,2.4823,2.493,2.5067,2.5264,2.5293,2.5243,2.5141,2.5755,2.6842,2.8552,3.0334,3.2083,3.3699,3.4622,3.5209,3.5401,3.5428,3.5544,3.5867,3.5898,3.5908,3.5908,3.4346,3.3398,3.3398,3.1865,3.1387,3.2256,3.2158,3.2094,3.21,3.1962,3.1827,3.167,2.9294,2.8496,2.9044,2.7486,2.6707,2.6601,2.6601,2.6111,2.5293,2.5293,2.5293,2.5293,2.5293,2.5293,2.5293,2.5293,2.5293,2.5293,0.0,0.0,0.0,0.0,0.0,0.0,0.0,0.0,0.0,0.0,0.0,0.0,0.0,0.0,0.0,0.0,0.0,0.0,0.0,1.9462,1.9563,1.975,1.975,2.0162,2.1058,2.1846,2.3055,2.4732,2.4803,2.5005,2.5293,2.5293,2.5224,2.5111,2.5111,2.5072,2.4984,2.4984,2.4984,2.4984,2.4984,2.4949,0.0,0.0,0.0,0.0,0.0,0.0,0.0,0.0,2.4607,2.4601,2.447,2.4418,2.4401,2.433,2.4312,2.4303,2.4228,2.4199,2.4209,2.4284,2.4375,2.4495,2.4746,2.4842,2.49,2.4962,2.4896,2.4927,2.5363,2.6356,2.7485,2.8624,3.043,3.2102,3.3228,3.4141,3.4901,3.5478,3.5574,3.5649,3.5755,3.5357,3.5117,3.5185,3.3623,3.2646,3.2646,3.1543,3.1055,3.1377,3.1338,3.1282,3.1193,3.1168,3.1087,3.0946,2.9975,2.9111,2.8323,2.7698,2.6822,2.5793,2.5793,2.5591,2.5293,2.5293,2.5293,2.5293,2.5293,2.5293,2.5293,2.5293,2.5293,2.5293,0.0,0.0,0.0,0.0,0.0,0.0,0.0,0.0,0.0,0.0,0.0,0.0,0.0,0.0,0.0,0.0,0.0,0.0,1.9305,1.9359,1.9476,1.9666,1.9698,2.0184,2.1136,2.1933,2.3122,2.4736,2.5013,2.5138,2.5138,2.5138,2.5072,2.4933,2.4933,2.4887,2.4804,2.4804,2.4804,2.4804,2.4804,2.476,0.0,0.0,0.0,0.0,0.0,0.0,0.0,0.0,2.441,2.4375,2.4238,2.4199,2.4199,2.4199,2.4199,2.4199,2.4199,2.4199,2.4199,2.4199,0.0,2.4266,2.4552,2.4654,2.4731,2.479,2.4639,2.4754,2.5554,2.6619,2.7761,2.8927,3.0733,3.2192,3.2801,3.3651,3.442,3.5026,3.5132,3.5295,3.5641,3.5003,3.4603,3.4658,3.3144,3.2197,3.2197,3.1367,3.0898,3.0898,3.0898,3.0859,3.0762,3.0489,3.0303,3.0172,2.9881,2.9102,2.789,2.7621,2.6688,2.5293,2.5293,2.5293,2.5293,2.5293,2.5293,2.5293,2.5293,2.5293,2.5293,2.5293,2.5293,2.5293,0.0,0.0,0.0,0.0,0.0,0.0,0.0,0.0,0.0,0.0,0.0,0.0,0.0,0.0,0.0,0.0,0.0,0.0,1.9305,1.9485,1.9653,1.9788,1.9923,2.046,2.1457,2.1359,2.2021,2.3498,2.4374,2.4804,2.4804,2.4804,2.4804,2.4804,2.4804,2.4804,2.478,2.478,2.478,2.478,2.478,2.467,2.4528,0.0,0.0,0.0,0.0,0.0,0.0,0.0,2.4199,2.4199,2.4199,2.4199,2.4199,2.4199,2.4199,2.4199,2.4199,2.4199,2.4199,2.4199,2.4199,2.4199,2.4199,2.4357,2.4552,2.476,2.4648,2.4756,2.554,2.6358,2.7548,2.9474,3.135,3.2651,3.2856,3.3631,3.417,3.4199,3.4199,3.4564,3.5507,3.4923,3.4506,3.457,3.3086,3.2187,3.2187,3.1367,3.0898,3.0898,3.0889,3.0889,3.0889,3.0019,2.9545,2.9484,2.855,2.8035,2.7861,2.6986,2.612,2.5293,2.5293,2.5293,2.5293,2.5293,2.5293,2.5293,2.5293,2.5293,2.5293,2.5293,2.5293,2.5293,0.0,0.0,0.0,0.0,0.0,0.0,0.0,0.0,0.0,0.0,0.0,0.0,0.0,0.0,0.0,0.0,0.0,0.0,1.9305,1.9359,1.9409,1.9448,1.9625,1.986,2.0162,2.0687,2.1791,2.3501,2.437,2.4804,2.4804,2.4804,2.4721,2.4584,2.4584,2.4512,2.4375,2.4375,2.4375,2.4375,2.4375,2.4348,2.4303,0.0,0.0,0.0,0.0,0.0,0.0,0.0,0.0,0.0,2.4199,2.4199,2.4142,2.3917,2.4025,2.4151,2.3917,2.4016,2.4199,2.4199,2.4199,2.4199,2.4199,2.4247,2.4303,2.4366,2.4783,2.5206,2.5437,2.671,2.7988,2.8751,2.9956,3.1069,3.1933,3.2285,3.2881,3.4055,3.4199,3.4324,3.4641,3.4022,3.336,3.2811,3.1846,3.1289,3.1289,3.1035,3.0898,3.0898,3.0312,2.999,2.999,2.9121,2.865,2.8581,2.8299,2.7773,2.7049,2.6745,2.612,2.5293,2.5293,2.5293,2.5293,2.5293,2.5293,2.5293,2.5293,2.5293,2.5293,2.5293,2.5293,2.5293,0.0,0.0,0.0,0.0,0.0,0.0,0.0,0.0,0.0,0.0,0.0,0.0,0.0,0.0,0.0,0.0,0.0,0.0,0.0,1.9365,1.9418,1.9418,1.9591,1.9653,1.9605,2.0709,2.179,2.2826,2.3671,2.4251,2.4568,2.4568,2.4495,2.4375,2.4375,2.4312,2.4199,2.4199,2.4199,2.4199,2.4199,2.4199,2.4199,0.0,0.0,0.0,0.0,0.0,0.0,0.0,0.0,0.0,2.4151,2.4025,2.3825,2.3867,2.3946,2.3996,2.3917,2.4045,2.4199,2.4199,2.4199,2.4199,2.4199,2.4199,2.4199,2.4199,2.4584,2.5107,2.575,2.6766,2.7901,2.912,2.9846,3.0541,3.1425,3.1539,3.1958,3.3074,3.3208,3.3343,3.3708,3.3092,3.2472,3.1998,3.1295,3.0898,3.0898,3.0898,3.0898,3.0898,3.0049,2.96,2.96,2.8389,2.7764,2.7725,2.7346,2.6852,2.6279,2.6551,2.6187,2.5332,2.5303,2.5293,2.5293,2.5293,2.5293,2.5293,2.5293,2.5293,2.5293,2.5293,2.5293,2.5293,0.0,0.0,0.0,0.0,0.0,0.0,0.0,0.0,0.0,0.0,0.0,0.0,0.0,0.0,0.0,0.0,0.0,0.0,0.0,0.0,1.9569,1.9569,1.9738,1.9766,1.9615,2.1146,2.1902,2.1869,2.263,2.3419,2.4199,2.4199,2.4199,2.4199,2.4199,2.417,2.4142,2.4142,2.4151,2.4122,2.4122,2.4122,2.4122,2.4122,0.0,0.0,0.0,0.0,0.0,0.0,0.0,0.0,2.4016,2.3692,2.3314,2.3887,2.3896,2.3765,2.4036,2.4142,2.4199,2.4199,2.4199,2.4199,2.4199,2.4199,2.4199,2.4199,2.4318,2.4841,2.6236,2.6677,2.7601,2.999,3.0441,3.0649,3.1121,3.1177,3.1307,3.1655,3.1698,3.1987,3.2718,3.2253,3.1868,3.1792,3.1228,3.0898,3.0898,3.082,3.0781,3.0781,2.9863,2.9355,2.9355,2.7715,2.6885,2.6865,2.6016,2.5613,2.5629,2.6351,2.6217,2.5409,2.5332,2.5303,2.5303,2.5312,2.5303,2.5293,2.5303,2.5303,2.5293,2.5293,2.5293,2.5293,0.0,0.0,0.0,0.0,0.0,0.0,0.0,0.0,0.0,0.0,0.0,0.0,0.0,0.0,0.0,0.0,0.0,0.0,0.0,0.0,1.9365,1.9365,1.9806,1.9929,1.9684,2.0833,2.176,2.2345,2.2785,2.3419,2.4199,2.4199,2.4199,2.4199,2.4199,2.4045,2.3816,2.3816,2.3671,2.3423,2.3423,2.3423,2.3423,2.3423,2.3423,0.0,0.0,0.0,0.0,0.0,0.0,0.0,2.3392,2.3323,2.3174,2.3069,2.3337,2.3671,2.3468,2.3795,2.4199,2.4199,2.4199,2.4199,2.4199,2.4199,2.4199,2.4199,2.5199,2.5997,2.5704,2.7209,2.8519,2.8629,2.9218,2.9795,3.0221,3.029,3.0629,3.1587,3.1698,3.1775,3.1939,3.1914,3.1628,3.0928,3.0889,3.0898,3.0898,3.0254,2.9883,2.9883,2.8369,2.7559,2.7559,2.6514,2.5977,2.5977,2.5771,2.5685,2.5683,2.5751,2.5669,2.5486,2.5466,2.5428,2.538,2.5438,2.539,2.5303,2.5361,2.5341,2.5293,2.5293,2.5293,2.5293,0.0,0.0,0.0,0.0,0.0,0.0,0.0,0.0,0.0,0.0,0.0,0.0,0.0,0.0,0.0,0.0,0.0,0.0,0.0,0.0,1.9651,2.0002,2.0659,2.0758,2.0232,2.1323,2.1994,2.2271,2.2607,2.3173,2.3967,2.4113,2.4113,2.3967,2.3967,2.3867,2.3692,2.3522,2.3369,2.3189,2.3189,2.3189,2.3189,2.3189,2.3189,2.3189,2.3189,0.0,0.0,0.0,0.0,0.0,0.0,0.0,2.279,2.2906,2.3061,2.3236,2.3392,2.3692,2.3996,2.417,2.4199,2.4199,2.4199,2.4199,2.4199,2.4199,2.4869,2.5438,2.5421,2.642,2.7289,2.7372,2.8096,2.8788,2.9216,2.9605,3.015,3.0979,3.1083,3.1083,3.1083,3.1167,3.105,3.0633,3.0726,3.0654,3.0303,2.9853,2.9414,2.8994,2.7685,2.7002,2.7002,2.6143,2.5703,2.5703,2.5703,2.57,2.5698,2.5588,2.5548,2.5551,2.5509,2.5476,2.5449,2.5485,2.5455,2.5401,2.5437,2.5428,2.5399,2.5399,2.5399,2.5399,0.0,0.0,0.0,0.0,0.0,0.0,0.0,0.0,0.0,0.0,0.0,0.0,0.0,0.0,0.0,0.0,0.0,0.0,0.0,0.0,0.0,2.0692,2.1497,2.1611,2.0961,2.1993,2.2424,2.2205,2.2489,2.2937,2.3535,2.3867,2.3867,2.3619,2.3619,2.3566,2.3504,2.3103,2.2979,2.3012,2.2764,2.2816,2.3021,2.2913,2.294,2.303,2.303,2.303,2.303,2.303,0.0,0.0,0.0,0.0,2.2396,2.2908,2.2881,2.2814,2.3369,2.3619,2.3774,2.4122,2.4199,2.4199,2.4199,2.4199,2.4199,2.4199,2.4309,2.4566,2.5109,2.543,2.5768,2.6309,2.7071,2.774,2.8158,2.8951,2.9646,3.0078,3.029,3.0331,3.0198,3.0371,3.0413,3.0191,3.0367,3.0166,2.9424,2.9228,2.8818,2.8096,2.7226,2.6777,2.6777,2.6064,2.5703,2.5703,2.5703,2.5703,2.5703,2.5644,2.5615,2.5605,2.5563,2.5529,2.5525,2.5534,2.5521,2.5503,2.551,2.5509,2.5503,2.5503,2.5503,2.5503,0.0,0.0,0.0,0.0,0.0,0.0,0.0,0.0,0.0,0.0,0.0,0.0,0.0,0.0,0.0,0.0,0.0,0.0,1.8651,0.0,0.0,2.0434,2.1164,2.1534,2.1503,2.2258,2.279,2.3038,2.3085,2.302,2.2839,2.3174,2.3314,2.3268,2.3268,2.3117,2.2779,2.2101,2.2048,2.2296,2.0969,2.1232,2.2347,2.1719,2.1872,2.2424,2.2424,2.2424,2.2424,2.2424,2.2396,0.0,0.0,0.0,2.231,2.2396,2.2545,2.2721,2.2822,2.3268,2.3774,2.4122,2.4199,2.4199,2.4199,2.4199,2.4199,2.4199,2.474,2.5072,2.4465,2.5502,2.6245,2.5669,2.6236,2.6827,2.7084,2.7999,2.8758,2.8987,2.9838,3.0102,2.9342,3.0025,2.9938,2.8544,2.9195,2.9307,2.8516,2.7764,2.7285,2.7178,2.6328,2.5869,2.5869,2.5762,2.5703,2.5703,2.5703,2.5703,2.5703,2.5693,2.5693,2.5693,2.5683,2.5643,2.5593,2.5649,2.5595,2.5508,2.5556,2.5548,2.5502,2.5502,2.5502,2.5502,0.0,0.0,0.0,0.0,0.0,0.0,0.0,0.0,0.0,0.0,0.0,0.0,0.0,0.0,0.0,1.877,1.8391,1.8413,1.9022,1.9973,2.0686,2.1051,2.1647,2.195,2.2003,2.2453,2.2695,2.2686,2.284,2.2764,2.2482,2.2634,2.279,2.2896,2.2501,2.222,2.2019,2.1095,2.0816,2.0981,2.0763,2.1075,2.1684,2.1777,2.2023,2.231,2.231,2.231,2.231,2.231,2.231,2.231,2.231,0.0,0.0,0.0,2.2379,2.2545,2.2881,2.3337,2.3774,2.4122,2.4199,2.4199,2.4199,2.4199,2.4199,2.4199,2.4474,2.4612,2.4263,2.4777,2.5135,2.4786,2.5392,2.5989,2.619,2.7118,2.7856,2.8101,2.8646,2.8852,2.8457,2.8794,2.8773,2.8096,2.8463,2.8359,2.7558,2.7187,2.6777,2.6289,2.5898,2.5703,2.5703,2.5703,2.5703,2.5703,2.5703,2.5703,2.5703,2.5703,2.5703,2.5703,2.5703,2.5684,2.5664,2.5693,2.5671,2.5609,2.5643,2.5641,2.5607,2.5607,2.5607,2.5607,0.0,0.0,0.0,0.0,0.0,0.0,0.0,0.0,0.0,0.0,0.0,0.0,0.0,0.0,0.0,0.0,1.7936,1.8127,1.92,2.0282,2.1076,2.1587,2.1936,2.222,2.2407,2.2519,2.2545,2.2407,2.2545,2.2509,2.231,2.231,2.2407,2.2573,2.2022,2.1772,2.1687,2.0509,2.0052,2.0185,2.0387,2.0698,2.1112,2.1639,2.204,2.231,2.231,2.231,2.231,2.231,2.231,2.231,2.231,2.231,0.0,0.0,0.0,2.2169,2.2888,2.3268,2.3544,2.3967,2.4065,2.4103,2.417,2.4199,2.4199,2.4199,2.4199,2.4199,2.4199,2.4199,2.4218,2.4275,2.4773,2.5245,2.5428,2.6343,2.7048,2.7249,2.7639,2.7803,2.7592,2.7765,2.7746,2.7369,2.759,2.7405,2.6611,2.6621,2.6348,2.5723,2.5703,2.5703,2.5703,2.5703,2.5703,2.5703,2.5703,2.5703,2.5703,2.5703,2.5703,2.5703,2.5703,2.5703,2.5703,2.5703,2.5703,2.5703,2.5703,2.5703,2.5703,2.5703,2.5703,2.5703,0.0,0.0,0.0,0.0,0.0,0.0,0.0,0.0,0.0,0.0,0.0,0.0,1.8249,1.8208,1.8078,1.7768,1.7476,1.7772,1.8856,1.9567,2.0463,2.1557,2.162,0.0,2.2669,2.2436,2.2445,2.2678,2.2445,2.2302,2.231,2.231,2.231,2.233,2.2287,2.2271,2.2169,2.0653,2.0225,2.0425,1.9024,1.9339,2.0635,2.0603,2.1311,2.231,2.231,2.231,2.231,2.231,2.231,2.231,2.231,2.231,2.2166,0.0,0.0,0.0,2.247,2.2746,2.2914,2.3566,2.3723,2.3816,2.4122,2.4199,2.4199,2.4199,2.4199,2.4199,2.4199,2.4199,2.4256,2.4444,2.4515,2.4617,2.4817,2.5701,2.6352,2.6362,2.7263,2.7582,2.6755,2.7419,2.7236,2.5659,2.6303,2.6454,2.5712,2.5674,2.5684,2.5703,2.5703,2.5703,2.5703,2.5703,2.5703,2.5703,2.5703,2.5703,2.5703,2.5703,2.5703,2.5703,2.5703,2.5703,2.5703,2.5703,2.5703,2.5703,2.5703,2.5703,2.5703,2.5703,2.5703,2.5703,0.0,0.0,0.0,0.0,0.0,0.0,0.0,0.0,0.0,0.0,0.0,0.0,0.0,1.7304,1.7351,1.7429,1.8425,1.9015,1.8912,2.0475,2.1478,2.1612,2.1899,2.2175,2.2445,2.2341,2.2349,2.2445,2.2349,2.2065,2.1591,2.132,2.0969,2.0502,2.0502,2.0627,2.0693,1.8756,1.8142,1.8516,1.891,1.9244,1.9658,2.1113,2.1732,2.1899,2.218,2.231,2.231,2.231,2.231,2.2226,2.1735,2.1583,2.1439,2.0661,2.0433,2.056,2.1124,2.129,2.1522,2.2438,2.2821,2.315,2.3749,2.4045,2.4199,2.4199,2.4199,2.4199,2.4199,2.4199,2.4275,2.447,2.4495,2.4568,2.4775,2.5173,2.5478,2.5478,2.5921,2.6111,2.5803,2.6053,2.5986,2.538,2.5658,2.5753,2.5493,2.5554,2.5605,2.5644,2.5684,2.5703,2.5703,2.5703,2.5703,2.5703,2.5703,2.5703,2.5703,2.5703,2.5703,2.5703,2.5703,2.5703,2.5703,2.5703,2.5703,2.5703,2.5703,2.5703,2.5703,2.5703,2.5703,2.5703,0.0,0.0,0.0,0.0,0.0,0.0,0.0,0.0,0.0,0.0,0.0,0.0,0.0,0.0,1.7183,1.7296,1.8725,1.9427,1.8936,2.0608,2.1568,2.1407,2.1713,2.1915,2.2069,2.2209,2.231,2.231,2.1919,2.1477,2.0982,2.035,1.9787,1.932,1.8966,1.9126,1.954,1.7886,1.7366,1.7735,1.869,1.9073,1.9256,2.1162,2.1735,2.165,2.1966,2.2172,2.2282,2.2106,2.2012,2.1845,2.1338,2.0856,2.0365,2.0069,1.9816,1.9738,2.0196,2.0336,2.058,2.1648,2.21,2.252,2.3491,2.3867,2.4065,2.418,2.4199,2.4199,2.4199,2.4199,2.4275,2.447,2.4552,2.466,2.4846,2.5005,2.5099,2.5099,2.5214,2.5293,2.5293,2.5293,2.5293,2.5293,2.5332,2.538,2.5399,2.551,2.5593,2.5635,2.5684,2.5703,2.5703,2.5703,2.5703,2.5703,2.5703,2.5703,2.5703,2.5703,2.5703,2.5703,2.5703,2.5703,2.5703,2.5703,2.5703,2.5703,2.5703,2.5703,2.5703,2.5703,2.5703,2.5703,0.0,0.0,0.0,0.0,0.0,0.0,0.0,0.0,0.0,1.778,0.0,0.0,0.0,0.0,0.0,1.7312,1.8297,1.8944,1.8916,1.9814,2.055,2.1031,2.1031,2.1213,2.162,2.2069,2.231,2.231,2.1183,2.0615,2.0548,1.9479,1.8953,1.8881,1.7822,1.7922,1.8865,1.8142,1.8034,1.8376,1.8254,1.8679,1.9496,2.0575,2.1244,2.1552,2.159,2.189,2.2209,2.1756,2.1453,2.1229,2.1187,2.012,1.9003,1.9723,1.9443,1.902,0.0,0.0,0.0,2.1253,2.1533,2.1901,2.3329,2.3656,2.3759,2.4113,2.4199,2.4199,2.4199,2.4199,2.4256,2.447,2.467,2.4842,2.4986,2.5163,2.5293,2.5293,2.5293,2.5293,2.5293,2.5293,2.5293,2.5293,2.5293,2.5322,2.539,2.5457,2.5557,2.5693,2.5703,2.5703,2.5703,2.5703,2.5703,2.5703,2.5703,2.5703,2.5703,2.5703,2.5703,2.5703,2.5703,2.5703,2.5703,2.5703,2.5703,2.5703,2.5703,2.5703,2.5703,2.5703,2.5703,2.5703,0.0,0.0,0.0,0.0,0.0,0.0,1.7758,1.7393,1.7159,0.0,0.0,0.0,1.7068,1.7304,1.7296,1.696,1.8622,1.9596,1.9364,2.0858,2.1802,2.1915,2.1953,2.1982,2.2098,2.2245,2.231,2.231,2.1624,2.0809,1.9797,1.8954,1.8024,1.7023,1.6489,1.6405,1.6673,1.6468,1.6861,1.7641,1.8152,1.8583,1.9034,2.047,2.0854,2.0699,2.1047,2.1438,2.1756,2.165,2.1795,2.1803,2.0686,1.9316,1.8149,1.8361,1.8253,1.8158,1.8361,0.0,0.0,0.0,0.0,0.0,2.1896,2.2518,2.3016,2.3698,2.3846,2.3917,2.4151,2.4199,2.4209,2.4266,2.4559,2.4842,2.4986,2.5163,2.5293,2.5293,2.5293,2.5293,2.5293,2.5293,2.5293,2.5293,2.5293,2.5303,2.5322,2.5392,2.5488,2.5615,2.5635,2.5654,2.5703,2.5703,2.5703,2.5703,2.5703,2.5703,2.5703,2.5703,2.5703,2.5703,2.5703,2.5703,2.5703,2.5703,2.5703,2.5703,2.5703,2.5703,2.5703,2.5703,2.5703,2.5703,0.0,0.0,0.0,0.0,0.0,1.7368,1.7549,1.7134,1.6866,0.0,0.0,0.0,1.7625,1.8129,1.8361,1.816,1.9579,2.0422,2.0204,2.1342,2.2003,2.2003,2.2003,2.2003,2.2003,2.2209,2.22,2.2003,2.1302,2.0283,1.9022,1.8119,1.7104,1.6088,1.5877,1.5799,1.5799,1.5799,1.6449,1.7502,1.7937,1.85,1.9213,2.0309,2.055,2.0348,2.0616,2.0983,2.1346,2.1346,2.1367,2.1074,1.9554,1.8481,1.7811,1.7811,1.7811,1.7811,1.7811,1.7811,1.7989,1.8716,0.0,0.0,2.101,2.1848,2.2542,2.3266,2.366,2.3967,2.417,2.4199,2.4199,2.4199,2.447,2.4697,2.4785,2.5008,2.5173,2.5173,2.5173,2.5214,2.5293,2.5293,2.5293,2.5293,2.5293,2.5303,2.5332,2.5376,2.545,2.5554,2.5587,2.5615,2.5664,2.5693,2.5703,2.5703,2.5703,2.5703,2.5703,2.5703,2.5703,2.5703,2.5703,2.5703,2.5703,2.5703,2.5703,2.5703,2.5703,2.5703,2.5703,2.5703,2.5703,2.5703,0.0,0.0,1.7689,1.7689,1.7424,1.7191,1.7248,1.696,1.6795,0.0,1.7338,1.7953,1.892,1.9621,2.0002,2.0002,2.0737,2.1212,2.1212,2.1511,2.1688,2.1688,2.1688,2.1688,2.1688,2.2106,2.2069,2.159,2.0582,1.9559,1.8501,1.7333,1.6473,1.5911,0.0,0.0,1.5799,1.5799,1.6488,1.7545,1.7578,1.8369,1.9563,1.9974,2.0184,2.0212,2.0212,2.055,2.0999,2.1055,2.0627,1.9816,1.8426,1.7943,1.7921,1.7828,1.7811,1.7811,1.7811,1.7811,1.7972,1.8606,1.8799,0.0,2.0429,2.1295,2.2018,2.2674,2.3391,2.3913,2.4043,2.407,2.4098,2.419,2.4375,2.4495,2.4495,2.4771,2.4977,2.5001,2.5001,2.5088,2.5283,2.5293,2.5293,2.5293,2.5293,2.5322,2.539,2.539,2.5418,2.5495,2.5554,2.5583,2.5595,2.5664,2.5693,2.5693,2.5703,2.5703,2.5703,2.5703,2.5703,2.5703,2.5703,2.5703,2.5703,2.5703,2.5703,2.5703,2.5703,2.5703,2.5703,2.5703,2.5703,2.5703,0.0,0.0,1.6993,1.6993,1.6704,1.6599,1.6858,1.6599,1.6804,1.7951,1.8901,1.9563,1.9757,1.9909,2.0002,2.0002,2.0737,2.1212,2.1212,2.1787,2.2172,2.2172,2.2172,2.2172,2.2172,2.2245,2.2069,2.159,2.1083,2.0258,1.9176,1.8029,1.7145,1.6495,1.6009,1.5799,1.5799,1.5799,1.6032,1.6426,1.6766,1.7504,1.8474,1.8874,1.9351,1.9811,1.9811,2.0337,2.1063,2.1368,2.1006,2.0254,1.9376,1.8902,1.8572,1.798,1.7811,1.7811,1.7811,1.7811,1.7845,1.7989,1.8184,0.0,1.9412,1.9894,2.0436,2.1437,2.1757,2.216,2.3079,2.3235,2.3456,2.4089,2.4375,2.4495,2.4495,2.4691,2.4887,2.4986,2.5001,2.5088,2.5283,2.5293,2.5293,2.5293,2.5293,2.5303,2.5312,2.5312,2.5341,2.5418,2.5433,2.5457,2.5524,2.5588,2.5615,2.5615,2.5674,2.5703,2.5703,2.5703,2.5703,2.5703,2.5703,2.5703,2.5703,2.5703,2.5703,2.5703,2.5703,2.5703,2.5703,2.5703,2.5703,2.5703,1.6841,1.6789,1.6789,1.6789,1.6528,1.6348,1.6528,1.6402,1.6698,1.7751,1.8975,1.9974,2.0534,2.023,2.0154,2.0568,2.0957,2.1212,2.1212,2.1887,2.231,2.231,2.231,2.231,2.231,2.231,2.2069,2.159,2.1213,2.0281,1.8874,1.8067,1.7167,1.6248,1.5941,1.5799,1.577,1.5544,1.5563,1.5792,1.6787,1.7574,1.8179,1.8914,1.9398,1.9682,1.9682,2.0104,2.0635,2.0448,2.0459,2.0336,1.9406,1.9021,1.8802,1.8225,1.7928,1.7811,1.7811,1.7811,1.7825,1.7971,1.8112,0.0,0.0,1.955,2.026,2.1334,2.1553,2.1853,2.2813,2.2988,2.3134,2.3547,2.4026,2.4348,2.4348,2.4617,2.4814,2.4891,2.4962,2.5088,2.5283,2.5293,2.5293,2.5293,2.5293,2.5293,2.5293,2.5293,2.5312,2.5341,2.538,2.5417,2.5454,2.5519,2.5549,2.5552,2.5581,2.5624,2.5654,2.5654,2.5674,2.5703,2.5703,2.5703,2.5703,2.5703,2.5703,2.5703,2.5703,2.5703,2.5703,2.5703,2.5703,2.5703,1.6607,1.6615,1.6615,1.6615,1.6367,1.6183,1.6183,1.6183,1.6506,1.7391,1.8727,1.9951,2.0872,2.0339,2.022,2.0985,2.0953,2.0987,2.1246,2.1701,2.2057,2.2302,2.231,2.231,2.231,2.231,2.2069,2.159,2.1275,2.0321,1.8742,1.8125,1.7255,1.6173,1.5911,1.5741,1.5654,1.5385,1.5248,1.5319,1.6828,1.7495,1.7748,1.8758,1.9187,1.9245,1.9557,1.9775,1.9931,1.9556,1.9941,2.0396,1.9364,1.9157,1.9225,1.8592,1.8209,1.7989,1.7845,1.7811,1.7869,1.8125,1.8187,1.8351,0.0,0.0,0.0,2.1329,2.1547,2.185,2.2832,2.2877,2.2822,2.296,2.3556,2.3979,2.4026,2.4465,2.479,2.4746,2.4894,2.5067,2.5234,2.5283,2.5293,2.5293,2.5293,2.5293,2.5293,2.5293,2.5293,2.5293,2.5341,2.538,2.538,2.5457,2.548,2.5481,2.549,2.5526,2.5582,2.558,2.5623,2.5684,2.5684,2.5693,2.5703,2.5703,2.5703,2.5703,2.5703,2.5703,2.5703,2.5703,2.5703,2.5703,1.5983,1.5898,1.5898,1.5898,1.5877,1.5856,1.5856,1.5856,1.6317,1.7669,1.9057,1.9996,2.0136,1.9786,1.9824,2.0524,2.0031,2.0205,2.1474,2.1073,2.1244,2.2257,2.231,2.231,2.231,2.231,2.2069,2.159,2.1552,2.1053,2.0066,1.8857,1.8014,1.7413,1.6286,1.558,1.5201,1.5693,1.547,1.4884,1.5985,1.6267,1.6052,1.6909,1.7298,1.7576,1.8944,1.9206,1.9012,1.9866,2.0539,2.0822,2.0009,2.0299,2.0653,1.9251,1.8811,1.8631,1.7989,1.7811,1.7869,1.8125,1.8187,1.8351,1.8878,0.0,1.9431,2.0442,0.0,2.1126,2.2703,0.0,0.0,2.2887,2.3088,2.3198,2.3384,2.4219,2.4731,2.4561,2.4804,2.501,2.5034,2.5203,2.5293,2.5293,2.5293,2.5293,2.5293,2.5293,2.5293,2.5293,2.5303,2.5303,2.5303,2.538,2.5409,2.5408,2.5466,2.5504,2.551,2.5506,2.5547,2.5605,2.5605,2.5654,2.5703,2.5703,2.5703,2.5703,2.5703,2.5703,2.5703,2.5703,2.5703,2.5703,1.5827,1.5799,1.5799,1.5799,1.5799,1.5799,1.5799,1.6331,1.708,1.8067,1.8689,1.9312,1.9925,1.9488,1.9445,2.0164,2.0374,2.0745,2.1337,2.1504,2.1807,2.2265,2.231,2.231,2.231,2.231,2.22,2.2003,2.1726,2.1087,2.0099,1.8928,1.7946,1.7085,1.592,1.5465,1.558,1.502,1.4944,1.5148,1.5056,1.5053,1.5265,1.6521,1.719,1.7593,1.8623,1.8872,1.8834,1.9682,2.0227,2.0503,1.9953,1.996,1.998,1.911,1.8576,1.8192,1.7873,1.7811,1.7869,1.8125,1.8187,1.8351,1.8878,1.8993,1.9287,2.0296,0.0,0.0,0.0,0.0,0.0,0.0,2.3236,2.3497,2.4097,2.419,2.4369,2.4733,2.5018,2.5173,2.5173,2.5244,2.5293,2.5293,2.5293,2.5293,2.5293,2.5293,2.5293,2.5293,2.5293,2.5293,2.5293,2.5322,2.5332,2.5332,2.537,2.5399,2.5438,2.544,2.5485,2.554,2.5584,2.5615,2.5644,2.5684,2.5703,2.5703,2.5703,2.5703,2.5703,2.5703,2.5703,2.5703,1.5827,1.5799,1.5799,1.5799,1.5799,1.5827,1.5934,1.683,1.7658,1.8036,1.8183,1.8541,1.9302,1.8847,1.8757,1.9479,2.0093,2.0589,2.0984,2.153,2.1961,2.2302,2.231,2.231,2.231,2.231,2.231,2.231,2.1823,2.1138,0.0,0.0,0.0,1.6912,1.5785,1.5417,1.5542,1.4808,1.4825,1.5271,1.4574,1.4364,1.4638,1.5911,1.6561,1.6924,1.757,1.8025,1.8352,1.904,1.9735,2.0254,1.9972,1.9836,1.9731,1.9263,1.8757,1.8302,1.8022,1.7937,1.7994,1.826,1.831,1.845,1.8957,1.9249,1.9626,2.0342,2.0686,0.0,0.0,0.0,2.2599,2.2841,0.0,2.3385,2.4264,2.4233,2.4329,2.4883,2.5118,2.5244,2.5293,2.5293,2.5293,2.5293,2.5293,2.5293,2.5293,2.5293,2.5293,2.5293,2.5293,2.5293,2.5293,2.5293,2.5293,2.5293,2.5293,2.5322,2.537,2.537,2.5409,2.5476,2.5523,2.5556,2.558,2.5644,2.5674,2.5674,2.5693,2.5703,2.5703,2.5703,2.5703,2.5703,1.5848,1.5799,1.5799,1.5799,1.5799,1.5906,1.6238,1.7145,1.7687,1.7363,1.7615,1.7819,1.7855,1.7567,1.7609,1.8291,1.8441,1.9077,2.0426,2.0615,2.1158,2.2248,2.231,2.231,2.231,2.231,2.231,2.231,2.1823,2.1391,0.0,0.0,0.0,0.0,1.6346,1.5336,1.4605,1.562,1.5587,1.4909,1.489,1.4479,1.396,1.4429,1.4588,1.4696,1.5372,1.6284,1.7246,1.7925,1.9126,2.0314,2.0272,2.0593,2.0807,2.0081,1.985,1.9605,1.8563,1.8274,1.8343,1.8537,1.8594,1.8707,1.9187,1.9888,2.0466,2.0484,2.1171,2.1775,2.1793,2.1134,2.0868,2.1711,2.1971,0.0,0.0,2.4283,2.4921,2.4823,2.493,2.5088,2.5283,2.5293,2.5293,2.5293,2.5293,2.5293,2.5293,2.5293,2.5293,2.5293,2.5293,2.5293,2.5293,2.5293,2.5293,2.5293,2.5293,2.5293,2.5293,2.5293,2.5332,2.5399,2.5409,2.5441,2.5507,2.5579,2.5596,2.5605,2.5674,2.5703,2.5703,2.5703,2.5703,2.57,1.5827,1.5799,1.5799,1.5799,1.5799,1.5898,1.6246,1.6597,1.6849,1.6959,1.6858,1.6992,1.7425,1.7798,1.8211,1.8667,1.9656,2.0461,2.094,2.1443,2.1911,2.2265,2.231,2.231,2.231,2.231,2.231,2.231,2.2135,2.1832,0.0,0.0,0.0,0.0,1.6173,1.5234,1.5023,1.5125,1.5065,1.4878,1.4792,1.4224,1.3486,1.3927,1.4278,1.4577,1.5251,1.5905,1.6554,1.7224,1.8244,1.925,1.925,1.9505,1.9747,1.9497,1.9326,1.91,1.8736,1.8481,1.8368,1.8589,1.8495,1.8461,1.8974,1.9718,2.0196,1.979,2.0813,2.1611,2.1051,2.134,2.1788,2.2078,2.2366,2.2836,0.0,2.4622,2.4982,2.4401,2.4856,2.5234,2.5293,2.4822,2.4726,2.5255,2.4812,2.4736,2.5264,2.5293,2.5293,2.5293,2.5293,2.5293,2.5293,2.5293,2.5293,2.5293,2.5293,2.5293,2.5293,2.5293,2.5024,2.4562,2.5149,2.511,2.4687,2.5291,2.5563,2.5595,2.5583,2.5621,2.5703,2.5703,2.5703,2.5689,1.5983,1.5983,1.5926,1.5827,1.6011,1.6199,1.6301,1.6493,1.6704,1.6789,1.6704,1.6817,1.724,1.7822,1.8259,1.849,1.99,2.0771,2.0771,2.1735,2.231,2.231,2.231,2.2209,2.204,2.2209,2.2217,2.204,2.204,2.1699,0.0,0.0,0.0,0.0,1.5903,1.5071,1.5003,1.4992,1.4851,1.462,1.4539,1.4108,1.3556,1.385,1.4138,1.4393,1.4587,1.5496,1.6518,1.6599,1.7695,1.9011,1.8821,1.9059,1.9368,1.9368,1.9254,1.9147,1.918,1.9017,1.8931,1.9234,1.9141,1.9141,1.9694,2.0444,2.0825,2.0142,2.0973,2.1502,2.0531,2.0895,2.1435,2.1726,2.2056,2.2584,0.0,2.4293,2.4495,2.3726,2.4313,2.4667,2.4428,2.409,2.4166,2.4822,2.4591,2.4677,2.5264,2.5293,2.5293,2.5293,2.5293,2.5293,2.5293,2.5293,2.5168,2.487,2.487,2.4716,2.4409,2.4409,2.413,2.3677,2.4226,2.4178,2.3765,2.4668,2.5079,2.5164,2.5428,2.56,2.5701,2.5671,2.5684,2.5691,1.6293,1.6301,1.6163,1.5856,1.6348,1.6667,1.6348,1.6842,1.715,1.6815,1.7052,1.724,1.724,1.7557,1.7758,1.7758,1.9115,1.9959,2.0002,2.1422,2.2268,2.231,2.231,2.2069,2.162,2.2069,2.2069,2.159,2.1587,2.1038,0.0,0.0,0.0,0.0,1.5606,1.4914,1.4545,1.5205,1.4954,1.4085,1.4116,1.411,1.4085,1.4116,1.4148,1.4097,1.3509,1.4974,1.707,1.6022,1.7459,1.9514,1.8999,1.9259,1.9682,1.9682,1.9682,1.9718,1.9861,1.9884,1.9941,2.0288,2.0377,2.0521,2.1104,2.1882,2.2262,2.1432,2.1534,2.1415,2.0291,1.9831,1.9866,2.0676,2.1178,2.1789,2.2784,2.3475,2.3605,2.289,2.3361,2.3502,2.291,2.3258,2.3666,2.4063,2.4622,2.5031,2.5235,2.5274,2.5283,2.5283,2.5293,2.5303,2.5283,2.5303,2.4899,2.41,2.41,2.3639,2.2793,2.2793,2.2774,2.2735,2.2774,2.2774,2.2812,2.3784,2.4226,2.4389,2.5248,2.5628,2.5676,2.562,2.5644,2.5681,1.6293,1.6088,1.5906,1.5835,1.6136,1.6402,1.632,1.6448,1.652,1.6448,1.6293,1.6285,1.652,1.6858,1.7159,1.74,1.8489,1.9426,1.9959,2.0932,2.1727,2.2285,2.231,2.2069,2.162,2.2069,2.2069,2.159,2.1406,2.1011,2.0422,0.0,0.0,0.0,1.609,1.5195,1.455,1.5107,1.4864,1.4116,1.4532,1.445,1.4129,1.4538,1.4953,1.5203,1.4651,1.5111,1.5931,1.5636,1.6801,1.8346,1.8194,1.8863,1.9682,1.9682,1.9682,1.9717,1.9747,1.9559,1.946,1.9734,1.9895,2.005,2.0397,2.1352,2.1901,2.1089,2.1043,2.092,2.0235,1.9748,1.9798,2.085,2.2348,2.3679,2.4534,2.4812,2.4389,2.2976,2.2863,2.3077,2.3509,2.3652,2.3774,2.3872,2.402,2.4199,2.4399,2.4827,2.5088,2.5088,2.5214,2.5234,2.5088,2.5234,2.4899,2.41,2.41,2.3639,2.2793,2.2793,2.2447,2.187,2.2514,2.2427,2.1947,2.3495,2.4169,2.4293,2.5079,2.5425,2.5492,2.5631,2.5655,2.5604,1.6528,1.6143,1.5799,1.5799,1.5797,1.5832,1.606,1.6219,1.6246,1.6088,1.6032,1.6088,1.6274,1.673,1.7101,1.7288,1.8281,1.908,1.9502,2.056,2.138,2.1794,2.193,2.1802,2.1346,2.1615,2.1606,2.1337,2.0883,2.0421,1.9854,0.0,0.0,0.0,1.5839,1.5134,1.449,1.4413,1.4407,1.445,1.4519,1.4651,0.0,1.5148,1.5574,1.6013,1.5706,1.5895,1.6231,1.5757,1.6797,1.8286,1.8056,1.8767,1.9682,1.9682,1.9682,1.9754,1.9902,1.9821,1.9782,2.0123,2.0259,2.0392,2.0706,2.1439,2.1915,2.1449,2.138,2.114,2.0371,2.0042,2.0193,2.1123,2.2547,2.3553,2.363,2.3976,2.3591,2.1908,2.1876,2.2166,2.2621,2.2564,2.2666,2.311,2.3426,2.3825,2.4373,2.473,2.4907,2.4907,2.5024,2.5061,2.5001,2.5111,2.4619,2.3533,2.3533,2.2889,2.1706,2.1706,2.1437,2.1004,2.1495,2.1427,2.111,2.2812,2.3572,2.3746,2.4928,2.541,2.5461,2.5566,2.5587,2.5546,1.6738,1.6219,1.5799,1.5799,1.5418,1.5262,1.5733,1.6004,1.6052,1.582,1.606,1.6246,1.6301,1.685,1.724,1.7296,1.8197,1.8792,1.8885,2.0137,2.1,2.1204,2.1436,2.1379,2.0999,2.1055,2.1055,2.0999,2.0268,1.9634,0.0,0.0,0.0,0.0,1.5381,1.4987,1.4555,1.3691,1.3935,1.4878,1.4469,1.4878,1.5706,1.5775,1.6095,1.6515,1.6515,1.6795,1.7075,1.6191,1.7209,1.8734,1.8334,1.8893,1.9682,1.9682,1.9682,1.9782,2.0124,2.0219,2.0314,2.0789,2.0959,2.1078,2.1431,2.1832,2.2113,2.2113,2.203,2.1662,2.0776,2.076,2.1068,2.1694,2.2526,2.2824,2.2038,2.2603,2.2468,2.0797,2.1043,0.0,2.1057,2.1001,2.1307,2.2079,2.2866,2.3599,2.4271,2.4596,2.4704,2.461,2.4733,2.4832,2.4927,2.4847,2.411,2.2728,2.2632,2.1758,2.0259,2.0259,2.0277,2.0302,2.0302,2.0302,2.0437,2.211,2.2957,2.3362,2.4889,2.5476,2.5465,2.5482,2.5484,2.5475,1.6448,1.606,1.5799,1.5799,1.5418,1.5262,1.5733,1.5536,1.5441,1.577,1.5856,1.5983,1.6266,1.6659,1.701,1.7272,1.7721,1.8259,1.886,1.9139,1.9858,2.1153,2.1242,2.1189,2.1015,2.1346,2.1337,2.0999,2.0015,1.946,1.9386,0.0,1.6672,1.6191,1.5841,1.5484,1.5113,1.4278,1.4318,1.4941,1.526,1.5524,1.5743,1.6195,1.6434,1.6515,1.6515,1.6558,1.6661,1.6911,1.7578,1.8295,1.865,1.9207,1.9682,1.9682,1.9682,1.9726,1.9782,1.9818,1.9909,2.0322,2.0723,2.1086,2.1505,2.194,2.2268,2.2268,2.1945,2.1688,2.1712,2.2317,2.2936,2.3326,2.4079,2.4522,2.4257,2.4457,2.3984,2.2312,2.2213,2.1726,2.0346,2.1323,2.1817,2.1277,2.2504,2.2851,2.1806,2.3523,2.4244,2.3571,2.4368,2.4721,2.4598,2.404,2.3303,2.2388,2.1711,2.0933,2.005,2.005,2.0142,2.0302,2.0302,2.0302,2.0437,2.211,2.362,2.4918,2.5274,2.538,2.534,2.5399,2.538,2.534,1.6394,1.6163,1.5919,1.5507,1.5074,1.4944,1.5359,1.5066,1.5036,1.5704,1.5799,1.5848,1.6011,1.6509,1.6858,1.7035,1.7511,1.7955,1.831,1.8682,1.9223,1.9959,2.0527,2.08,2.0738,2.0846,2.1031,2.1306,1.9618,1.9042,1.9467,1.7463,1.6448,1.6289,1.5771,1.5326,1.4983,1.4633,1.4834,1.5323,1.5593,1.5869,1.6145,1.6415,1.6515,1.6478,1.6195,1.6095,1.6172,1.6627,1.737,1.8122,1.8311,1.898,1.9682,1.9682,1.9682,1.9682,1.9682,1.9839,2.0062,2.0246,2.0657,2.1055,2.1244,2.1628,2.1936,2.1936,2.2068,2.2216,2.2348,2.2473,2.2804,2.354,2.4062,2.4318,2.4143,2.4179,2.3597,2.1917,2.1718,2.1246,2.0024,2.0573,2.0979,2.0903,2.1964,2.2281,2.1496,2.2891,2.3544,2.3165,2.36,2.3871,2.3887,2.3553,2.2821,2.167,2.1298,2.0706,2.0003,2.0003,2.0115,2.0302,2.0302,2.0542,2.1062,2.2764,2.4197,2.5293,2.5332,2.5322,2.5293,2.5332,2.5322,2.5293,1.6188,1.6029,1.5832,1.509,1.4627,1.4501,1.4914,1.469,1.4814,1.5704,1.5799,1.5827,1.5906,1.6448,1.6841,1.6909,1.7455,1.7811,1.7811,1.8344,1.8733,1.8885,1.9772,2.0311,2.0381,2.0312,2.0641,2.1321,1.9459,1.891,1.9533,1.7721,1.6634,1.623,1.546,1.4979,1.4695,1.4846,1.5161,1.5542,1.5775,1.5994,1.6176,1.6296,1.6271,1.6114,1.5674,1.5524,1.5573,1.5867,1.6695,1.7598,1.761,1.8316,1.915,1.915,1.9325,1.9508,1.9615,1.9963,2.034,2.0542,2.0846,2.1158,2.126,2.1507,2.1756,2.1756,2.2296,2.2864,2.305,2.2702,2.2691,2.362,2.3881,2.3894,2.3733,2.3757,2.3149,2.142,2.1252,2.0869,1.9818,1.9953,2.0304,2.076,2.1373,2.1671,2.1527,2.2464,2.2932,2.2758,2.3088,2.3252,2.3238,2.3078,2.2309,2.0969,2.08,2.0455,1.9954,1.9954,2.0078,2.0312,2.0485,2.1119,2.2158,2.3533,2.4572,2.5293,2.5293,2.5293,2.5293,2.5293,2.5293,2.5293,1.5359,1.5218,1.5059,1.462,1.4214,1.4091,1.4501,1.4533,1.4814,1.5704,1.5799,1.5906,1.6219,1.6581,1.6934,1.7224,1.7581,1.7811,1.7811,1.7848,1.8208,1.886,1.9299,1.965,1.9959,2.0172,2.034,2.0408,1.9949,1.9779,1.9855,1.9034,1.775,1.6082,1.5029,1.4626,1.4695,1.4846,1.4941,1.5073,1.6038,1.5875,1.5117,1.558,1.5461,1.506,1.501,1.4985,1.4942,1.4895,1.5346,1.5996,1.6472,1.6964,1.733,1.733,1.8035,1.8902,1.9323,1.9831,2.0475,2.129,2.1521,2.1667,2.2077,2.2209,2.2237,2.2237,2.2712,2.3397,2.419,2.4136,2.4136,2.4599,2.4542,2.4424,2.4407,2.4563,2.3997,2.2135,2.2065,2.1452,1.9617,2.0481,2.1028,2.0732,2.084,2.0824,2.0629,2.2126,2.2676,2.195,2.3327,2.3759,2.3051,2.2298,2.1469,2.054,1.9819,1.9597,1.9823,1.9823,1.9992,2.034,2.1071,2.2331,2.3869,2.4033,2.4572,2.5293,2.5293,2.5293,2.5293,2.5293,2.5293,2.5293,1.5145,1.5296,1.5333,1.4735,1.4478,1.4512,1.4908,1.4704,1.4948,1.6173,1.6009,1.5856,1.5983,1.6482,1.6763,1.6722,1.7199,1.7494,1.7494,1.7494,1.7627,1.7934,1.8475,1.8765,1.8715,1.899,1.9272,1.9513,1.9387,1.9289,1.9289,1.8695,1.7276,1.5278,1.5153,1.4803,1.4358,1.4746,1.4909,1.4953,1.5354,1.5266,1.4935,1.5161,1.5104,1.4872,1.4532,1.4418,1.4367,1.3948,1.466,1.5781,1.615,1.6637,1.7156,1.7405,1.7763,1.8301,1.9148,1.9421,1.9788,2.124,2.1491,2.1516,2.2172,2.231,2.231,2.231,2.2773,2.3428,2.4173,2.4192,2.408,2.4128,2.3997,2.3862,2.3746,2.3554,2.2959,2.1734,2.1378,2.0683,1.9289,2.029,2.0875,2.0535,2.1689,2.2116,2.1433,2.1963,2.2345,2.252,2.2171,2.2079,2.2281,2.1437,2.0602,1.9776,1.9445,1.9429,1.9682,1.9682,2.0059,2.077,2.1608,2.272,2.3962,2.4431,2.4906,2.5293,2.5293,2.5293,2.5293,2.5293,2.5293,2.5274,1.476,1.498,1.5014,1.4358,1.4417,1.4568,1.4666,1.4876,1.5282,1.5954,1.6062,1.6054,1.6054,1.6417,1.6562,1.632,1.6817,1.7191,1.7288,1.7199,1.7199,1.7296,1.7811,1.7963,1.7737,1.8034,1.8346,1.8608,1.8554,1.8567,1.8579,1.7911,1.6654,1.4983,1.502,1.4579,1.3883,1.4437,1.4569,1.4419,1.4783,1.4721,1.4406,1.4607,1.4569,1.4337,1.3984,1.3852,1.3783,1.3323,1.3983,1.5009,1.5334,1.5865,1.6426,1.6806,1.7146,1.7624,1.868,1.8912,1.9264,2.0759,2.1172,2.1329,2.1862,2.215,2.233,2.2407,2.2764,2.3221,2.3795,2.3835,2.374,2.3642,2.3511,2.3387,2.3298,2.2817,2.2186,2.1399,2.0841,2.0105,1.9099,2.0046,2.0603,2.0323,2.1897,2.2461,2.1581,2.1829,2.2164,2.252,2.158,2.1314,2.1803,2.0941,2.0106,1.9305,1.9305,1.9404,1.9605,1.964,2.0292,2.1419,2.2022,2.2978,2.4135,2.4748,2.5078,2.5214,2.5283,2.5293,2.5293,2.5293,2.5264,2.5194,1.3986,1.3934,1.3775,1.3307,1.3726,1.3902,1.3327,1.4972,1.5855,1.4667,1.5782,1.6704,1.6704,1.6449,1.6293,1.6293,1.6607,1.6934,1.7288,1.6985,1.6952,1.7296,1.7309,1.7308,1.7316,1.756,1.7722,1.7722,1.7721,1.7766,1.7885,1.6831,1.6118,1.5635,1.4458,1.3661,1.3242,1.3865,1.3783,1.3311,1.4438,1.4224,1.3279,1.389,1.3722,1.3217,1.321,1.321,1.321,1.3198,1.321,1.3314,1.3788,1.4195,1.4617,1.4996,1.5887,1.6887,1.7698,1.8395,1.9087,1.9822,2.0619,2.1212,2.1221,2.1777,2.2388,2.2634,2.2695,2.2822,2.3141,2.3221,2.327,2.346,2.3325,2.327,2.346,2.2867,2.2126,2.139,2.083,2.0108,1.9099,1.9906,2.0391,2.0108,2.0871,2.107,2.0446,2.1733,2.2159,2.144,2.2104,2.2268,2.1795,2.0941,2.0106,1.9305,1.9305,1.9404,1.9596,1.9747,2.0715,2.2277,2.2309,2.3252,2.4799,2.4937,2.5001,2.5022,2.5224,2.5293,2.5293,2.5293,2.5173,2.5001,1.3452,1.3759,1.3992,1.3827,1.3965,1.4131,1.4217,1.4463,1.4931,1.5634,1.5415,1.5627,1.6724,1.6532,1.6219,1.5983,1.6274,1.6493,1.6617,1.6528,1.6501,1.6617,1.6632,1.6507,1.6265,1.6375,1.6391,1.6391,1.6856,1.6996,1.681,1.6179,1.5415,1.4575,1.4217,1.3712,1.321,1.3414,1.3396,1.3229,1.3615,1.3511,1.3217,1.3427,1.3354,1.3198,1.3198,1.3198,1.3198,1.3198,1.3425,1.3742,1.4181,1.4406,1.4627,1.5359,1.5976,1.6627,1.7629,1.7868,1.816,1.9631,2.0187,2.0534,2.1059,2.1769,2.2388,2.2626,2.2695,2.2797,2.3141,2.3012,2.288,2.2935,2.2738,2.2427,2.1977,2.1424,2.0758,2.0021,1.9498,1.9012,1.8506,1.9412,2.0029,2.0038,2.1378,2.1851,2.1061,2.1267,2.1542,2.1866,2.122,2.1058,2.147,2.0281,1.9546,1.9305,1.9305,1.9335,1.9422,2.0011,2.0883,2.1992,2.2541,2.3546,2.4795,2.4842,2.5003,2.5214,2.5283,2.5214,2.5099,2.5099,2.4993,2.4846,1.3198,1.3509,1.3777,1.3777,1.3946,1.4118,1.4136,1.4406,1.478,1.5345,1.5098,1.517,1.5907,1.5759,1.566,1.5791,1.5983,1.6171,1.6293,1.6163,1.6163,1.6293,1.6163,1.6004,1.5799,1.5639,1.5544,1.5544,1.5857,1.5825,1.5454,1.5204,1.4726,1.4079,1.3865,1.3552,1.3198,1.3198,1.3198,1.3198,1.3198,1.3198,1.3198,1.3198,1.3198,1.3198,1.3198,1.3198,1.3198,1.3198,1.352,1.396,1.4374,1.4596,1.4883,1.558,1.6039,1.646,1.7282,1.7384,1.7607,1.8848,1.9376,1.9875,2.094,2.1769,2.2349,2.2527,2.2563,2.2608,2.2815,2.2686,2.2563,2.2563,2.2242,2.182,2.1271,2.0497,1.9817,1.9355,1.8813,1.843,1.8351,1.886,1.9237,1.9321,2.0232,2.0566,2.0019,2.1112,2.1556,2.111,2.0521,2.0428,2.0868,1.9762,1.923,1.9305,1.9305,1.9305,1.9341,2.0134,2.0987,2.1849,2.2657,2.3608,2.4584,2.4664,2.4814,2.5012,2.5082,2.5037,2.492,2.492,2.4823,2.467,1.3198,1.3198,1.3198,1.3198,1.3653,1.3858,1.3279,1.4501,1.5138,1.4066,1.4755,1.5143,1.458,1.449,1.4783,1.5639,1.5733,1.5898,1.6246,1.5983,1.5934,1.6246,1.5962,1.577,1.5741,1.5322,1.5066,1.5006,1.4769,1.4433,1.4028,1.4028,1.4028,1.4003,1.3458,1.3198,1.3198,1.3198,1.3198,1.3198,1.3198,1.3198,1.3198,1.3198,1.3198,1.3198,1.3198,1.3198,1.3198,1.3198,1.352,1.4026,1.4374,1.4783,1.5195,1.5675,1.606,1.6402,1.672,1.7052,1.7424,1.7726,1.8395,1.9342,2.0806,2.1727,2.2302,2.2243,2.2268,2.231,2.231,2.231,2.231,2.231,2.1858,2.1412,2.118,2.0099,1.9299,1.9225,1.8611,1.829,1.8528,1.831,1.8213,1.8286,1.8048,1.7927,1.7977,2.1231,2.1928,1.943,2.0047,2.0328,2.0137,1.938,1.9093,1.9305,1.9305,1.9305,1.9341,2.0134,2.0987,2.1849,2.2657,2.3456,2.4247,2.4418,2.4512,2.4536,2.4731,2.479,2.4775,2.4775,2.4654,2.4478,1.3198,1.3198,1.3198,1.3198,1.3311,1.3342,1.3217,1.355,1.3836,1.4037,1.3864,1.3994,1.4591,1.4293,1.4246,1.4752,1.5104,1.5448,1.5877,1.5848,1.5827,1.5898,1.5848,1.5639,1.5262,1.5165,1.4783,1.4181,1.4133,1.3849,1.3427,1.3427,1.3427,1.3427,1.3254,1.3198,1.3198,1.3198,1.3198,1.3198,1.3198,1.3198,1.3198,1.3198,1.3198,1.3198,1.3198,1.3198,1.3198,1.3198,1.3709,1.4374,1.447,1.4783,1.5195,1.5675,1.6219,1.6686,1.6789,1.724,1.7704,1.7789,1.8768,1.9833,2.0213,2.1338,2.215,2.1574,2.1913,2.231,2.231,2.231,2.231,2.231,2.1858,2.1298,2.0673,2.0013,1.9321,1.8558,1.83,1.8146,1.8005,1.7927,1.8223,1.9057,1.9057,1.9273,1.9837,2.1201,2.1066,1.9077,1.9917,2.0119,1.9519,1.9173,1.9093,1.9305,1.9305,1.9305,1.9341,2.0134,2.0987,2.1849,2.2657,2.3547,2.4436,2.4478,2.4601,2.4731,2.479,2.47,2.4568,2.4568,2.4444,2.4275,1.3198,1.3198,1.3198,1.3198,1.3198,1.3198,1.3198,1.3198,1.3311,1.364,1.3414,1.3408,1.3938,1.3762,1.3742,1.4181,1.4596,1.4944,1.5195,1.5389,1.5389,1.5195,1.5389,1.5262,1.4845,1.4658,1.4214,1.3581,1.3581,1.3452,1.3198,1.3198,1.3198,1.3198,1.3198,1.3198,1.3198,1.3198,1.3198,1.3198,1.3198,1.3198,1.3198,1.3198,1.3198,1.3198,1.3198,1.3198,1.3198,1.3198,1.3642,1.4214,1.4214,1.4501,1.4883,1.5134,1.5823,1.6567,1.6755,1.7288,1.7811,1.7811,1.8665,1.9579,1.9917,2.094,2.1777,2.1718,2.2023,2.231,2.231,2.231,2.22,2.1845,2.1345,2.0696,1.9838,1.9421,1.8906,1.8121,1.8133,1.8082,1.7833,1.7811,1.8031,1.8615,1.8671,1.9064,1.9951,2.0549,2.0422,1.9435,2.0287,2.0288,1.9312,1.9098,1.9043,1.9166,1.9252,1.9482,1.9877,2.0712,2.1547,2.2391,2.3199,2.3861,2.4357,2.4357,2.4436,2.4528,2.4528,2.447,2.4357,2.4357,2.4284,2.4199,1.3094,1.3157,1.3198,1.3198,1.3198,1.3198,1.3198,1.3198,1.3198,1.3198,1.3198,1.3198,1.3198,1.3198,1.3357,1.3775,1.4123,1.4374,1.4501,1.4814,1.4845,1.4501,1.4814,1.4814,1.4406,1.4026,1.3615,1.3198,1.3198,1.3198,1.3198,1.3198,1.3198,1.3198,1.3198,1.3163,1.3088,1.3163,1.3163,1.3088,1.3088,1.3129,1.3198,1.3129,1.3123,1.3198,1.3198,1.3198,1.3198,1.3198,1.352,1.3901,1.3901,1.4123,1.4406,1.447,1.5168,1.6033,1.6567,1.7248,1.7811,1.7811,1.8352,1.9029,1.9545,2.0374,2.1152,2.1684,2.198,2.2133,2.2133,2.2226,2.2127,2.1511,2.0856,2.0127,1.932,1.885,1.841,1.7927,1.807,1.8082,1.7833,1.7811,1.7811,1.7811,1.7811,1.8324,1.9491,1.985,2.0128,2.0416,2.0806,2.0406,1.9148,1.9132,1.9146,1.919,1.9525,2.0033,2.0714,2.1455,2.2235,2.3052,2.3722,2.4089,2.4199,2.4199,2.4199,2.4199,2.4199,2.4199,2.4199,2.4199,2.4199,2.4199,1.2691,1.2943,1.3198,1.3198,1.3198,1.3198,1.3198,1.3198,1.3198,1.3198,1.3198,1.3198,1.3198,1.3198,1.3232,1.3295,1.3357,1.3709,1.4438,1.4564,1.4564,1.4501,1.4564,1.4406,1.3993,1.3547,1.326,1.3198,1.3198,1.3198,1.3198,1.3198,1.3198,1.3198,1.3198,1.2984,1.2644,1.3019,1.2978,1.2615,1.2615,1.2832,1.3163,1.2756,1.2832,1.3198,1.3198,1.3198,1.3198,1.3198,1.352,1.3901,1.3901,1.3927,1.4058,1.4406,1.4578,1.4907,1.6005,1.7028,1.7811,1.7811,1.8352,1.8767,1.8268,1.9191,2.0027,1.9528,2.0458,2.1355,2.1355,2.1879,2.2354,2.2444,2.1296,2.044,2.0569,1.9429,1.8498,1.8166,1.8166,1.8082,1.7833,1.7811,1.7811,1.7811,1.7811,1.8532,2.024,2.0116,2.0696,2.2237,2.0918,1.9599,1.8378,1.9244,1.9781,2.0029,2.0966,2.149,2.1593,2.1748,2.2235,2.3015,2.3134,2.3575,2.4199,2.4199,2.4199,2.4199,2.4199,2.4199,2.4199,2.4199,2.4199,2.4199,1.218,1.2282,1.2437,1.2437,1.2437,1.2437,1.2437,1.2437,1.2437,1.2437,1.2437,1.2538,1.2797,1.2832,1.2908,1.317,1.3198,1.3357,1.3769,1.4026,1.4058,1.3802,1.4026,1.396,1.352,1.3295,1.3198,1.3198,1.3198,1.3088,1.2838,1.3088,1.306,1.2832,1.2832,1.2691,1.2502,1.2467,1.2324,1.2102,1.2102,1.2252,1.2431,1.2216,1.2395,1.2832,1.2832,1.2978,1.3198,1.3198,1.3329,1.352,1.352,1.352,1.3547,1.3742,1.4376,1.5213,1.5978,1.6725,1.7313,1.7479,1.7799,1.8114,1.8331,1.8919,1.9426,1.9494,2.0399,2.1085,2.0636,2.1185,2.1476,2.0772,2.0062,1.9518,1.9269,1.8746,1.8299,1.8014,1.8112,1.8082,1.7833,1.7811,1.7811,1.7811,1.7927,1.8629,2.0056,2.034,2.1048,2.2275,2.1216,2.0391,1.9807,2.0029,2.029,2.0577,2.1232,2.1853,2.2446,2.2446,2.2887,2.3648,2.3648,2.3859,2.4199,2.4199,2.4199,2.4199,2.4199,2.4199,2.4199,2.4199,2.4199,2.417,1.1621,1.1695,1.1811,1.1811,1.1811,1.1811,1.1811,1.1811,1.1811,1.1811,1.1811,1.1993,1.2437,1.2502,1.2691,1.3163,1.3198,1.3198,1.3198,1.3547,1.3581,1.3232,1.3547,1.3581,1.3198,1.3198,1.3163,1.3053,1.3053,1.2797,1.236,1.272,1.2685,1.2324,1.2324,1.2282,1.2132,1.1915,1.1737,1.1621,1.1621,1.17,1.178,1.1664,1.192,1.236,1.2467,1.272,1.3047,1.3163,1.3198,1.3198,1.3198,1.3198,1.3198,1.3198,1.4097,1.5247,1.5884,1.6412,1.6884,1.7224,1.7288,1.7541,1.8434,1.864,1.88,1.936,2.012,2.0467,1.9866,2.039,2.0552,1.9454,1.9051,1.8723,1.8237,1.8138,1.8027,1.7825,1.7992,1.8035,1.7833,1.7811,1.7811,1.7811,1.7992,1.8657,1.9906,2.0506,2.1211,2.2125,2.1533,2.1101,2.0915,2.076,2.0813,2.1066,2.161,2.2321,2.3169,2.3235,2.3621,2.4199,2.4199,2.4199,2.4199,2.4199,2.4199,2.4199,2.4199,2.4199,2.4181,2.3988,2.3876,2.3763,1.1169,1.1468,1.1811,1.1811,1.1811,1.1811,1.1811,1.1811,1.1811,1.1811,1.1811,1.1993,1.2437,1.2502,1.2691,1.3163,1.3198,1.3198,1.3198,1.3232,1.3232,1.3198,1.3232,1.3232,1.3198,1.3198,1.2978,1.2538,1.2538,1.2318,1.1847,1.1889,1.1884,1.1847,1.1847,1.1584,1.1126,1.1584,1.151,1.1051,1.1051,1.1362,1.1737,1.1239,1.1399,1.192,1.2354,1.2502,1.2615,1.3047,1.3198,1.3198,1.3198,1.3198,1.3198,1.3198,1.3421,1.3941,1.5277,1.6208,1.6884,1.7224,1.7288,1.74,1.7794,1.7887,1.7904,1.7941,1.8555,1.9046,1.8987,1.9595,2.0161,2.0362,1.9549,1.8986,1.9247,1.8433,1.7833,1.7811,1.7811,1.7833,1.7811,1.7811,1.7811,1.7811,1.7833,1.8603,2.035,2.0503,2.1175,2.2616,2.1703,2.0839,2.0094,2.1017,2.1515,2.1548,2.2883,2.3578,2.3663,2.3963,2.4135,2.4199,2.4199,2.4199,2.4199,2.4199,2.4199,2.4199,2.4199,2.4199,2.4107,2.3364,2.293,2.2609,1.0621,1.0731,1.0883,1.0883,1.0883,1.0883,1.0883,1.0883,1.0883,1.0883,1.0883,1.118,1.1993,1.1768,1.1903,1.2691,1.2502,1.2324,1.2324,1.2324,1.2467,1.2762,1.2508,1.2324,1.2324,1.2324,1.2246,1.2071,1.2071,1.1805,1.1319,1.1621,1.1621,1.1319,1.1319,1.1201,1.0981,1.0916,1.0764,1.0577,1.0577,1.0692,1.084,1.0649,1.0873,1.1319,1.1505,1.1763,1.2102,1.2282,1.2544,1.2762,1.2762,1.2984,1.3198,1.3198,1.3651,1.4152,1.4272,1.4611,1.5113,1.5866,1.6052,1.6263,1.7012,1.7328,1.7494,1.7494,1.8252,1.8758,1.8302,1.8826,1.9221,1.887,1.8487,1.8263,1.8381,1.807,1.7811,1.7811,1.7811,1.7811,1.7811,1.8217,1.8293,1.7845,1.881,1.9505,1.975,2.0812,2.2009,2.3287,2.2757,2.2174,2.1687,2.2081,2.2485,2.291,2.3444,2.3816,2.4016,2.4142,2.4199,2.4199,2.4199,2.4199,2.4162,2.3667,2.3749,2.4098,2.3098,2.2914,2.3118,2.2484,2.197,2.1565,0.9799,0.9799,0.9799,0.9799,0.9922,1.0044,1.0044,1.0201,1.0283,1.0283,1.0283,1.0616,1.1473,1.1201,1.1351,1.2216,1.1999,1.1811,1.1811,1.1621,1.1768,1.2246,1.1957,1.1811,1.1811,1.1811,1.1737,1.1547,1.1547,1.1287,1.0797,1.1175,1.1137,1.0759,1.0596,1.0514,1.0519,0.9991,0.9878,1.0044,1.0044,1.0162,1.0283,1.0283,1.0505,1.0797,1.0943,1.1244,1.1584,1.1915,1.2246,1.2544,1.2685,1.2943,1.3198,1.3198,1.3677,1.4056,1.3384,1.334,1.3737,1.4725,1.5141,1.5505,1.6292,1.6815,1.7142,1.7142,1.7813,1.8237,1.775,1.8131,1.8395,1.7887,1.7811,1.7811,1.7811,1.8006,1.8065,1.7845,1.8006,1.8056,1.7828,1.8259,1.8344,1.7845,1.8896,1.9605,1.9658,2.1298,2.2579,2.3351,2.3165,2.2988,2.2864,2.2738,2.2881,2.3257,2.3191,2.328,2.3524,2.3728,2.3823,2.3823,2.3823,2.3823,2.3758,2.2951,2.2951,2.3336,2.2234,2.2008,2.2262,2.1561,2.1014,2.0581,0.872,0.872,0.872,0.872,0.9159,0.9478,0.9478,0.9961,1.0283,1.0283,1.0283,1.0467,1.0938,1.0976,1.1207,1.1737,1.1774,1.1774,1.1774,1.1282,1.1201,1.1737,1.1774,1.178,1.1774,1.1774,1.1505,1.0981,1.0976,1.0759,1.0283,1.0283,1.0283,1.0244,0.9721,0.9478,0.9439,0.8918,0.8999,0.9478,0.9478,0.9799,1.0278,1.0278,1.0283,1.0356,1.0829,1.0976,1.1164,1.2168,1.2508,1.2579,1.3053,1.3198,1.3198,1.3198,1.3343,1.3347,1.2689,1.2642,1.3052,1.4046,1.4793,1.539,1.5727,1.632,1.6797,1.6797,1.7052,1.7288,1.7288,1.7572,1.7811,1.7811,1.7811,1.7811,1.7811,1.8437,1.8631,1.7896,1.8454,1.8606,1.7879,1.7819,1.7819,1.7811,1.7797,1.8592,2.0423,2.1906,2.2695,2.2721,2.2721,2.2864,2.3189,2.2864,2.2555,2.2302,2.2099,2.2002,2.2033,2.2696,2.2997,2.2997,2.2997,2.2997,2.2942,2.2116,2.1793,2.1803,2.1793,2.1784,2.1649,2.0581,2.0017,1.9631,0.863,0.872,0.872,0.872,0.8837,0.8958,0.8958,0.9079,0.9159,0.9159,0.9159,0.9341,0.9822,0.96,0.9565,1.0084,0.9831,0.9609,0.9609,0.9456,0.946,0.9609,1.037,1.0567,1.0205,1.0205,1.0094,0.9942,0.9579,0.9306,0.9159,0.9159,0.9159,0.9159,0.8999,0.8958,0.8922,0.876,0.8797,0.8958,0.8958,0.9279,0.9721,0.9721,0.9961,1.0322,1.0467,1.0505,1.0611,1.1244,1.1695,1.2138,1.2943,1.3198,1.3198,1.3198,1.3684,1.407,1.3391,1.3354,1.3453,1.3303,1.375,1.4387,1.4964,1.5805,1.6455,1.6455,1.6893,1.7288,1.7288,1.7572,1.7811,1.7811,1.7811,1.7811,1.7811,1.8437,1.8631,1.7896,1.8454,1.8606,1.7879,1.8276,1.8361,1.7845,1.8751,1.9912,2.1196,2.2167,2.2923,2.3392,2.3392,2.3446,2.3544,2.2996,2.2906,2.3271,2.2655,2.2344,2.2348,2.2227,2.2152,2.2152,2.2152,2.2152,2.2088,2.1244,2.1244,2.1683,2.0517,2.0196,2.0315,1.9615,1.8949,1.8392,0.728,0.7543,0.7724,0.7724,0.8099,0.8398,0.8398,0.8557,0.872,0.872,0.872,0.8788,0.9084,0.8865,0.8829,0.9089,0.8865,0.872,0.872,0.872,0.8598,0.8398,0.9199,0.9518,0.9199,0.9199,0.9199,0.9199,0.8878,0.872,0.872,0.872,0.872,0.8675,0.8476,0.8398,0.8353,0.814,0.8185,0.8398,0.8398,0.872,0.9199,0.9199,0.9518,1.0,1.0,1.0123,1.0395,1.1099,1.1763,1.2467,1.3019,1.3198,1.3198,1.3198,1.3709,1.4063,1.3162,1.3227,1.3337,1.2419,1.2802,1.3578,1.4251,1.4879,1.5465,1.6001,1.6326,1.6588,1.687,1.7183,1.7464,1.7581,1.7604,1.7658,1.7789,1.8437,1.8631,1.7896,1.8454,1.8606,1.7879,1.8208,1.8285,1.7845,1.8887,1.9991,2.0923,2.1805,2.2583,2.3282,2.3437,2.3422,2.3241,2.2691,2.262,2.3025,2.2024,2.1551,2.1533,2.137,2.129,2.129,2.129,2.129,2.1216,2.0372,2.0335,2.0719,1.9709,1.9373,1.9423,1.9004,1.8469,1.7971,0.5322,0.5791,0.6128,0.6128,0.7002,0.7659,0.7659,0.8144,0.8472,0.8472,0.8508,0.8553,0.8553,0.8553,0.8553,0.8553,0.8553,0.8553,0.8553,0.8553,0.8312,0.7833,0.8271,0.8553,0.8553,0.8594,0.8639,0.8639,0.8594,0.8553,0.8553,0.8553,0.8553,0.8513,0.8032,0.7833,0.7787,0.7234,0.7318,0.7833,0.7833,0.8156,0.8639,0.8639,0.8999,0.9518,0.9518,0.9843,1.0433,1.1404,1.236,1.3123,1.3123,1.3163,1.3198,1.3198,1.352,1.3656,1.243,1.2601,1.2882,1.1651,1.2025,1.2844,1.3563,1.381,1.4221,1.5394,1.5396,1.5428,1.6084,1.6486,1.6837,1.7207,1.7288,1.7424,1.7704,1.8414,1.8631,1.7896,1.8454,1.8606,1.7879,1.7811,1.7836,1.7896,1.8581,1.9325,2.0061,2.1104,2.1977,2.2669,2.3021,2.2972,2.2488,2.2157,2.1981,2.1932,2.0695,2.011,2.011,2.0294,2.0383,2.0383,2.0383,2.0383,2.0328,1.9601,1.9289,1.9274,1.9274,1.9124,1.8896,1.8651,1.8391,1.8133,0.5586,0.5687,0.5661,0.5661,0.5774,0.5862,0.5862,0.6377,0.6722,0.6722,0.7101,0.7353,0.7353,0.7353,0.7353,0.7353,0.7353,0.7353,0.7353,0.7353,0.7311,0.7192,0.7314,0.7353,0.7353,0.7818,0.8073,0.8073,0.7607,0.7353,0.7353,0.7353,0.7353,0.7353,0.7231,0.7189,0.7192,0.7063,0.7063,0.7189,0.7189,0.753,0.8073,0.8073,0.8679,0.9518,0.9518,0.9843,1.0395,1.0986,1.1836,1.265,1.265,1.2902,1.3198,1.3198,1.352,1.3742,1.3002,1.2808,1.2628,1.1927,1.1689,1.187,1.2798,1.3825,1.4513,1.4281,1.4383,1.4715,1.5389,1.5777,1.6217,1.6821,1.7126,1.7344,1.7392,1.8271,1.8631,1.7896,1.8454,1.8606,1.7879,1.7811,1.8048,1.8623,1.935,2.012,2.0889,2.1715,2.2319,2.2695,2.3021,2.2972,2.2488,2.2069,2.1705,2.1444,2.0541,2.011,2.0083,1.9736,1.9555,1.9555,1.9555,1.9555,1.9546,1.9363,1.9214,1.9069,1.9069,1.8771,1.8371,1.831,1.8112,1.7892,0.4898,0.5064,0.5205,0.5109,0.5274,0.5385,0.532,0.583,0.6181,0.6181,0.6686,0.6979,0.6979,0.6979,0.6979,0.6979,0.6979,0.6979,0.6979,0.6979,0.6979,0.6979,0.6979,0.6894,0.6644,0.6943,0.707,0.707,0.6771,0.6471,0.6207,0.6468,0.6601,0.6601,0.6601,0.6771,0.6979,0.6979,0.6979,0.6979,0.6979,0.7192,0.7489,0.7489,0.7979,0.8756,0.9039,0.9785,1.0725,1.1207,1.1872,1.2538,1.2756,1.2839,1.286,1.3123,1.3009,1.2735,1.2424,1.2153,1.1865,1.1327,1.1399,1.176,1.2421,1.298,1.3419,1.3528,1.3569,1.3784,1.4428,1.4981,1.5516,1.6134,1.669,1.7126,1.7272,1.7922,1.8234,1.7862,1.8149,1.8225,1.7845,1.7811,1.8115,1.8834,1.9266,1.9985,2.1153,2.1558,2.2051,2.2686,2.2864,2.2803,2.2488,2.1878,2.1361,2.0907,2.0108,1.9726,1.9708,1.9435,1.9305,1.9305,1.9305,1.9305,1.9289,1.9198,1.9093,1.8993,1.8852,1.8556,1.8187,1.8187,1.8027,1.7811,0.4095,0.4453,0.4712,0.4607,0.4901,0.5119,0.5033,0.5526,0.5919,0.605,0.6517,0.6898,0.6979,0.6979,0.6979,0.6979,0.6979,0.6979,0.6979,0.6979,0.694,0.6855,0.6852,0.6644,0.6224,0.6004,0.5962,0.6047,0.6047,0.5787,0.5305,0.583,0.6047,0.6047,0.6047,0.6301,0.6719,0.681,0.6852,0.6855,0.6979,0.6979,0.6979,0.6979,0.7363,0.7953,0.8521,0.9658,1.0943,1.1399,1.1847,1.2318,1.2797,1.271,1.2519,1.2954,1.2441,1.1682,1.1494,1.1273,1.0998,1.0448,1.0976,1.1704,1.1925,1.188,1.2057,1.294,1.2763,1.2724,1.3529,1.4161,1.4745,1.5307,1.6134,1.6807,1.7069,1.7471,1.7735,1.7789,1.7811,1.7811,1.7811,1.7811,1.8166,1.902,1.9088,1.9756,2.1322,2.138,2.1778,2.26,2.2686,2.2612,2.2425,2.1752,2.1115,2.0484,1.9774,1.9396,1.9305,1.9305,1.9305,1.9305,1.9305,1.9305,1.9299,1.9126,1.9001,1.8914,1.8697,1.841,1.8125,1.8125,1.7992,1.7811,0.4457,0.4247,0.4111,0.4091,0.3963,0.3867,0.3843,0.4312,0.4824,0.5348,0.5959,0.6474,0.6937,0.6979,0.6979,0.6979,0.6979,0.6979,0.6979,0.6979,0.6813,0.6307,0.631,0.6264,0.6181,0.5176,0.4913,0.5435,0.5435,0.5392,0.5305,0.5392,0.5435,0.5435,0.5435,0.5478,0.5561,0.609,0.631,0.6349,0.6813,0.6979,0.6979,0.6979,0.7363,0.7953,0.8521,0.9439,1.0395,1.0472,1.0797,1.1276,1.1805,1.2235,1.2504,1.2498,1.2423,1.2084,1.1075,1.0812,1.0638,1.0109,1.0294,1.0614,1.0639,1.1282,1.1971,1.2267,1.1706,1.1646,1.3221,1.3522,1.3751,1.4511,1.563,1.6351,1.6362,1.6928,1.7471,1.7766,1.7811,1.7811,1.7811,1.7811,1.8363,1.974,1.9849,2.0517,2.2082,2.2158,2.222,2.2341,2.2651,2.2558,2.2065,2.195,2.1442,2.0494,2.0154,1.9754,1.9305,1.9305,1.9305,1.9305,1.9305,1.9305,1.9299,1.9268,1.9024,1.8651,1.8604,1.829,1.7847,1.7847,1.7825,1.7811,0.4517,0.4292,0.4068,0.4034,0.3843,0.3671,0.3592,0.4051,0.4476,0.4781,0.5305,0.5784,0.6036,0.6036,0.6036,0.6036,0.6036,0.6036,0.6036,0.6383,0.6301,0.5741,0.6004,0.5873,0.5216,0.4694,0.4395,0.436,0.4657,0.4655,0.436,0.4655,0.4781,0.4781,0.4781,0.5,0.5305,0.5569,0.5876,0.6224,0.6474,0.6729,0.6979,0.6979,0.7147,0.753,0.839,0.9403,1.0356,1.0611,1.0829,1.1126,1.1951,1.2124,1.2095,1.2349,1.1964,1.1326,1.0831,1.0474,1.0207,0.9962,1.0021,1.0244,1.0736,1.1044,1.1316,1.1592,1.1261,1.1374,1.2923,1.3079,1.3305,1.4332,1.5279,1.5897,1.5874,1.6536,1.7159,1.7471,1.7526,1.7595,1.7789,1.8175,1.8868,1.9917,2.0433,2.1152,2.2251,2.1913,2.1684,2.1684,2.1386,2.1195,2.1173,2.0722,2.0368,2.011,1.9532,1.9281,1.9305,1.9305,1.9305,1.9305,1.9305,1.9305,1.9274,1.9024,1.878,1.8575,1.827,1.8014,1.7811,1.7811,1.7811,1.7763]},{"header":{"parameterUnit":"m.s-1","parameterCategory":1,"la1":30.6,"la2":28.766,"lo1":-90.7593,"lo2":-88.6598,"dy":0.0162,"dx":0.0183,"nx":116,"ny":114,"refTime":"2023-09-09T12:00:00:Z","depth":0,"parameterNumber":3,"parameterNumberName":"V-component_of_WINDS"},"data":[0.0,0.0,0.0,0.0,0.0,0.0,0.0,0.0,0.0,0.0,0.0,0.0,0.0,0.0,0.0,0.0,0.0,0.0,0.0,0.0,0.0,0.0,0.0,0.0,0.0,0.0,0.0,0.0,0.0,0.0,0.0,0.0,0.0,0.0,0.0,0.0,0.0,0.0,0.0,0.0,0.0,0.0,0.0,0.0,0.0,0.0,0.0,0.0,0.0,0.0,0.0,0.0,0.0,0.0,0.0,0.0,0.0,0.0,0.0,0.0,0.0,0.0,0.0,0.0,0.0,0.0,0.0,0.0,0.0,0.0,0.0,0.0,0.0,0.0,0.0,0.0,0.0,0.0,0.0,0.0,0.0,0.0,0.0,0.0,0.0,0.0,0.0,0.0,0.0,0.0,0.0,0.0,0.0,0.0,0.0,0.0,0.0,0.0,0.0,0.0,0.0,0.0,0.0,0.0,0.0,0.0,0.0,0.0,0.0,0.0,0.0,0.0,0.0,0.0,0.0,0.0,0.0,0.0,0.0,0.0,0.0,0.0,0.0,0.0,0.0,0.0,0.0,0.0,0.0,0.0,0.0,0.0,0.0,0.0,0.0,0.0,0.0,0.0,0.0,0.0,0.0,0.0,0.0,0.0,0.0,0.0,0.0,0.0,0.0,0.0,0.0,0.0,0.0,0.0,0.0,0.0,0.0,0.0,0.0,0.0,0.0,0.0,0.0,0.0,0.0,0.0,0.0,0.0,0.0,0.0,0.0,0.0,0.0,0.0,0.0,0.0,0.0,0.0,0.0,0.0,0.0,0.0,0.0,0.0,0.0,0.0,0.0,0.0,0.0,0.0,0.0,0.0,0.0,0.0,0.0,0.0,0.0,0.0,0.0,0.0,0.0,0.0,0.0,0.0,0.0,0.0,0.0,0.0,0.0,0.0,0.0,0.0,0.0,0.0,0.0,0.0,0.0,0.0,0.0,0.0,0.0,0.0,0.0,0.0,0.0,0.0,0.0,0.0,0.0,0.0,0.0,0.0,0.0,0.0,0.0,0.0,0.0,0.0,0.0,0.0,0.0,0.0,0.0,0.0,0.0,0.0,0.0,0.0,0.0,0.0,0.0,0.0,0.0,0.0,0.0,0.0,0.0,0.0,0.0,0.0,0.0,0.0,0.0,0.0,0.0,0.0,0.0,0.0,0.0,0.0,0.0,0.0,0.0,0.0,0.0,0.0,0.0,0.0,0.0,0.0,0.0,0.0,0.0,0.0,0.0,0.0,0.0,0.0,0.0,0.0,0.0,0.0,0.0,0.0,0.0,0.0,0.0,0.0,0.0,0.0,0.0,0.0,0.0,0.0,0.0,0.0,0.0,0.0,0.0,0.0,0.0,0.0,0.0,0.0,0.0,0.0,0.0,0.0,0.0,0.0,0.0,0.0,0.0,0.0,0.0,0.0,0.0,0.0,0.0,0.0,0.0,0.0,0.0,0.0,0.0,0.0,0.0,0.0,0.0,0.0,0.0,0.0,0.0,0.0,0.0,0.0,0.0,0.0,0.0,0.0,0.0,0.0,0.0,0.0,0.0,0.0,0.0,0.0,0.0,0.0,0.0,0.0,0.0,0.0,0.0,0.0,0.0,0.0,0.0,0.0,0.0,0.0,0.0,0.0,0.0,0.0,0.0,0.0,0.0,0.0,0.0,0.0,0.0,0.0,0.0,0.0,0.0,0.0,0.0,0.0,0.0,0.0,0.0,0.0,0.0,0.0,0.0,0.0,0.0,0.0,0.0,0.0,0.0,0.0,0.0,0.0,0.0,0.0,0.0,0.0,0.0,0.0,0.0,0.0,0.0,0.0,0.0,0.0,0.0,0.0,0.0,0.0,0.0,0.0,0.0,0.0,0.0,0.0,0.0,0.0,0.0,0.0,0.0,0.0,0.0,0.0,0.0,0.0,0.0,0.0,0.0,0.0,0.0,0.0,0.0,0.0,0.0,0.0,0.0,0.0,0.0,0.0,0.0,0.0,0.0,0.0,0.0,0.0,0.0,0.0,0.0,0.0,0.0,0.0,0.0,0.0,0.0,0.0,0.0,0.0,0.0,0.0,0.0,0.0,0.0,0.0,0.0,0.0,0.0,0.0,0.0,0.0,0.0,0.0,0.0,0.0,0.0,0.0,0.0,0.0,0.0,0.0,0.0,0.0,0.0,0.0,0.0,0.0,0.0,0.0,0.0,0.0,0.0,0.0,0.0,0.0,0.0,0.0,0.0,0.0,0.0,0.0,0.0,0.0,0.0,0.0,0.0,0.0,0.0,0.0,0.0,0.0,0.0,0.0,0.0,0.0,0.0,0.0,0.0,0.0,0.0,0.0,0.0,0.0,0.0,0.0,0.0,0.0,0.0,0.0,0.0,0.0,0.0,0.0,0.0,0.0,0.0,0.0,0.0,0.0,0.0,0.0,0.0,0.0,0.0,0.0,0.0,0.0,0.0,0.0,0.0,0.0,0.0,0.0,0.0,0.0,0.0,0.0,0.0,0.0,0.0,0.0,0.0,0.0,0.0,0.0,0.0,0.0,0.0,0.0,0.0,0.0,0.0,0.0,0.0,0.0,0.0,0.0,0.0,0.0,0.0,0.0,0.0,0.0,0.0,0.0,0.0,0.0,0.0,0.0,0.0,0.0,0.0,0.0,0.0,0.0,0.0,0.0,0.0,0.0,0.0,0.0,0.0,0.0,0.0,0.0,0.0,0.0,0.0,0.0,0.0,0.0,0.0,0.0,0.0,0.0,0.0,0.0,0.0,0.0,0.0,0.0,0.0,0.0,0.0,0.0,0.0,0.0,0.0,0.0,0.0,0.0,0.0,0.0,0.0,0.0,0.0,0.0,0.0,0.0,0.0,0.0,0.0,0.0,0.0,0.0,0.0,0.0,0.0,0.0,0.0,0.0,0.0,0.0,0.0,0.0,0.0,0.0,0.0,0.0,0.0,0.0,0.0,0.0,0.0,0.0,0.0,0.0,0.0,0.0,0.0,0.0,0.0,0.0,0.0,0.0,0.0,0.0,0.0,0.0,0.0,0.0,0.0,0.0,0.0,0.0,0.0,0.0,0.0,0.0,0.0,0.0,0.0,0.0,0.0,0.0,0.0,0.0,0.0,0.0,0.0,0.0,0.0,0.0,0.0,0.0,0.0,0.0,0.0,0.0,0.0,0.0,0.0,0.0,0.0,0.0,0.0,0.0,0.0,0.0,0.0,0.0,0.0,0.0,0.0,0.0,0.0,0.0,0.0,0.0,0.0,0.0,0.0,0.0,0.0,0.0,0.0,0.0,0.0,0.0,0.0,0.0,0.0,0.0,0.0,0.0,0.0,0.0,0.0,0.0,0.0,0.0,0.0,0.0,0.0,0.0,0.0,0.0,0.0,0.0,0.0,0.0,0.0,0.0,0.0,0.0,0.0,0.0,0.0,0.0,0.0,0.0,0.0,0.0,0.0,0.0,0.0,0.0,0.0,0.0,0.0,0.0,0.0,0.0,0.0,0.0,0.0,0.0,0.0,0.0,0.0,0.0,0.0,0.0,0.0,0.0,0.0,0.0,0.0,0.0,0.0,0.0,0.0,0.0,0.0,0.0,0.0,0.0,0.0,0.0,0.0,0.0,0.0,0.0,0.0,0.0,0.0,0.0,0.0,0.0,0.0,0.0,0.0,0.0,0.0,0.0,0.0,0.0,0.0,0.0,0.0,0.0,0.0,0.0,0.0,0.0,0.0,0.0,0.0,0.0,0.0,0.0,0.0,0.0,0.0,0.0,0.0,0.0,0.0,0.0,0.0,0.0,0.0,0.0,0.0,0.0,0.0,0.0,0.0,0.0,0.0,0.0,0.0,0.0,0.0,0.0,0.0,0.0,0.0,0.0,0.0,0.0,0.0,0.0,0.0,0.0,0.0,0.0,0.0,0.0,0.0,0.0,0.0,0.0,0.0,0.0,0.0,0.0,0.0,0.0,0.0,0.0,0.0,0.0,0.0,0.0,0.0,0.0,0.0,0.0,0.0,0.0,0.0,0.0,0.0,0.0,0.0,0.0,0.0,0.0,0.0,0.0,0.0,0.0,0.0,0.0,0.0,0.0,0.0,0.0,0.0,0.0,0.0,0.0,0.0,0.0,0.0,0.0,0.0,0.0,0.0,0.0,0.0,0.0,0.0,0.0,0.0,0.0,0.0,0.0,0.0,0.0,0.0,0.0,0.0,0.0,0.0,0.0,0.0,0.0,0.0,0.0,0.0,0.0,0.0,0.0,0.0,0.0,0.0,0.0,0.0,0.0,0.0,0.0,0.0,0.0,0.0,0.0,0.0,0.0,0.0,0.0,0.0,0.0,0.0,0.0,0.0,0.0,0.0,0.0,0.0,0.0,0.0,0.0,0.0,0.0,0.0,0.0,0.0,0.0,0.0,0.0,0.0,0.0,0.0,0.0,0.0,0.0,0.0,0.0,0.0,0.0,0.0,0.0,0.0,0.0,0.0,0.0,0.0,0.0,0.0,0.0,0.0,0.0,0.0,0.0,0.0,0.0,0.0,0.0,0.0,0.0,0.0,0.0,0.0,0.0,0.0,0.0,0.0,0.0,0.0,0.0,0.0,0.0,0.0,0.0,0.0,0.0,0.0,0.0,0.0,0.0,0.0,0.0,0.0,0.0,0.0,0.0,0.0,0.0,0.0,0.0,0.0,0.0,0.0,0.0,0.0,0.0,0.0,0.0,0.0,0.0,0.0,0.0,0.0,0.0,0.0,0.0,0.0,0.0,0.0,0.0,0.0,0.0,0.0,0.0,0.0,0.0,0.0,0.0,0.0,0.0,0.0,0.0,0.0,0.0,0.0,0.0,0.0,0.0,0.0,0.0,0.0,0.0,0.0,0.0,0.0,0.0,0.0,0.0,0.0,0.0,0.0,0.0,0.0,0.0,0.0,0.0,0.0,0.0,0.0,0.0,0.0,0.0,0.0,0.0,0.0,0.0,0.0,0.0,0.0,0.0,0.0,0.0,0.0,0.0,0.0,0.0,0.0,0.0,0.0,0.0,0.0,0.0,0.0,0.0,0.0,0.0,0.0,0.0,0.0,0.0,0.0,0.0,0.0,0.0,0.0,0.0,0.0,0.0,0.0,0.0,0.0,0.0,0.0,0.0,0.0,0.0,0.0,0.0,0.0,0.0,0.0,0.0,0.0,0.0,0.0,0.0,0.0,0.0,0.0,0.0,0.0,0.0,0.0,0.0,0.0,0.0,0.0,0.0,0.0,0.0,0.0,0.0,0.0,0.0,0.0,0.0,0.0,0.0,0.0,0.0,0.0,0.0,0.0,0.0,0.0,0.0,0.0,0.0,0.0,0.0,0.0,0.0,0.0,0.0,0.0,0.0,0.0,0.0,0.0,0.0,0.0,0.0,0.0,0.0,0.0,0.0,0.0,0.0,0.0,0.0,0.0,0.0,0.0,0.0,0.0,0.0,0.0,0.0,0.0,0.0,0.0,0.0,0.0,0.0,0.0,0.0,0.0,0.0,0.0,0.0,0.0,0.0,0.0,0.0,0.0,0.0,0.0,0.0,0.0,0.0,0.0,0.0,0.0,0.0,0.0,0.0,0.0,0.0,0.0,0.0,0.0,0.0,0.0,0.0,0.0,0.0,0.0,0.0,0.0,0.0,0.0,0.0,0.0,0.0,0.0,0.0,0.0,0.0,0.0,0.0,0.0,0.0,0.0,0.0,0.0,0.0,0.0,0.0,0.0,0.0,0.0,0.0,0.0,0.0,0.0,0.0,0.0,0.0,0.0,0.0,0.0,0.0,0.0,0.0,0.0,0.0,0.0,0.0,0.0,0.0,0.0,0.0,0.0,0.0,0.0,0.0,0.0,0.0,0.0,0.0,0.0,0.0,0.0,0.0,0.0,0.0,0.0,0.0,0.0,0.0,0.0,0.0,0.0,0.0,0.0,0.0,0.0,0.0,0.0,0.0,0.0,0.0,0.0,0.0,0.0,0.0,0.0,0.0,0.0,0.0,0.0,0.0,0.0,0.0,0.0,0.0,0.0,0.0,0.0,0.0,0.0,0.0,0.0,0.0,0.0,0.0,0.0,0.0,-1.6397,-1.6915,0.0,0.0,0.0,0.0,0.0,0.0,0.0,0.0,0.0,0.0,0.0,0.0,0.0,0.0,0.0,0.0,0.0,0.0,0.0,0.0,0.0,0.0,0.0,0.0,0.0,0.0,0.0,0.0,0.0,0.0,0.0,0.0,0.0,0.0,0.0,0.0,0.0,0.0,0.0,0.0,0.0,0.0,0.0,0.0,0.0,0.0,0.0,0.0,0.0,0.0,0.0,0.0,0.0,0.0,0.0,0.0,0.0,0.0,0.0,0.0,0.0,0.0,0.0,0.0,0.0,0.0,0.0,0.0,0.0,0.0,0.0,0.0,0.0,0.0,0.0,0.0,0.0,0.0,0.0,0.0,0.0,0.0,0.0,0.0,0.0,0.0,0.0,0.0,0.0,0.0,0.0,0.0,0.0,0.0,0.0,0.0,0.0,0.0,0.0,0.0,0.0,0.0,0.0,0.0,0.0,0.0,0.0,0.0,0.0,0.0,0.0,0.0,0.0,0.0,-1.6396,-1.6674,0.0,0.0,0.0,0.0,0.0,0.0,0.0,0.0,0.0,0.0,0.0,0.0,0.0,0.0,0.0,0.0,0.0,0.0,0.0,0.0,0.0,0.0,0.0,0.0,0.0,0.0,0.0,0.0,0.0,0.0,0.0,0.0,0.0,0.0,0.0,0.0,0.0,0.0,0.0,0.0,0.0,0.0,0.0,0.0,0.0,0.0,0.0,0.0,0.0,0.0,0.0,0.0,0.0,0.0,0.0,0.0,0.0,0.0,0.0,0.0,0.0,0.0,0.0,0.0,0.0,0.0,0.0,0.0,0.0,0.0,0.0,0.0,0.0,0.0,0.0,0.0,0.0,0.0,0.0,0.0,0.0,0.0,0.0,0.0,0.0,0.0,0.0,0.0,0.0,0.0,0.0,0.0,0.0,0.0,0.0,0.0,0.0,0.0,0.0,0.0,0.0,0.0,0.0,0.0,0.0,0.0,0.0,0.0,-1.7666,-1.7347,-1.6515,-1.6951,-1.6915,-1.6472,-1.638,-1.6331,-1.6331,-1.6331,0.0,0.0,0.0,0.0,0.0,0.0,0.0,0.0,0.0,0.0,0.0,0.0,0.0,0.0,0.0,0.0,0.0,0.0,0.0,0.0,0.0,0.0,-1.9838,-2.006,-1.9644,0.0,0.0,0.0,0.0,0.0,0.0,0.0,0.0,0.0,0.0,0.0,0.0,0.0,-1.8841,-2.1058,-2.2069,-2.2076,-2.3523,0.0,0.0,0.0,0.0,0.0,0.0,0.0,0.0,0.0,0.0,0.0,0.0,0.0,0.0,0.0,0.0,0.0,0.0,0.0,0.0,0.0,0.0,0.0,0.0,0.0,0.0,0.0,0.0,0.0,0.0,0.0,0.0,0.0,0.0,0.0,0.0,0.0,0.0,0.0,0.0,0.0,0.0,0.0,-1.8217,-1.8288,0.0,0.0,0.0,0.0,0.0,0.0,0.0,0.0,0.0,0.0,0.0,0.0,0.0,-1.8171,-1.8099,-1.7626,-1.7388,-1.7312,-1.6915,-1.6637,-1.6515,-1.6558,-1.6558,-1.6472,-1.5958,0.0,-1.5726,-1.5726,0.0,0.0,0.0,0.0,0.0,0.0,0.0,0.0,0.0,0.0,0.0,0.0,0.0,0.0,0.0,0.0,0.0,0.0,0.0,0.0,0.0,-1.9004,-1.8791,-1.8923,-1.8298,-1.8153,0.0,0.0,0.0,0.0,0.0,0.0,0.0,0.0,0.0,0.0,-1.7666,-1.7784,-1.7159,-1.8484,-1.9211,-1.9426,-1.9828,-2.1171,-2.3102,-2.3075,0.0,0.0,0.0,0.0,0.0,0.0,0.0,0.0,0.0,0.0,0.0,0.0,0.0,0.0,0.0,0.0,0.0,0.0,0.0,0.0,0.0,0.0,0.0,0.0,0.0,0.0,0.0,0.0,0.0,0.0,0.0,0.0,0.0,0.0,0.0,0.0,0.0,0.0,0.0,-1.8059,-1.798,-1.7706,-1.79,-1.798,0.0,0.0,0.0,0.0,0.0,0.0,0.0,0.0,0.0,-1.7188,-1.7188,-1.7188,-1.7188,-1.6623,-1.6361,-1.6361,-1.612,-1.5832,-1.5517,-1.5826,-1.5826,-1.5472,-1.5197,-1.4915,-1.463,-1.496,-1.492,-1.4658,0.0,0.0,0.0,0.0,-1.3967,-1.3747,0.0,0.0,0.0,0.0,0.0,0.0,0.0,0.0,0.0,0.0,0.0,0.0,-1.8351,-1.7629,-1.7178,-1.7262,-1.6596,-1.6505,-1.7312,0.0,0.0,0.0,0.0,0.0,0.0,0.0,0.0,-1.4526,-1.577,-1.6015,-1.5358,-1.6109,-1.6627,-1.6968,-1.6819,-1.8469,-2.1398,-2.1393,-2.1577,0.0,0.0,0.0,0.0,0.0,0.0,0.0,0.0,0.0,0.0,0.0,0.0,0.0,0.0,0.0,0.0,0.0,0.0,0.0,0.0,0.0,0.0,0.0,0.0,0.0,0.0,0.0,0.0,0.0,0.0,0.0,0.0,0.0,0.0,0.0,0.0,0.0,0.0,-1.7402,-1.7361,-1.7105,-1.7197,-1.7136,0.0,0.0,0.0,0.0,0.0,0.0,-1.5365,-1.5499,-1.5814,-1.6238,-1.6281,-1.6281,-1.6281,-1.5688,-1.5365,-1.5365,-1.5365,-1.5141,-1.4703,-1.5141,-1.5096,-1.4703,-1.452,-1.419,-1.3821,-1.4283,-1.4381,-1.4201,-1.3737,-1.3552,-1.3552,-1.3552,-1.3286,-1.2973,0.0,0.0,0.0,0.0,0.0,0.0,0.0,0.0,0.0,0.0,0.0,-1.6816,-1.6799,-1.5489,-1.4686,-1.4937,-1.4522,-1.4556,-1.5312,-1.6168,0.0,0.0,0.0,0.0,0.0,0.0,0.0,-1.2659,-1.2533,-1.2574,-1.283,-1.4226,-1.4912,-1.4979,-1.5915,-1.7189,-1.8714,-1.8703,-1.9342,-2.0348,0.0,0.0,0.0,0.0,0.0,0.0,0.0,0.0,0.0,0.0,0.0,0.0,0.0,0.0,0.0,0.0,0.0,0.0,0.0,0.0,0.0,0.0,0.0,0.0,0.0,0.0,0.0,0.0,0.0,0.0,0.0,0.0,0.0,0.0,0.0,0.0,0.0,0.0,0.0,-1.6466,-1.5555,0.0,0.0,0.0,0.0,-1.4744,-1.4703,-1.4703,-1.4749,-1.5276,-1.5626,-1.5632,-1.5632,-1.5632,-1.5632,-1.5056,-1.4744,-1.4744,-1.4744,-1.4749,-1.4703,-1.4749,-1.4749,-1.4658,-1.4097,-1.3821,-1.3821,-1.3821,-1.351,-1.2973,-1.2978,-1.2973,-1.2973,-1.2973,-1.2929,-1.2881,0.0,0.0,0.0,0.0,0.0,0.0,0.0,0.0,0.0,-1.8429,-1.7118,-1.6185,-1.6185,-1.4551,-1.3457,-1.3561,-1.2975,-1.2935,-1.3656,-1.4312,0.0,0.0,0.0,0.0,0.0,0.0,-1.2397,-1.1081,-1.1644,-1.1743,-1.1319,-1.1905,-1.2204,-1.2318,-1.2647,-1.363,-1.5118,-1.652,-1.7797,-1.8803,-1.8981,-1.9711,0.0,0.0,0.0,0.0,0.0,0.0,0.0,0.0,0.0,0.0,0.0,0.0,0.0,0.0,0.0,0.0,0.0,0.0,0.0,0.0,0.0,0.0,0.0,0.0,0.0,0.0,0.0,0.0,0.0,0.0,0.0,0.0,0.0,0.0,0.0,0.0,0.0,-1.5338,-1.4971,0.0,-1.5017,-1.4463,-1.4102,-1.4102,-1.3747,-1.3695,-1.4097,-1.4318,-1.4641,-1.5011,-1.5268,-1.5279,-1.5017,-1.4671,-1.4392,-1.4102,-1.4102,-1.392,-1.3568,-1.392,-1.392,-1.352,-1.3286,-1.3243,-1.3243,-1.3243,-1.3109,-1.2881,-1.2881,-1.2881,-1.2881,-1.2881,-1.2881,-1.2881,0.0,0.0,0.0,0.0,0.0,0.0,0.0,0.0,0.0,-1.7457,-1.5954,-1.4841,-1.4666,-1.3075,-1.2001,-1.2001,-1.1579,-1.1566,-1.2237,0.0,0.0,0.0,0.0,0.0,0.0,-1.1912,-1.1088,-0.9906,-1.059,-1.0671,-1.0214,-1.0054,-1.0257,-1.0796,-1.0537,-1.1404,-1.3199,-1.465,-1.6023,-1.7207,-1.7596,-1.844,-1.9416,0.0,0.0,0.0,0.0,0.0,0.0,0.0,0.0,0.0,0.0,0.0,0.0,0.0,0.0,0.0,0.0,0.0,0.0,0.0,0.0,0.0,0.0,0.0,0.0,0.0,0.0,0.0,0.0,0.0,0.0,0.0,0.0,0.0,0.0,-1.4584,-1.4116,-1.4348,-1.3773,-1.358,-1.4029,-1.3511,-1.3241,-1.3457,-1.3152,-1.312,-1.3677,-1.3768,-1.4111,-1.4815,-1.4957,-1.4881,-1.4617,-1.4254,-1.3897,-1.351,-1.351,-1.3286,-1.2929,-1.3329,-1.3286,-1.2881,-1.2881,-1.2881,-1.2881,-1.2881,-1.2881,-1.2881,-1.2881,-1.2881,-1.2881,-1.2881,-1.2881,-1.2881,0.0,0.0,0.0,0.0,0.0,0.0,0.0,0.0,0.0,-1.5921,-1.4108,-1.2697,-1.2234,-1.1026,-1.0288,-1.0288,-1.028,-1.0469,-1.0779,-1.1095,0.0,0.0,0.0,0.0,-1.1125,-1.0282,-0.9598,-0.9172,-0.9169,-0.9232,-0.9443,-0.8777,-0.9188,-1.0459,-0.9762,-1.0779,-1.2986,-1.3027,-1.3991,-1.5598,-1.6764,-1.7501,-1.7991,0.0,0.0,0.0,0.0,0.0,0.0,0.0,0.0,0.0,0.0,0.0,0.0,0.0,0.0,0.0,0.0,0.0,0.0,0.0,0.0,0.0,0.0,0.0,0.0,0.0,0.0,0.0,0.0,0.0,0.0,0.0,0.0,0.0,-1.4411,-1.3543,-1.2951,-1.3554,-1.1975,-1.1303,-1.2619,-1.215,-1.208,-1.2822,-1.2895,-1.3076,-1.343,-1.368,-1.4186,-1.5003,-1.4633,-1.4432,-1.4367,-1.3821,-1.333,-1.29,-1.29,-1.2891,-1.2881,-1.2881,-1.2881,-1.2881,-1.2881,-1.2881,-1.2881,-1.2881,-1.2881,-1.2881,-1.2881,-1.2881,-1.2881,-1.2881,-1.2881,-1.2881,0.0,0.0,0.0,0.0,0.0,0.0,0.0,0.0,-1.4863,-1.508,-1.3181,-1.1751,-1.1639,-1.0335,-0.9483,-0.9483,-0.9976,-0.9268,-0.6866,0.0,0.0,0.0,0.0,0.0,-1.0943,-0.929,-0.8626,-0.8927,-0.8215,-0.7923,-0.7973,-0.7565,-0.7525,-0.775,-0.8445,-0.932,-1.0245,-1.1242,-1.2392,-1.3679,-1.4896,-1.5733,-1.6194,0.0,0.0,0.0,0.0,0.0,0.0,0.0,0.0,0.0,0.0,0.0,0.0,0.0,0.0,0.0,0.0,0.0,0.0,0.0,0.0,0.0,0.0,0.0,0.0,0.0,0.0,0.0,0.0,0.0,0.0,0.0,-1.1796,-1.1634,-1.2391,-1.1828,-1.1399,-1.1589,-1.1153,-1.096,-1.1303,-1.1611,-1.1868,-1.2084,-1.2891,-1.3125,-1.2658,-1.3507,-1.3872,-1.3511,-1.4307,-1.4531,-1.4208,-1.4375,-1.4067,-1.334,-1.334,-1.3179,-1.2881,-1.2881,-1.2881,-1.2881,-1.2881,-1.2881,-1.2881,-1.2881,-1.2881,-1.2881,-1.2881,-1.2881,-1.2881,-1.2881,-1.2881,-1.2881,0.0,0.0,0.0,0.0,0.0,0.0,0.0,0.0,-1.3543,-1.3394,-1.1926,-1.0788,-1.0522,-0.9724,-0.8729,-0.7588,-0.9205,-0.8831,-0.5318,0.0,0.0,0.0,0.0,-0.9468,-0.813,-0.7003,-0.6596,-0.6947,-0.6421,-0.635,-0.6781,-0.6607,-0.6727,-0.7062,-0.7769,-0.8571,-0.9448,-1.065,-1.1644,-1.2465,-1.332,-1.4287,-1.517,-1.517,-1.5376,-1.5605,-1.5605,-1.5605,-1.5731,-1.6309,0.0,0.0,0.0,0.0,0.0,0.0,0.0,0.0,0.0,0.0,0.0,0.0,0.0,0.0,0.0,0.0,0.0,0.0,0.0,0.0,0.0,0.0,0.0,0.0,-1.0665,-1.0454,-1.0633,-1.049,-1.0364,-1.0364,-1.0111,-1.0064,-1.0364,-1.0855,-1.1234,-1.1379,-1.2247,-1.2574,-1.2141,-1.273,-1.3172,-1.3458,-1.3997,-1.4152,-1.3902,-1.4143,-1.3935,-1.3232,-1.3232,-1.3323,-1.3403,-1.3403,-1.3311,-1.3145,-1.3145,-1.2879,-1.2452,-1.2774,-1.272,-1.2456,0.0,0.0,0.0,0.0,-1.3032,-1.2905,0.0,0.0,0.0,0.0,0.0,0.0,0.0,0.0,-1.228,-1.1372,-1.0578,-0.9837,-0.915,-0.9022,-0.7976,-0.5534,-0.7649,-0.7821,0.0,0.0,0.0,-0.584,-0.5757,-0.5112,-0.3955,-0.3899,-0.3899,-0.3899,-0.3899,-0.4453,-0.5501,-0.5669,-0.6306,-0.7254,-0.7373,-0.8148,-0.9471,-1.0526,-1.1251,-1.1672,-1.2013,-1.3071,-1.4483,-1.4408,-1.4354,-1.4348,-1.4279,-1.4333,-1.4478,-1.5034,0.0,0.0,0.0,0.0,0.0,0.0,0.0,0.0,0.0,0.0,0.0,0.0,0.0,0.0,0.0,0.0,0.0,0.0,0.0,0.0,0.0,0.0,0.0,0.0,-0.9769,-0.9624,-0.9301,-0.9585,-0.9772,-0.9772,-0.9263,-0.9161,-0.9724,-1.0141,-1.0455,-1.0756,-1.141,-1.1792,-1.1784,-1.1825,0.0,0.0,0.0,-1.358,-1.3695,-1.358,-1.3322,-1.282,-1.2934,-1.335,-1.397,-1.4077,-1.3931,-1.3574,-1.3423,-1.2808,-1.1936,-1.2524,-1.2398,-1.1873,-1.2665,-1.2851,-1.2791,-1.3319,-1.3216,-1.29,0.0,0.0,0.0,0.0,0.0,0.0,0.0,0.0,-1.0697,-1.0467,-0.9806,-0.912,-0.8391,-0.7802,-0.7209,-0.6696,-0.3794,-0.1707,0.0,0.0,-0.1079,-0.1286,-0.1235,-0.1122,-0.0841,-0.0841,-0.0841,-0.0841,-0.0841,-0.157,-0.292,-0.4193,-0.4862,-0.5146,-0.5841,-0.667,-0.7685,-0.857,-0.9733,-1.0923,-1.0998,-1.1918,-1.3198,-1.2609,-1.2362,-1.2294,-1.1736,-1.1914,-1.2483,-1.3076,-1.3669,-1.4227,-1.4834,-1.4575,0.0,0.0,0.0,0.0,0.0,0.0,0.0,0.0,0.0,0.0,0.0,0.0,0.0,0.0,0.0,0.0,0.0,0.0,0.0,-1.0169,-0.9684,-0.9363,-0.9556,-0.966,-0.9733,-0.9733,-0.9626,-0.9569,-0.968,-1.0282,-1.0673,-1.0718,-1.1662,-1.195,-1.1295,-1.221,-1.292,-1.3243,-1.3184,-1.3446,-1.4096,-1.3442,-1.2902,-1.2489,-1.3169,0.0,-1.3141,-1.3804,-1.4034,-1.3941,-1.3067,-1.2565,-1.2353,-1.2118,-1.1918,-1.19,-1.2977,-1.2642,-1.1748,-1.3048,-1.3039,-1.2465,0.0,0.0,0.0,0.0,0.0,0.0,0.0,0.0,-1.0113,-0.9531,-0.9171,-0.8133,-0.6029,-0.5468,-0.4793,-0.3582,-0.1342,0.0,0.0,0.0,0.0,0.0,0.0,0.0,0.0,0.0,0.0,0.0,0.0,-0.0393,-0.1122,-0.3461,-0.4517,-0.4519,-0.5434,-0.6015,-0.6547,-0.8002,-0.8899,-0.9432,-1.0003,-1.0534,-1.0943,-1.1371,-1.1441,-1.1272,-1.0905,-1.1027,-1.134,-1.1714,-1.2034,-1.2365,-1.2661,-1.252,-1.2333,0.0,0.0,0.0,0.0,0.0,0.0,0.0,0.0,0.0,0.0,0.0,0.0,0.0,0.0,-1.1088,-1.0189,0.0,-0.9829,-0.9988,-0.9682,-0.9563,-0.986,-0.99,-0.9846,-0.9703,-0.9683,-0.9743,-0.9886,-1.0182,-1.0411,-1.0411,-1.1061,-1.13,-1.0872,-1.145,-1.2041,-1.2574,-1.2476,-1.2565,-1.2988,-1.263,-1.2307,-1.2077,-1.2489,-1.2982,-1.3561,-1.3964,-1.4031,-1.383,-1.3291,-1.2484,-1.1563,-1.119,-1.1038,-1.1175,-1.2246,-1.2117,-1.1411,-1.2562,-1.2525,-1.2051,0.0,0.0,0.0,0.0,0.0,0.0,0.0,0.0,0.0,-0.892,-0.8659,-0.7455,-0.4514,-0.3383,-0.207,0.0,0.0,0.0,0.0,0.0,0.0,0.0,0.0,0.0,0.0,0.0,0.0,0.0,0.0,0.0,-0.0056,-0.2846,-0.4299,-0.4575,-0.5321,-0.578,-0.6036,-0.772,-0.8242,-0.8129,-0.9113,-0.9119,-0.8714,-1.0012,-1.0391,-1.0136,-1.0034,-1.0049,-1.02,-1.0166,-1.0265,-1.0395,-1.04,-1.0276,-1.0222,-1.05,-1.0505,0.0,0.0,0.0,0.0,0.0,0.0,0.0,0.0,-1.1424,-1.1618,-1.0158,-1.0739,-1.104,-0.9583,-0.9522,-0.9703,-0.976,-0.9766,-0.989,-1.0237,-1.0287,-1.0221,-1.0043,-0.997,-1.0053,-1.0341,-1.0371,-1.0371,-1.0371,-1.0591,-1.0732,-1.0732,-1.0732,-1.1182,-1.2182,-1.1873,-1.1744,-1.1865,-1.1744,-1.171,-1.171,-1.1833,-1.2665,-1.4016,-1.4005,-1.3861,-1.3682,-1.331,-1.2249,-1.0657,-1.0284,-1.0151,-1.0395,-1.1158,-1.1285,-1.1122,-1.2057,-1.2044,-1.1587,0.0,0.0,0.0,0.0,0.0,0.0,0.0,0.0,0.0,-0.9255,-0.8584,-0.7777,-0.6706,-0.2886,-0.0271,0.0,0.0,0.0,0.0,0.0,0.0,0.0,0.0,0.0,0.0,0.0,0.0,0.0,0.0,0.0,-0.0056,-0.1964,-0.3588,-0.4803,-0.5033,-0.5596,-0.6388,-0.6783,-0.7345,-0.8004,-0.8118,-0.7912,-0.7526,-0.7672,-0.7841,-0.7901,-0.7267,-0.7466,-0.7934,-0.7966,-0.841,-0.8914,-0.8911,-0.8503,-0.8196,-0.9449,-0.9427,-0.9211,-1.0454,-1.1001,-1.1169,-1.0829,-1.0927,-1.1,0.0,-1.0478,-1.0299,-1.0089,-0.9986,-0.9894,-0.9697,-0.9663,-0.9766,-1.0027,-1.007,-1.0264,-1.0818,-1.0895,-1.0979,-1.1206,-1.1002,-1.0959,-1.1253,-1.1279,-1.1279,-1.1279,-1.1309,-1.1329,-1.1329,-1.1329,-1.1611,-1.2193,-1.1724,-1.1654,-1.2137,-1.1647,-1.1455,-1.1455,-1.1956,-1.2646,-1.3467,-1.321,-1.3524,-1.4064,-1.2288,-1.1205,-1.0657,-0.9684,-0.9725,-1.0294,-1.0066,-0.9945,-1.0067,-1.1806,-1.1854,-1.1195,0.0,0.0,0.0,0.0,0.0,0.0,0.0,0.0,0.0,0.0,0.0,-0.7813,-0.7066,-0.2806,0.0,0.0,0.0,0.0,0.0,0.0,0.0,0.0,0.0,0.0,0.0,0.0,0.0,0.0,0.0,0.0,-0.0,-0.0752,-0.2561,-0.5174,-0.5112,-0.532,-0.5702,-0.6392,-0.6602,-0.6521,-0.7019,-0.6676,-0.589,-0.5875,-0.5876,-0.5848,-0.6384,-0.6802,0.0,0.0,-0.725,-0.7484,-0.7467,-0.7268,-0.7109,-0.7723,-0.7714,-0.7723,-0.8961,-0.9501,-0.9807,-1.0251,-1.0561,-1.0764,-1.0654,-1.0957,-1.1125,-1.0532,-1.0923,-1.1217,-1.0603,-1.0448,-1.0488,-1.0608,-1.0628,-1.0456,-1.0073,-1.0698,-1.1024,-1.0497,-1.1093,-1.155,-1.1673,-1.1526,-1.1496,-1.167,-1.1523,-1.15,-1.1673,-1.152,-1.1577,-1.2032,-1.1652,-1.1499,-1.1762,-1.1496,-1.1339,-1.1172,-1.1366,-1.1847,-1.2469,-1.2328,-1.2508,-1.2728,-1.1244,-1.0506,-1.0297,-0.9542,-0.9401,-0.9629,-0.9488,-0.9532,-0.9856,-1.092,-1.1099,-1.079,0.0,0.0,0.0,0.0,0.0,0.0,0.0,0.0,0.0,0.0,0.0,0.0,0.0,0.0,0.0,0.0,0.0,0.0,0.0,0.0,0.0,0.0,0.0,0.0,0.0,0.0,0.0,0.0,0.0,0.0,0.0,0.0,-0.168,-0.4699,-0.5025,-0.5156,-0.5224,-0.5979,-0.5979,-0.547,-0.6021,-0.5705,-0.4921,-0.4881,-0.4689,-0.4632,-0.5667,-0.6016,0.0,-0.6021,-0.6005,-0.6005,-0.6005,-0.5998,-0.6046,-0.6218,-0.6433,-0.6799,-0.7642,-0.8054,-0.8537,-0.9604,-1.0193,-1.0669,-1.1022,-1.1588,-1.1906,-1.1195,-1.178,-1.2105,-1.1283,-1.1112,-1.1086,-1.1005,-1.0791,-1.0318,-0.9536,-1.0302,-1.064,-0.9905,-1.0716,-1.142,-1.1495,-1.1603,-1.1757,-1.1974,-1.179,-1.176,-1.1977,-1.1784,-1.173,-1.1864,-1.1737,-1.163,-1.1546,-1.1627,-1.1563,-1.1353,-1.1189,-1.1448,-1.2041,-1.1854,-1.171,-1.1395,-1.0571,-1.0237,-1.0194,-0.9603,-0.9362,-0.9355,-0.9216,-0.9372,-0.9623,-1.0134,-1.0371,-1.0384,0.0,0.0,0.0,0.0,0.0,0.0,0.0,0.0,0.0,0.0,0.0,0.0,0.0,0.0,0.0,0.0,0.0,0.0,0.0,0.0,0.0,0.0,0.0,0.0,0.0,0.0,0.0,0.0,0.0,0.0,0.0,0.0,-0.1011,-0.2837,-0.4634,-0.5362,-0.5362,-0.5428,-0.5428,-0.5377,-0.5203,-0.5073,-0.4885,-0.4732,-0.4632,-0.4517,-0.4574,0.0,-0.4575,-0.4574,-0.4574,-0.4574,-0.4574,-0.4574,-0.468,-0.5326,-0.6036,-0.6633,-0.6903,-0.7225,-0.7798,-0.9,-0.9888,-1.0725,-1.1962,-1.2037,-1.1992,-1.2194,-1.1807,-1.1423,-1.1413,-1.1413,-1.1319,-1.1039,-1.0321,-0.9716,-0.971,-0.9722,-0.9823,-1.0062,-1.0107,-1.021,-1.0453,-1.1519,-1.2281,-1.2288,-1.2281,-1.2281,-1.2288,-1.2281,-1.2151,-1.1877,-1.2131,-1.2141,-1.1857,-1.2134,-1.2268,-1.2255,-1.1683,-1.1812,-1.2665,-1.2071,-1.1347,-1.0621,-1.0614,-1.0608,-1.0564,-0.9913,-0.9669,-0.9643,-0.9352,-0.9186,-0.9236,-0.9599,-0.989,-1.0047,0.0,0.0,0.0,0.0,0.0,0.0,0.0,0.0,0.0,0.0,0.0,0.0,0.0,0.0,0.0,0.0,0.0,0.0,0.0,0.0,0.0,0.0,0.0,0.0,0.0,0.0,0.0,0.0,0.0,0.0,0.0,0.0,-0.0944,-0.2771,-0.4566,-0.5428,-0.5428,-0.5428,-0.543,-0.5528,-0.5241,-0.5049,-0.5002,-0.4698,-0.4567,-0.4505,0.0,0.0,-0.4517,-0.4517,-0.4517,-0.4517,-0.4517,-0.4517,-0.4517,-0.4787,-0.5112,-0.5616,-0.6388,-0.6847,-0.7424,-0.8662,-0.9135,-0.9661,-1.1024,-1.1246,-1.1359,-1.2131,-1.1475,-1.0729,-1.0729,-0.9946,-0.9277,-0.9128,-0.8992,-0.8575,-0.7824,-0.8526,-0.8977,-0.8746,-0.8993,-0.943,-0.9914,-0.9988,-1.0058,-1.0323,-1.0866,-1.1208,-1.1307,-1.1922,-1.2258,-1.2158,-1.2251,-1.2255,-1.2158,-1.2251,-1.2104,-1.1713,-1.1326,-1.1171,-1.1306,-1.1292,-1.0988,-1.0614,-1.0351,-1.0157,-0.9947,-0.9552,-0.9275,-0.9092,-0.8991,-0.9017,-0.9173,-0.9135,-0.9285,-0.9479,0.0,0.0,0.0,0.0,0.0,0.0,0.0,0.0,0.0,0.0,0.0,0.0,0.0,0.0,0.0,0.0,0.0,0.0,0.0,0.0,0.0,0.0,0.0,0.0,0.0,0.0,0.0,0.0,0.0,0.0,-0.0,-0.1078,-0.1947,-0.2629,-0.4375,-0.517,-0.5239,-0.5222,-0.527,-0.531,-0.5063,-0.4956,-0.4921,-0.4591,-0.4515,0.0,0.0,0.0,-0.4522,-0.4519,-0.4517,-0.4517,-0.4522,-0.4524,-0.4534,-0.4585,-0.4723,-0.5085,-0.5853,-0.6295,-0.683,-0.8061,-0.842,-0.8755,-1.0111,-1.0329,-1.049,-1.1171,-1.0527,-0.9788,-0.9771,-0.8939,-0.8251,-0.817,-0.7957,-0.748,-0.6703,-0.7357,-0.7882,-0.7631,-0.7918,-0.83,-0.8805,-0.8161,-0.8129,-0.9147,-0.978,-1.0303,-1.0771,-1.1391,-1.1922,-1.2301,-1.2301,-1.2301,-1.2301,-1.2301,-1.2007,-1.1423,-1.1129,-1.0842,-1.0631,-1.0755,-1.0738,-1.0614,-1.0357,-1.0107,-0.9816,-0.9519,-0.9225,-0.8951,-0.8848,-0.8921,-0.9062,-0.8874,-0.8991,-0.921,0.0,0.0,0.0,0.0,0.0,0.0,0.0,0.0,0.0,0.0,0.0,0.0,0.0,0.0,0.0,0.0,0.0,0.0,0.0,0.0,0.0,0.0,0.0,0.0,0.0,0.0,0.0,0.0,0.0,0.0,-0.0056,-0.3098,-0.3729,-0.2387,-0.4024,-0.4816,-0.4882,-0.4906,-0.4906,-0.4872,-0.4763,-0.4696,-0.4689,-0.4565,0.0,0.0,0.0,-0.4463,-0.4477,-0.4522,-0.4519,-0.4467,-0.4428,-0.4435,-0.4519,-0.4662,-0.4821,-0.5014,-0.5289,-0.5589,-0.6073,-0.7161,-0.7559,-0.8043,-0.9311,-0.942,-0.9256,-0.9391,-0.9024,-0.8641,-0.8506,-0.8346,-0.8122,-0.7915,-0.714,-0.6585,-0.64,-0.6346,-0.6479,-0.6827,-0.6877,-0.6948,-0.7292,-0.6384,-0.6651,-0.8794,-0.896,-0.9495,-1.0622,-1.0786,-1.1239,-1.2301,-1.2301,-1.2301,-1.2301,-1.2271,-1.1971,-1.14,-1.1122,-1.0842,-1.0624,-1.0638,-1.0638,-1.0624,-1.0624,-1.0384,-1.0074,-0.9796,-0.9499,-0.9133,-0.8915,-0.8808,-0.8808,-0.8808,-0.8981,-0.9163,0.0,0.0,0.0,0.0,0.0,0.0,0.0,0.0,0.0,0.0,0.0,0.0,0.0,0.0,0.0,0.0,0.0,0.0,0.0,0.0,0.0,0.0,0.0,0.0,0.0,0.0,0.0,0.0,0.0,0.0,-0.0056,-0.3086,-0.4177,-0.3558,-0.4436,-0.4794,-0.4761,-0.4884,-0.4956,-0.505,0.0,-0.474,-0.4791,0.0,0.0,0.0,0.0,-0.4387,-0.4479,-0.4475,-0.448,-0.4279,-0.3162,-0.3653,-0.4682,-0.4594,-0.4884,-0.5287,-0.5394,-0.5769,-0.6225,-0.6514,-0.6519,-0.6778,-0.7851,-0.7928,-0.8031,-0.8653,-0.7991,-0.7219,-0.717,-0.644,-0.579,-0.5807,-0.5802,-0.569,-0.5692,-0.5731,-0.6105,-0.679,-0.6439,-0.6337,-0.7064,-0.6321,-0.6078,-0.675,-0.7495,-0.8463,-0.958,-1.0415,-1.1239,-1.2301,-1.2301,-1.2301,-1.2301,-1.1867,-1.1466,-1.1102,-1.1029,-1.0842,-1.0631,-1.0785,-1.0765,-1.0624,-1.0624,-1.0329,-0.979,-0.9713,-0.9379,-0.8911,-0.8834,-0.8808,-0.8808,-0.8808,-0.8854,-0.8948,0.0,0.0,0.0,0.0,0.0,0.0,0.0,0.0,0.0,0.0,0.0,0.0,0.0,0.0,0.0,0.0,0.0,0.0,0.0,0.0,0.0,0.0,0.0,0.0,0.0,0.0,0.0,0.0,0.0,0.0,-0.2038,-0.3712,-0.4399,-0.4228,-0.4519,-0.4639,-0.4639,-0.4697,0.0,0.0,0.0,0.0,0.0,0.0,0.0,0.0,0.0,-0.4416,-0.4391,-0.3706,-0.396,-0.4208,-0.2685,-0.245,-0.2953,-0.4267,-0.4352,-0.4048,-0.4181,-0.4549,-0.4913,-0.4861,-0.5552,-0.6172,-0.6518,-0.6545,-0.6636,-0.7063,-0.6588,-0.6006,-0.6006,-0.5381,-0.4945,-0.5025,-0.5109,-0.5189,-0.5252,-0.5333,-0.5659,-0.6342,-0.6029,-0.6071,-0.6723,-0.6296,-0.6039,-0.6123,-0.6585,-0.7356,-0.8604,-0.9213,-1.0187,-1.162,-1.162,-1.1787,-1.2114,-1.1657,-1.1283,-1.0992,-1.0862,-1.0718,-1.0631,-1.0732,-1.0641,-1.0364,-1.0364,-1.0033,-0.9489,-0.9489,-0.9218,-0.8808,-0.8808,-0.8808,-0.8808,-0.8808,-0.8808,-0.8828,0.0,0.0,0.0,0.0,0.0,0.0,0.0,0.0,0.0,0.0,0.0,0.0,0.0,0.0,0.0,0.0,0.0,0.0,0.0,0.0,0.0,0.0,0.0,0.0,0.0,0.0,0.0,0.0,0.0,0.0,0.0,0.0,0.0,0.0,0.0,0.0,0.0,0.0,0.0,0.0,0.0,0.0,0.0,0.0,0.0,0.0,0.0,-0.4499,-0.4249,-0.2498,-0.2823,-0.3666,-0.2313,-0.1048,-0.0583,-0.3421,-0.3506,-0.2595,-0.237,-0.2504,-0.2687,-0.2691,-0.4117,-0.5396,-0.514,-0.5194,-0.5332,-0.5309,-0.5186,-0.5034,-0.5081,-0.4992,-0.4923,-0.4921,-0.4921,-0.497,-0.5111,-0.5148,-0.5315,-0.5723,-0.5808,-0.5937,-0.6205,-0.623,-0.623,-0.623,-0.6107,-0.6541,-0.7774,-0.7783,-0.8761,-1.0711,-1.0786,-1.1092,-1.1814,-1.1557,-1.1259,-1.0932,-1.0678,-1.0624,-1.0624,-1.0518,-1.0361,-1.0114,-1.0077,-0.9746,-0.9183,-0.9183,-0.9017,-0.8808,-0.8808,-0.8808,-0.8808,-0.8808,-0.8808,-0.8808,0.0,0.0,0.0,0.0,0.0,0.0,0.0,0.0,0.0,0.0,0.0,0.0,0.0,0.0,0.0,0.0,0.0,0.0,0.0,0.0,0.0,0.0,0.0,0.0,0.0,0.0,0.0,-0.0,-0.2525,0.0,0.0,0.0,0.0,0.0,0.0,0.0,0.0,0.0,0.0,0.0,0.0,0.0,0.0,0.0,0.0,0.0,-0.4506,-0.4518,-0.4073,0.0,-0.0576,-0.0713,-0.0438,-0.0192,-0.013,-0.0686,-0.2726,-0.4218,-0.1269,-0.0504,-0.051,-0.0566,-0.0833,-0.1505,-0.3111,-0.4239,-0.4946,-0.4991,-0.4908,-0.4872,-0.494,-0.4941,-0.4945,-0.506,-0.506,-0.5044,-0.5111,-0.524,-0.5398,-0.5603,-0.5842,-0.601,-0.6066,-0.6071,-0.6071,-0.6071,-0.6045,-0.6541,-0.7774,-0.7783,-0.8761,-1.0711,-1.0786,-1.1007,-1.151,-1.145,-1.1159,-1.0698,-1.0648,-1.0624,-1.0614,-1.0304,-1.0164,-1.0104,-0.9863,-0.9559,-0.9183,-0.9183,-0.9017,-0.8808,-0.8808,-0.8808,-0.8808,-0.8808,-0.8808,-0.8808,0.0,0.0,0.0,0.0,0.0,0.0,0.0,0.0,0.0,0.0,0.0,0.0,0.0,0.0,0.0,0.0,0.0,0.0,0.0,0.0,0.0,0.0,0.0,0.0,0.0,0.0,0.0,-0.0,0.0,-0.2374,-0.3586,-0.3901,-0.4007,-0.3953,-0.4224,-0.4362,-0.4373,0.0,0.0,-0.4517,-0.4524,-0.4473,0.0,0.0,0.0,0.0,0.0,0.0168,0.028,0.0912,0.1159,0.1007,0.0249,0.0,0.0,0.0,-0.1263,-0.2246,-0.0492,0.0,0.0,0.0,0.0,-0.0266,-0.1266,-0.1899,-0.275,-0.438,-0.4052,-0.3486,-0.3737,-0.3725,-0.376,-0.3819,-0.4505,-0.4994,-0.4999,-0.5213,-0.5415,-0.5508,-0.5587,-0.5771,-0.599,-0.607,-0.6115,-0.603,-0.6105,-0.6372,-0.6814,-0.7425,-0.8461,-0.9965,-1.0562,-1.0982,-1.1433,-1.1426,-1.1132,-1.0624,-1.0624,-1.0624,-1.0614,-1.0254,-1.0033,-0.9873,-0.9579,-0.9285,-0.9015,-0.9015,-0.8935,-0.8808,-0.8808,-0.8808,-0.8808,-0.8808,-0.8808,-0.8808,0.0,0.0,0.0,0.0,0.0,0.0,0.0,0.0536,0.0403,0.0404,0.0179,0.0,0.0,0.0,0.0,0.0,0.0,0.0,0.0,0.0,0.0,0.0,0.0,0.0,0.0,0.0,0.0,0.0,0.0,0.0,0.0,0.0,0.0,0.0,-0.3925,-0.4161,-0.4482,-0.4473,-0.4524,0.0,0.0,-0.4484,0.0,0.0,0.0,0.0,0.0,0.4512,0.4297,0.3114,0.2671,0.2511,0.1329,0.0507,0.0,0.0,0.0,0.0,0.0,0.0,0.0,0.0,0.0,0.0,0.0,0.0,-0.0697,-0.3028,-0.3101,-0.2597,-0.2164,-0.2122,-0.2127,-0.2112,-0.3079,-0.3985,-0.4256,-0.4535,-0.4767,-0.4836,-0.4823,-0.4956,-0.5295,-0.5857,-0.6164,-0.6108,-0.6144,-0.6173,-0.6084,-0.6948,-0.7933,-0.8917,-0.9739,-1.0393,-1.0801,-1.1001,-1.0792,-1.0304,-1.0495,-1.0624,-1.0614,-1.0254,-0.9957,-0.9669,-0.9369,-0.9075,-0.8808,-0.8808,-0.8808,-0.8808,-0.8808,-0.8808,-0.8808,-0.8808,-0.8808,-0.8808,0.0,0.0,0.0,0.0,0.0,0.0,0.0,0.2322,0.1651,0.1652,0.067,0.0,0.0,0.0,0.0,0.0,0.0,0.0,0.0,0.0,0.0,0.0,0.0,0.0,0.0,0.0,0.0,0.0,0.0,0.0,0.0,0.0,0.0,0.0,0.0,-0.2936,-0.4496,-0.4494,0.0,0.0,0.0,0.0,0.0,0.0,0.0,0.0,0.0,0.4507,0.4499,0.434,0.4287,0.4255,0.4105,0.2235,0.0,0.0,0.0,0.0,0.0,0.0,0.0,0.0,0.0,0.0,0.0,0.0,-0.0056,-0.0338,-0.2482,-0.3455,-0.0739,-0.0232,-0.0234,-0.0227,-0.0338,-0.0922,-0.2265,-0.2468,-0.2586,-0.2938,-0.2957,-0.2962,-0.2969,-0.4805,-0.6124,-0.6266,-0.6127,-0.6107,-0.6232,-0.6405,-0.687,-0.7933,-0.8008,-0.834,-0.8842,-0.967,-0.9835,-0.9402,-1.0238,-1.0624,-1.0614,-1.0254,-0.9957,-0.9669,-0.9369,-0.9075,-0.8808,-0.8808,-0.8808,-0.8808,-0.8808,-0.8808,-0.8808,-0.8808,-0.8808,-0.8808,0.0,0.0,0.0,0.0,0.0,0.0,0.358,0.3173,0.2905,0.2866,0.2462,0.1878,0.116,0.0447,0.0,0.0,0.0,0.0,0.0,0.0,0.0,0.0,0.0,0.0,0.0,0.0,0.0,0.0,0.0,0.0,0.0,0.0,0.0,0.0,0.0,-0.2429,-0.3138,-0.3134,0.0,0.0,0.0,0.0,0.0,0.0,0.0,0.0,0.0,0.0,0.4484,0.4477,0.4475,0.4489,0.4498,0.3683,0.2346,0.0556,0.0,0.0,0.0,0.0,0.0,0.0,0.0,0.0,0.0,0.0,0.0,0.0,-0.0963,-0.1424,-0.0225,0.0,0.0,0.0,0.0,-0.0228,-0.0774,-0.0898,-0.0925,-0.1065,-0.1069,-0.1091,-0.1083,-0.4004,-0.6019,-0.6249,-0.6259,-0.6203,-0.6257,-0.6338,-0.6795,-0.7783,-0.7783,-0.8047,-0.8561,-0.8972,-0.8947,-0.8549,-0.9396,-0.9786,-0.9843,-1.0001,-1.0053,-0.9917,-0.9389,-0.912,-0.9051,-0.8878,-0.8808,-0.8808,-0.8808,-0.8808,-0.8808,-0.8808,-0.8808,-0.8808,0.0,0.0,0.0,0.0,0.0,0.358,0.358,0.358,0.3583,0.359,0.3592,0.3272,0.2412,0.1563,0.0761,0.0045,0.0,0.0,0.0,0.0,0.0,0.0,0.0,0.0,0.0,0.0,0.0,0.0,0.0,0.0,0.0,0.0,0.0,-0.0056,0.0,0.0,0.0,0.0,0.0,0.0,0.0,0.0,0.0,0.0,0.0,0.0,0.0,0.0,0.0,0.0,0.0,0.4519,0.4472,0.0,0.0,0.0885,0.0,0.0,0.0,0.0,0.0,0.0,0.0,0.0,0.0,0.0,0.0,0.0,0.0,0.0,0.0,0.0,0.0,0.0,0.0,0.0,0.0,0.0,0.0,0.0,0.0,0.0,0.0,-0.2483,-0.443,-0.5309,-0.5959,-0.6274,-0.6266,-0.6263,-0.6642,-0.7326,-0.7326,-0.748,-0.7803,-0.8079,-0.8012,-0.7663,-0.8527,-0.9082,-0.9329,-0.9712,-0.9952,-1.0087,-0.9589,-0.9266,-0.9163,-0.8925,-0.8808,-0.8808,-0.8808,-0.8808,-0.8808,-0.8808,-0.8808,-0.8808,0.0,0.0,0.0,0.0,0.0,0.0,0.358,0.358,0.358,0.358,0.358,0.358,0.358,0.359,0.2599,0.0224,0.0,0.0,0.0,0.0,0.0,0.0,0.0,0.0,0.0,0.0,0.0,0.0,0.0,0.0,0.0,0.0,0.0,-0.0,0.0,0.0,0.0,0.0,0.0,0.0,0.0,0.0,0.0,0.0,0.0,0.0,0.0,0.0,0.0,0.0,0.0,0.0,0.0,0.0,0.0,0.0,0.0,0.0,0.0,0.0,0.0,0.0,0.0,0.0,0.0,0.0,0.0,0.0,0.0,0.0,0.0,0.0,0.0,0.0,0.0,0.0,0.0,0.0,0.0,0.0,0.0,0.0,0.0,-0.0,-0.0914,-0.2961,-0.5089,-0.6278,-0.6278,-0.6268,-0.6338,-0.6338,-0.6338,-0.6185,-0.6028,-0.69,-0.7153,-0.6935,-0.7819,-0.8583,-0.9274,-0.9335,-0.9571,-1.0097,-0.9806,-0.9512,-0.9163,-0.8925,-0.8808,-0.8808,-0.8808,-0.8808,-0.8808,-0.8808,-0.8808,-0.8808,0.0,0.0,0.0,0.0,0.0,0.0,0.0,0.358,0.358,0.358,0.358,0.358,0.358,0.3583,0.3312,0.2545,0.0938,0.0,0.0,0.0,0.0,0.0,0.0,0.0,0.0,0.0,0.0,0.0,0.0,0.0,0.0,0.0,0.0,0.0112,0.2136,0.3094,0.0,0.0,0.0,0.0,0.0,0.0,0.0,0.0,0.0,0.0,0.0,0.0,0.0,0.0,0.0,0.0,0.0,0.0,0.0,0.335,0.1629,0.0,0.0,0.0,0.0,0.0,0.0,0.0,0.0,0.0,0.0,0.0,0.0,0.0,0.0,0.0,0.0,0.0,0.0,0.0,0.0,0.0,0.0,0.0,0.0,0.0,0.0,0.0,-0.0303,-0.0915,-0.4278,-0.6307,-0.629,-0.6278,-0.6269,-0.6338,-0.6338,-0.6186,-0.6032,-0.6247,-0.6308,-0.5995,-0.6873,-0.7375,-0.7567,-0.8748,-0.9418,-0.9505,-0.9106,-0.9153,-0.9449,-0.8457,-0.8371,-0.8808,-0.8808,-0.8808,-0.8808,-0.8808,-0.8808,-0.8808,0.0,0.0,0.0,0.0,0.0,0.0,0.0,0.358,0.358,0.358,0.358,0.358,0.358,0.358,0.358,0.358,0.2232,0.0,0.0,0.0,0.0,0.0,0.0,0.0,0.0,0.0,0.0,0.0,0.1136,0.1714,0.1682,0.1119,0.0839,0.0896,0.2808,0.3944,0.0,0.0,0.0,0.0,0.0,0.0,0.4489,0.0,0.0,0.0,0.0,0.0,0.0,0.0,0.0,0.0,0.0,0.0,0.0,0.0,0.318,0.1569,0.0973,0.0397,0.0,0.0,0.0853,0.1682,0.1682,0.084,0.0168,0.0727,0.0392,0.0168,0.0727,0.1288,0.1576,0.1081,0.1026,0.0802,0.0116,0.0,0.0,0.0,0.0,0.0,0.0,0.0,0.0,0.0,-0.2464,-0.4623,-0.6225,-0.578,-0.5716,-0.6268,-0.6263,-0.6215,-0.6118,-0.6117,-0.5967,-0.5669,-0.6216,-0.6569,-0.6719,-0.7829,-0.8484,-0.8784,-0.8284,-0.8366,0.0,-0.7712,-0.756,-0.7993,-0.7993,-0.7993,-0.7993,-0.7993,-0.7993,-0.7993,0.0,0.0,0.0,0.0,0.0,0.0,0.0,0.358,0.358,0.358,0.358,0.358,0.358,0.358,0.358,0.358,0.0,0.0,0.0,0.0,0.0,0.0,0.0,0.0,0.0,0.0,0.0093,0.0251,0.3089,0.4489,0.4442,0.3019,0.2346,0.2352,0.2233,0.3078,0.0,0.0,0.0,0.0,0.0,0.0,0.0,0.0,0.0,0.0,0.0,0.0,0.0,0.0,0.0,0.0,0.0,0.0,0.0,0.0,0.0,0.0,0.0,0.1339,0.0279,0.0167,0.2239,0.434,0.4455,0.2351,0.0,0.1952,0.1174,0.0728,0.1953,0.3477,0.4154,0.3039,0.2876,0.2314,0.0612,0.0185,0.0063,0.0323,0.0136,0.0,0.0,0.0,0.0,0.0,0.0,-0.1703,-0.5643,-0.479,-0.4836,-0.6185,-0.6263,-0.6338,-0.6338,-0.6338,-0.6107,-0.5801,-0.5801,-0.6055,-0.659,-0.6641,-0.7089,-0.7847,-0.74,-0.7264,-0.7236,-0.6759,-0.6534,-0.6588,-0.6588,-0.6588,-0.6588,-0.6588,-0.6588,-0.6588,0.0,0.0,0.0,0.0,0.0,0.0,0.0,0.0,0.0,0.0,0.358,0.358,0.358,0.358,0.358,0.0,0.0,0.0,0.0,0.0,0.0,0.0,0.0,0.0,0.0,0.0,0.0921,0.2764,0.3913,0.4485,0.4508,0.4108,0.3982,0.3928,0.2737,0.3076,0.0,0.0,0.0,0.0,0.0,0.0,0.0,0.0,0.0,0.0,0.4517,0.4517,0.0,0.0,0.0,0.0,0.0,0.0,0.0,0.0,0.4519,0.441,0.407,0.0,0.3134,0.1953,0.2233,0.3077,0.0,0.0,0.319,0.2399,0.2853,0.3193,0.2344,0.3471,0.449,0.4402,0.4604,0.4601,0.4195,0.1733,0.086,0.3139,0.14,0.0,0.0,0.0,0.0,0.0,0.0,-0.0457,-0.1439,-0.3196,-0.4737,-0.5894,-0.6143,-0.6269,-0.6338,-0.6338,-0.6107,-0.5801,-0.5801,-0.5785,-0.5749,-0.6262,-0.6576,-0.6744,-0.6463,-0.6637,-0.7084,-0.6138,-0.6091,-0.6588,-0.6588,-0.6588,-0.6588,-0.6588,-0.6588,-0.6588,0.0,0.0,0.0,0.0,0.0,0.0,0.0,0.0,0.0,0.0,0.0,0.0,0.0,0.0,0.0,0.0,0.0,0.0,0.0,0.0,0.0,0.0,0.0,0.1385,0.0848,0.0957,0.1584,0.2767,0.3946,0.4464,0.4388,0.4472,0.4482,0.4487,0.3633,0.3745,0.4479,0.0,0.0,0.0,0.4519,0.0,0.0,0.0,0.0,0.0,0.4517,0.4517,0.0,0.4517,0.4517,0.4517,0.0,0.0,0.0,0.0,0.4517,0.4517,0.4517,0.4475,0.4315,0.3463,0.3238,0.3463,0.4315,0.0,0.0,0.3403,0.3919,0.4284,0.3473,0.3956,0.456,0.484,0.506,0.4994,0.4519,0.2456,0.1392,0.2353,0.2237,0.1494,0.014,0.0,0.0,0.0,0.0,0.0,0.0,-0.1428,-0.3348,-0.5722,-0.601,-0.6158,-0.6156,-0.6225,-0.6107,-0.5801,-0.5801,-0.5647,-0.5425,-0.5791,-0.5898,-0.5805,-0.5605,-0.5677,-0.5933,-0.5294,-0.5275,-0.5662,-0.5662,-0.5662,-0.5662,-0.5662,-0.5662,-0.5662,0.0,0.0,0.0,0.0,0.0,0.0,0.0,0.0,0.0,0.0,0.0,0.0,0.0,0.0,0.0,0.0,0.0,0.0,0.0,0.0,0.0,0.0,0.0,0.3136,0.2097,0.2312,0.2313,0.2136,0.3671,0.4343,0.4212,0.4399,0.4522,0.4475,0.4475,0.4525,0.4517,0.4517,0.4517,0.4517,0.4517,0.0,0.0,0.0,0.0,0.0,0.0,0.0,0.0,0.4517,0.4517,0.4517,0.4517,0.0,0.0,0.0,0.0,0.0,0.4791,0.4798,0.4805,0.4695,0.4586,0.4532,0.4641,0.4586,0.0,0.4519,0.4477,0.4524,0.4636,0.4557,0.4565,0.484,0.4945,0.4673,0.3728,0.3096,0.2194,0.095,0.2594,0.302,0.0873,0.0299,0.0,0.0,0.0,0.0,0.0,0.0,-0.1511,-0.4828,-0.53,-0.5697,-0.5927,-0.6151,-0.6083,-0.5801,-0.5755,-0.5603,-0.5427,-0.5316,-0.5223,-0.5089,-0.4947,-0.4797,-0.4645,-0.457,-0.4517,-0.4517,-0.4517,-0.4517,-0.4517,-0.4517,-0.4517,-0.4517,0.0,0.0,0.0,0.0,0.0,0.0,0.0,0.0,0.0,0.0,0.0,0.0,0.0,0.0,0.0,0.0,0.0,0.0,0.0,0.0,0.0,0.3581,0.3583,0.3493,0.3309,0.3384,0.3455,0.357,0.4036,0.4238,0.42,0.4395,0.4519,0.452,0.452,0.4519,0.4517,0.4517,0.4517,0.4517,0.4517,0.0,0.0,0.0,0.0,0.0,0.0,0.0,0.0,0.4517,0.4517,0.4517,0.4517,0.0,0.0,0.0,0.0,0.0,0.6095,0.6263,0.6154,0.5492,0.4897,0.4627,0.522,0.4897,0.4519,0.0,0.452,0.4531,0.4549,0.4536,0.4579,0.4697,0.5184,0.5449,0.5109,0.4951,0.4857,0.4624,0.2248,0.1519,0.359,0.152,0.0,0.0,0.0,0.0,0.0,0.0,-0.0287,-0.0882,-0.2627,-0.4277,-0.5719,-0.5922,-0.5976,-0.5798,-0.5549,-0.5473,-0.5418,-0.5101,-0.4974,-0.4943,-0.4791,-0.4638,-0.4551,-0.4529,-0.4517,-0.4517,-0.4517,-0.4517,-0.4517,-0.4517,-0.4517,-0.4517,0.0,0.0,0.0,0.0,0.0,0.0,0.0,0.0,0.0,0.0,0.0,0.0,0.0,0.0,0.0,0.0,0.0,0.0,0.0,0.0,0.0,0.4051,0.4358,0.4272,0.3737,0.378,0.3858,0.3973,0.4208,0.4314,0.4199,0.4394,0.4517,0.4517,0.4517,0.4517,0.4517,0.4517,0.4517,0.4517,0.0,0.0,0.0,0.0,0.0,0.0,0.0,0.0,0.0,0.0,0.5058,0.5113,0.5496,0.0,0.0,0.0,0.0,0.0,0.6532,0.6588,0.664,0.6686,0.5871,0.5001,0.4948,0.4732,0.4517,0.4517,0.4787,0.4978,0.4683,0.492,0.5113,0.4949,0.5171,0.5413,0.5419,0.5396,0.5438,0.5536,0.2967,0.1431,0.2046,0.0852,0.0,0.0,0.0,0.0,0.0,0.0,0.0,0.0,-0.1986,-0.398,-0.5771,-0.5817,-0.5764,-0.5684,-0.555,-0.5398,-0.5231,-0.5096,-0.4945,-0.4792,-0.4721,-0.4604,-0.4517,-0.4517,-0.4517,-0.4517,-0.4517,-0.4517,-0.4517,-0.4517,-0.4517,-0.4517,0.0,0.0,0.0,0.0,0.0,0.0,0.0,0.0,0.0,0.0,0.0,0.0,0.0,0.0,0.0,0.0,0.0,0.0,0.0,0.0,0.5043,0.4432,0.4824,0.4743,0.4066,0.4145,0.4196,0.432,0.4407,0.4373,0.43,0.4411,0.4517,0.4517,0.4517,0.4517,0.4517,0.4517,0.4517,0.4517,0.0,0.0,0.0,0.0,0.0,0.0,0.0,0.0,0.0,0.0,0.0,0.0,0.0,0.0,0.0,0.6804,0.6858,0.6912,0.7074,0.7128,0.7235,0.7616,0.674,0.5599,0.5117,0.4844,0.4679,0.4517,0.4895,0.5207,0.4951,0.5404,0.5718,0.5391,0.5253,0.5304,0.5491,0.555,0.5662,0.5835,0.429,0.2325,0.0234,0.0,0.0,0.0,0.0,0.0,0.0,0.0,0.0,0.0,-0.1515,-0.3466,-0.5805,-0.5748,-0.5676,-0.5588,-0.5484,-0.5326,-0.5128,-0.5059,-0.4904,-0.4691,-0.4691,-0.4604,-0.4517,-0.4517,-0.4517,-0.4517,-0.4517,-0.4517,-0.4517,-0.4517,-0.4517,-0.4517,0.0,0.0,0.0,0.0,0.0,0.0,0.0,0.0,0.0,0.0,0.0,0.0,0.0,0.0,0.0,0.0,0.0,0.0,0.0,0.0,0.5043,0.4432,0.4432,0.4563,0.4798,0.473,0.4815,0.5207,0.4563,0.4326,0.4501,0.4512,0.4517,0.4517,0.4517,0.4517,0.4517,0.4517,0.4517,0.4517,0.4517,0.0,0.0,0.0,0.0,0.0,0.0,0.0,0.0,0.0,0.0,0.0,0.0,0.0,0.675,0.7399,0.7613,0.7777,0.848,0.8643,0.848,0.7833,0.7128,0.6532,0.6477,0.5928,0.5271,0.4625,0.4517,0.4736,0.5344,0.5651,0.5889,0.6069,0.5828,0.5657,0.5942,0.6105,0.6208,0.6242,0.6088,0.4443,0.0391,0.0,0.0,0.0,0.0,0.0,0.0,0.0,0.0,0.0,-0.014,-0.2033,-0.5732,-0.578,-0.5755,-0.5584,-0.5165,-0.5025,-0.5121,-0.4847,-0.4709,-0.4691,-0.4691,-0.4604,-0.4517,-0.4517,-0.4517,-0.4517,-0.4517,-0.4517,-0.4517,-0.4517,-0.4517,-0.4517,0.0,0.0,0.0,0.0,0.0,0.0,0.0,0.0,0.0,0.0,0.0,0.0,0.0,0.0,0.0,0.0,0.0,0.0,0.0,0.6465,0.6121,0.5524,0.5524,0.5497,0.5397,0.4643,0.4429,0.4807,0.4541,0.4409,0.4517,0.4517,0.4732,0.5109,0.5109,0.5386,0.5825,0.5825,0.5825,0.5825,0.5825,0.5932,0.0,0.0,0.0,0.0,0.0,0.0,0.0,0.0,0.7289,0.7345,0.7833,0.7993,0.8046,0.8318,0.8371,0.8427,0.8699,0.8808,0.8752,0.848,0.8156,0.7723,0.6804,0.6367,0.6093,0.5878,0.615,0.6621,0.6915,0.6388,0.5967,0.615,0.5846,0.5661,0.5859,0.602,0.6154,0.6256,0.6273,0.5646,0.4074,0.1544,0.0,0.0,0.0,0.0,0.0,0.0,0.0,0.0,0.0,-0.0683,-0.2181,-0.4589,-0.5342,-0.4349,-0.4949,-0.5133,-0.4994,-0.4884,-0.473,-0.4548,-0.4548,-0.457,-0.4517,-0.4517,-0.4517,-0.4517,-0.4517,-0.4517,-0.4517,-0.4517,-0.4517,-0.4517,0.0,0.0,0.0,0.0,0.0,0.0,0.0,0.0,0.0,0.0,0.0,0.0,0.0,0.0,0.0,0.0,0.0,0.0,0.6979,0.6855,0.6517,0.5919,0.5741,0.5455,0.5123,0.4512,0.4494,0.5089,0.5146,0.5171,0.5171,0.5171,0.5386,0.5871,0.5871,0.6147,0.6588,0.6588,0.6588,0.6588,0.6588,0.675,0.0,0.0,0.0,0.0,0.0,0.0,0.0,0.0,0.8049,0.8156,0.8643,0.8808,0.8808,0.8808,0.8808,0.8808,0.8808,0.8808,0.8808,0.8808,0.0,0.8533,0.7506,0.7128,0.6858,0.6642,0.7182,0.7746,0.7935,0.732,0.6729,0.6678,0.6323,0.6039,0.5858,0.5934,0.6069,0.6176,0.6195,0.6224,0.6285,0.3062,0.068,0.0076,0.0,0.0,0.0,0.0,0.0,0.0,0.0,0.0,0.0,-0.2667,-0.3855,-0.3638,-0.4733,-0.5131,-0.4918,-0.487,-0.4706,-0.4517,-0.4517,-0.4517,-0.4517,-0.4517,-0.4517,-0.4517,-0.4517,-0.4517,-0.4517,-0.4517,-0.4517,-0.4517,0.0,0.0,0.0,0.0,0.0,0.0,0.0,0.0,0.0,0.0,0.0,0.0,0.0,0.0,0.0,0.0,0.0,0.0,0.6979,0.652,0.5962,0.5348,0.4737,0.4209,0.3832,0.4394,0.5287,0.6406,0.6531,0.6588,0.6588,0.6588,0.6588,0.6588,0.6588,0.6588,0.664,0.664,0.664,0.664,0.664,0.7074,0.7616,0.0,0.0,0.0,0.0,0.0,0.0,0.0,0.8808,0.8808,0.8808,0.8808,0.8808,0.8808,0.8808,0.8808,0.8808,0.8808,0.8808,0.8808,0.8808,0.8808,0.8808,0.8209,0.7506,0.675,0.7184,0.7805,0.8175,0.8311,0.8226,0.776,0.7382,0.6791,0.5941,0.593,0.6025,0.603,0.603,0.6095,0.6261,0.4365,0.2262,0.0151,0.0,0.0,0.0,0.0,0.0,0.0,0.0,0.0,0.0,0.0,-0.1225,-0.3555,-0.4458,-0.488,-0.4913,-0.4758,-0.4606,-0.4517,-0.4517,-0.4517,-0.4517,-0.4517,-0.4517,-0.4517,-0.4517,-0.4517,-0.4517,-0.4517,-0.4517,-0.4517,0.0,0.0,0.0,0.0,0.0,0.0,0.0,0.0,0.0,0.0,0.0,0.0,0.0,0.0,0.0,0.0,0.0,0.0,0.6979,0.6855,0.6683,0.6507,0.5953,0.5601,0.5497,0.5834,0.6094,0.6242,0.6473,0.6588,0.6588,0.6588,0.6856,0.7399,0.7399,0.767,0.8156,0.8156,0.8156,0.8156,0.8156,0.8265,0.8427,0.0,0.0,0.0,0.0,0.0,0.0,0.0,0.0,0.0,0.8808,0.8808,0.8906,0.9361,0.9162,0.891,0.9361,0.9159,0.8808,0.8808,0.8808,0.8808,0.8808,0.8646,0.8427,0.8212,0.8473,0.8802,0.8883,0.8808,0.8424,0.7704,0.7123,0.6533,0.5774,0.5693,0.5798,0.6005,0.603,0.6052,0.6108,0.5617,0.3875,0.0286,0.0,0.0,0.0,0.0,0.0,0.0,0.0,0.0,0.0,0.0,-0.0375,-0.1123,-0.3663,-0.496,-0.5013,-0.4776,-0.4606,-0.4517,-0.4517,-0.4517,-0.4517,-0.4517,-0.4517,-0.4517,-0.4517,-0.4517,-0.4517,-0.4517,-0.4517,-0.4517,0.0,0.0,0.0,0.0,0.0,0.0,0.0,0.0,0.0,0.0,0.0,0.0,0.0,0.0,0.0,0.0,0.0,0.0,0.0,0.681,0.6686,0.6686,0.613,0.5962,0.6181,0.6579,0.6818,0.687,0.7181,0.7356,0.7453,0.7453,0.7723,0.8156,0.8156,0.8371,0.8808,0.8808,0.8808,0.8808,0.8808,0.8808,0.8808,0.0,0.0,0.0,0.0,0.0,0.0,0.0,0.0,0.0,0.891,0.9162,0.9566,0.9462,0.9312,0.9211,0.9361,0.911,0.8808,0.8808,0.8808,0.8808,0.8808,0.8808,0.8808,0.8808,0.8948,0.9138,0.9372,0.9282,0.8998,0.8419,0.7997,0.7403,0.6251,0.613,0.6067,0.5832,0.5856,0.5879,0.5944,0.6059,0.4781,0.1467,0.0478,0.0,0.0,0.0,0.0,0.0,0.0,0.0,0.0,0.0,0.0,-0.0,-0.2032,-0.3654,-0.4989,-0.4861,-0.4676,-0.4524,-0.4519,-0.4517,-0.4517,-0.4517,-0.4517,-0.4517,-0.4517,-0.4517,-0.4517,-0.4517,-0.4517,-0.4517,0.0,0.0,0.0,0.0,0.0,0.0,0.0,0.0,0.0,0.0,0.0,0.0,0.0,0.0,0.0,0.0,0.0,0.0,0.0,0.0,0.6264,0.6264,0.5847,0.5855,0.6468,0.6973,0.7541,0.8014,0.8293,0.8524,0.8808,0.8808,0.8808,0.8808,0.8808,0.8857,0.8906,0.8906,0.891,0.8959,0.8959,0.8959,0.8959,0.8959,0.0,0.0,0.0,0.0,0.0,0.0,0.0,0.0,0.9159,0.9814,1.0564,0.9409,0.9413,0.9662,0.9106,0.8906,0.8808,0.8808,0.8808,0.8808,0.8808,0.8808,0.8808,0.8808,0.8851,0.9041,0.9549,0.9709,0.9706,0.9456,0.9452,0.8861,0.7113,0.6912,0.6583,0.5724,0.5589,0.564,0.5769,0.576,0.5047,0.3201,0.1159,0.0,0.0,0.0,0.0,0.0,0.0,0.0,0.0,0.0,0.0,0.0,0.0,-0.1623,-0.4635,-0.4646,-0.4623,-0.448,-0.4524,-0.4519,-0.4519,-0.452,-0.4519,-0.4517,-0.4519,-0.4519,-0.4517,-0.4517,-0.4517,-0.4517,0.0,0.0,0.0,0.0,0.0,0.0,0.0,0.0,0.0,0.0,0.0,0.0,0.0,0.0,0.0,0.0,0.0,0.0,0.0,0.0,0.681,0.681,0.7454,0.8052,0.861,0.8576,0.8681,0.9085,0.8632,0.8524,0.8808,0.8808,0.8808,0.8808,0.8808,0.911,0.9562,0.9562,0.9865,1.0368,1.0368,1.0368,1.0368,1.0368,1.0368,0.0,0.0,0.0,0.0,0.0,0.0,0.0,1.0415,1.0568,1.0868,1.1065,1.0513,0.9865,1.0265,0.9614,0.8808,0.8808,0.8808,0.8808,0.8808,0.8808,0.8808,0.8808,0.9172,0.9462,0.9355,0.9903,1.0099,0.9095,0.9142,0.8755,0.6977,0.6715,0.6441,0.5712,0.5589,0.5603,0.5632,0.5771,0.4939,0.291,0.1079,0.0,0.0,0.0,0.0,0.0,0.0,0.0,0.0,0.0,0.0,0.0,0.0,-0.0953,-0.2756,-0.2763,-0.3436,-0.4494,-0.449,-0.4484,-0.4475,-0.4485,-0.4477,-0.4519,-0.4472,-0.4525,-0.4517,-0.4517,-0.4517,-0.4517,0.0,0.0,0.0,0.0,0.0,0.0,0.0,0.0,0.0,0.0,0.0,0.0,0.0,0.0,0.0,0.0,0.0,0.0,0.0,0.0,0.819,0.8388,0.9036,0.946,0.9596,0.9272,0.9393,0.9858,0.9191,0.9011,0.926,0.8956,0.8956,0.926,0.926,0.9462,0.9814,1.0167,1.0466,1.0813,1.0813,1.0813,1.0813,1.0813,1.0813,1.0813,1.0813,0.0,0.0,0.0,0.0,0.0,0.0,0.0,1.1737,1.1421,1.1061,1.0712,1.0415,0.9814,0.9211,0.8857,0.8808,0.8808,0.8808,0.8808,0.8808,0.8808,0.9051,0.9259,0.919,0.9616,0.9798,0.9292,0.9469,0.9077,0.7352,0.7244,0.6891,0.5672,0.5481,0.5481,0.5481,0.5566,0.4779,0.2815,0.1006,0.0,0.0,0.0,0.0,0.0,0.0,0.0,0.0,0.0,0.0,0.0,0.0,-0.0393,-0.1122,-0.1173,-0.1563,-0.2404,-0.3076,-0.3411,-0.3463,-0.4208,-0.4089,-0.3457,-0.42,-0.4484,-0.4479,-0.4479,-0.4479,-0.4479,0.0,0.0,0.0,0.0,0.0,0.0,0.0,0.0,0.0,0.0,0.0,0.0,0.0,0.0,0.0,0.0,0.0,0.0,0.0,0.0,0.0,1.0037,1.0369,1.0424,1.011,0.9907,1.0043,1.0473,0.9896,0.9795,1.0111,0.9462,0.9462,0.9965,0.9965,1.0064,1.0159,1.065,1.096,1.1162,1.098,1.1005,1.1166,1.1052,1.1065,1.117,1.117,1.117,1.117,1.117,0.0,0.0,0.0,0.0,1.2671,1.1484,1.1471,1.1562,1.0466,0.9965,0.9666,0.8959,0.8808,0.8808,0.8808,0.8808,0.8808,0.8808,0.8848,0.8941,0.9077,0.9193,0.9379,0.9576,0.9853,0.9484,0.7875,0.7825,0.7323,0.571,0.5477,0.5416,0.5325,0.5355,0.4749,0.3306,0.1193,0.0,0.0,0.0,0.0,0.0,0.0,0.0,0.0,0.0,0.0,0.0,0.0,0.0,0.0,0.0,0.0,-0.0056,-0.1284,-0.1841,-0.1897,-0.3192,-0.3134,-0.2287,-0.3302,-0.3869,-0.4096,-0.4096,-0.4096,-0.4096,0.0,0.0,0.0,0.0,0.0,0.0,0.0,0.0,0.0,0.0,0.0,0.0,0.0,0.0,0.0,0.0,0.0,0.0,0.8598,0.0,0.0,1.0637,1.1076,1.121,1.1015,1.1341,1.1239,1.0743,1.0642,1.0919,1.1512,1.0868,1.0564,1.0665,1.0665,1.0965,1.1544,1.1261,1.1723,1.255,1.1803,1.1952,1.2579,1.2163,1.2249,1.2622,1.2622,1.2622,1.2622,1.2622,1.2671,0.0,0.0,0.0,1.2881,1.2671,1.2241,1.1765,1.1566,1.0665,0.9666,0.8959,0.8808,0.8808,0.8808,0.8808,0.8808,0.8808,0.9005,0.9064,0.8905,0.9282,0.9552,0.9279,0.9549,0.9434,0.841,0.7897,0.717,0.6227,0.5665,0.5308,0.5174,0.5294,0.5279,0.5033,0.1914,0.0,0.0,0.0,0.0,0.0,0.0,0.0,0.0,0.0,0.0,0.0,0.0,0.0,0.0,0.0,0.0,-0.0,-0.0224,-0.028,-0.0335,-0.0504,-0.1229,-0.212,-0.1004,-0.1395,-0.2512,-0.2512,-0.2512,-0.2512,0.0,0.0,0.0,0.0,0.0,0.0,0.0,0.0,0.0,0.0,0.0,0.0,0.0,0.0,0.0,0.8357,0.9119,0.9946,1.0762,1.0901,1.1408,1.2462,1.231,1.223,1.2134,1.1938,1.1877,1.1999,1.1575,1.1724,1.2398,1.2098,1.1737,1.1353,1.1096,1.12,1.1463,1.1454,1.1717,1.2175,1.1987,1.2168,1.252,1.2573,1.2715,1.2881,1.2881,1.2881,1.2881,1.2881,1.2881,1.2881,1.2881,0.0,0.0,0.0,1.2662,1.2241,1.1471,1.0513,0.9666,0.8959,0.8808,0.8808,0.8808,0.8808,0.8808,0.8808,0.8908,0.8958,0.8831,0.9018,0.9148,0.9021,0.9242,0.9139,0.8258,0.7712,0.7074,0.6166,0.5503,0.5087,0.5018,0.5077,0.5138,0.5207,0.2929,0.1052,0.006,0.0,0.0,0.0,0.0,0.0,0.0,0.0,0.0,0.0,0.0,0.0,0.0,0.0,0.0,0.0,0.0,0.0,0.0,0.0,-0.0392,-0.0894,-0.028,-0.0392,-0.095,-0.095,-0.095,-0.095,0.0,0.0,0.0,0.0,0.0,0.0,0.0,0.0,0.0,0.0,0.0,0.0,0.0,0.0,0.0,0.0,0.9942,1.1108,1.2588,1.2674,1.3042,1.3753,1.3377,1.2958,1.2613,1.229,1.2241,1.2613,1.2241,1.2349,1.2881,1.2881,1.2613,1.2066,1.1771,1.1638,1.1653,1.1604,1.1753,1.1949,1.2069,1.2253,1.2436,1.281,1.2918,1.2881,1.2881,1.2881,1.2881,1.2881,1.2881,1.2881,1.2881,1.2881,0.0,0.0,0.0,1.2479,1.1349,1.0665,1.0115,0.926,0.9057,0.9012,0.8857,0.8808,0.8808,0.8808,0.8808,0.8808,0.8808,0.8808,0.8755,0.8537,0.8712,0.8508,0.7714,0.7182,0.6681,0.6041,0.531,0.4902,0.4865,0.4896,0.4892,0.4949,0.3878,0.2277,0.0116,0.0,0.0,0.0,0.0,0.0,0.0,0.0,0.0,0.0,0.0,0.0,0.0,0.0,0.0,0.0,0.0,0.0,0.0,0.0,0.0,0.0,0.0,0.0,0.0,0.0,0.0,0.0,0.0,0.0,0.0,0.0,0.0,0.0,0.0,0.0,0.0,0.0,0.0,0.0,0.9399,0.9478,0.9663,1.0104,1.0657,1.1596,1.3081,1.3701,1.3933,1.38,1.3774,0.0,1.1864,1.2501,1.2505,1.1868,1.2505,1.2876,1.2881,1.2881,1.2881,1.2827,1.2803,1.2793,1.2735,1.1924,1.2092,1.2887,1.2178,1.232,1.2957,1.3062,1.2996,1.2881,1.2881,1.2881,1.2881,1.2881,1.2881,1.2881,1.2881,1.2881,1.2798,0.0,0.0,0.0,1.1822,1.1715,1.1362,1.0064,0.9766,0.9562,0.8959,0.8808,0.8808,0.8808,0.8808,0.8808,0.8808,0.8808,0.859,0.7883,0.7788,0.7526,0.6766,0.623,0.5842,0.5844,0.5299,0.4863,0.4718,0.4835,0.4802,0.4524,0.4638,0.3307,0.0168,0.0,0.0,0.0,0.0,0.0,0.0,0.0,0.0,0.0,0.0,0.0,0.0,0.0,0.0,0.0,0.0,0.0,0.0,0.0,0.0,0.0,0.0,0.0,0.0,0.0,0.0,0.0,0.0,0.0,0.0,0.0,0.0,0.0,0.0,0.0,0.0,0.0,0.0,0.0,0.0,1.0971,1.0895,1.0733,1.1126,1.1882,1.312,1.3297,1.3486,1.3768,1.342,1.2997,1.2505,1.2769,1.2774,1.2505,1.2774,1.2739,1.2466,1.2811,1.2787,1.2502,1.2502,1.2333,1.2068,1.1834,1.1725,1.1739,1.2047,1.2557,1.3135,1.3001,1.3187,1.342,1.3065,1.2881,1.2881,1.2881,1.2881,1.2832,1.2549,1.2461,1.2378,1.1929,1.1797,1.1692,1.1173,1.1024,1.0848,1.0226,0.9746,0.9412,0.9415,0.911,0.8808,0.8808,0.8808,0.8808,0.8808,0.8808,0.8537,0.7833,0.7723,0.7453,0.6696,0.6044,0.559,0.559,0.5039,0.4604,0.455,0.4594,0.4582,0.4532,0.4582,0.4079,0.2961,0.106,0.0,0.0,0.0,0.0,0.0,0.0,0.0,0.0,0.0,0.0,0.0,0.0,0.0,0.0,0.0,0.0,0.0,0.0,0.0,0.0,0.0,0.0,0.0,0.0,0.0,0.0,0.0,0.0,0.0,0.0,0.0,0.0,0.0,0.0,0.0,0.0,0.0,0.0,0.0,0.0,1.1212,1.1019,1.1701,1.2436,1.3137,1.3576,1.3873,1.4102,1.37,1.343,1.3195,1.3017,1.2881,1.2881,1.2911,1.2777,1.2483,1.284,1.285,1.2547,1.2553,1.2362,1.2092,1.2008,1.1991,1.2075,1.2666,1.3231,1.3735,1.3547,1.3647,1.3726,1.3329,1.306,1.2929,1.3152,1.2966,1.2612,1.2319,1.1981,1.1758,1.1645,1.1498,1.1281,1.1022,1.0927,1.0885,1.0617,1.0188,0.985,0.979,0.9462,0.9057,0.886,0.8808,0.8808,0.8808,0.8808,0.8537,0.7833,0.7506,0.7071,0.631,0.5601,0.5164,0.5164,0.4787,0.4517,0.4517,0.4517,0.4517,0.4517,0.4524,0.4475,0.4479,0.2625,0.1061,0.0056,0.0,0.0,0.0,0.0,0.0,0.0,0.0,0.0,0.0,0.0,0.0,0.0,0.0,0.0,0.0,0.0,0.0,0.0,0.0,0.0,0.0,0.0,0.0,0.0,0.0,0.0,0.0,0.0,0.0,0.0,0.0,0.0,0.0,1.0317,0.0,0.0,0.0,0.0,0.0,1.0976,1.2342,1.3142,1.3183,1.4661,1.5276,1.4658,1.4658,1.4376,1.3774,1.3195,1.2881,1.2881,1.2981,1.3007,1.2965,1.3016,1.3026,1.2976,1.3068,1.3081,1.2965,1.2586,1.3042,1.3974,1.407,1.4398,1.4825,1.4744,1.4329,1.3862,1.3821,1.3415,1.3017,1.3595,1.3082,1.2195,1.2171,1.1558,1.0972,1.1444,1.1226,1.0981,0.0,0.0,0.0,1.1241,1.115,1.092,1.0023,0.9799,0.9599,0.8956,0.8808,0.8808,0.8808,0.8808,0.859,0.7833,0.7074,0.6367,0.5597,0.4948,0.4517,0.4517,0.4517,0.4517,0.4517,0.4517,0.4517,0.4517,0.4517,0.4522,0.4477,0.4489,0.3081,0.0112,0.0,0.0,0.0,0.0,0.0,0.0,0.0,0.0,0.0,0.0,0.0,0.0,0.0,0.0,0.0,0.0,0.0,0.0,0.0,0.0,0.0,0.0,0.0,0.0,0.0,0.0,0.0,0.0,0.0,0.0,1.0356,1.0921,1.125,0.0,0.0,0.0,1.1404,1.1024,1.1019,1.1547,1.1864,1.2186,1.2515,1.3224,1.3557,1.343,1.3387,1.3339,1.3147,1.2973,1.2881,1.2881,1.3381,1.3193,1.2491,1.3333,1.3337,1.2654,1.2999,1.3166,1.3144,1.3041,1.3173,1.3537,1.3866,1.4584,1.5413,1.4873,1.4875,1.5039,1.4601,1.4055,1.3595,1.3726,1.329,1.2588,1.1943,1.1152,1.0478,1.0601,1.0592,1.0483,1.0601,0.0,0.0,0.0,0.0,0.0,1.062,1.0144,0.9533,0.9515,0.9514,0.9361,0.891,0.8808,0.8752,0.8533,0.745,0.6367,0.5597,0.4948,0.4517,0.4517,0.4517,0.4517,0.4517,0.4517,0.4517,0.4517,0.4517,0.4519,0.4522,0.3795,0.2342,0.0056,0.0,0.0,0.0,0.0,0.0,0.0,0.0,0.0,0.0,0.0,0.0,0.0,0.0,0.0,0.0,0.0,0.0,0.0,0.0,0.0,0.0,0.0,0.0,0.0,0.0,0.0,0.0,0.0,0.0,1.0905,1.0649,1.1287,1.17,0.0,0.0,0.0,1.1446,1.1328,1.1362,1.1681,1.1822,1.197,1.226,1.2887,1.3286,1.3286,1.3286,1.3286,1.3286,1.3017,1.3012,1.3286,1.3636,1.3553,1.3012,1.3716,1.3605,1.2797,1.3088,1.3198,1.3198,1.3198,1.3499,1.3984,1.4268,1.5048,1.598,1.5304,1.5276,1.5543,1.5186,1.4692,1.4195,1.4195,1.3351,1.2229,1.1346,1.0724,1.0283,1.0283,1.0283,1.0283,1.0283,1.0283,1.0386,1.0806,0.0,0.0,1.0475,1.013,0.9627,0.9282,0.932,0.926,0.8857,0.8808,0.8808,0.8808,0.7833,0.6907,0.6468,0.5544,0.4893,0.4893,0.4893,0.4787,0.4517,0.4517,0.4517,0.4517,0.4517,0.4519,0.4524,0.3962,0.3069,0.1899,0.067,0.0,0.0,0.0,0.0,0.0,0.0,0.0,0.0,0.0,0.0,0.0,0.0,0.0,0.0,0.0,0.0,0.0,0.0,0.0,0.0,0.0,0.0,0.0,0.0,0.0,1.0472,1.0472,1.0835,1.1164,1.1094,1.1547,1.187,0.0,1.1367,1.1056,1.0979,1.1328,1.1606,1.1606,1.1973,1.2185,1.2185,1.3118,1.3684,1.3684,1.3684,1.3684,1.3684,1.3152,1.3195,1.3821,1.3948,1.4016,1.4068,1.4162,1.3883,1.3292,0.0,0.0,1.3198,1.3198,1.3835,1.4853,1.4815,1.5482,1.6415,1.5817,1.5628,1.572,1.572,1.5276,1.4703,1.4606,1.3332,1.1614,1.08,1.0464,1.0347,1.0293,1.0283,1.0283,1.0283,1.0283,1.0376,1.0742,1.0799,0.0,0.9909,0.993,0.9803,0.8704,0.8629,0.8822,0.8751,0.8761,0.8771,0.8804,0.8156,0.7723,0.7723,0.6522,0.5594,0.5485,0.5485,0.5218,0.4572,0.4517,0.4517,0.4517,0.4517,0.4522,0.4477,0.4477,0.4482,0.4496,0.1899,0.0391,0.0223,0.0056,0.0,0.0,0.0,0.0,0.0,0.0,0.0,0.0,0.0,0.0,0.0,0.0,0.0,0.0,0.0,0.0,0.0,0.0,0.0,0.0,0.0,0.0,1.1516,1.1516,1.1915,1.206,1.1695,1.206,1.2209,1.1769,1.1583,1.1466,1.1464,1.1552,1.1606,1.1606,1.1973,1.2185,1.2185,1.277,1.306,1.306,1.306,1.306,1.306,1.2973,1.3195,1.3821,1.4288,1.4583,1.4648,1.473,1.445,1.3902,1.3433,1.3198,1.3198,1.3198,1.3814,1.4726,1.4383,1.5082,1.6273,1.5837,1.5952,1.6331,1.6331,1.5605,1.4612,1.4143,1.3447,1.2718,1.2225,1.147,1.0723,1.0381,1.0283,1.0283,1.0283,1.0283,1.0303,1.0386,1.008,0.0,0.9998,0.9757,0.9367,0.8879,0.8846,0.8785,0.8514,0.8457,0.8537,0.8768,0.8156,0.7723,0.7723,0.6964,0.6147,0.5597,0.5485,0.5218,0.4572,0.4517,0.4517,0.4517,0.4517,0.4519,0.452,0.452,0.4525,0.4482,0.3914,0.3013,0.1785,0.0614,0.0,0.0,0.0,0.0,0.0,0.0,0.0,0.0,0.0,0.0,0.0,0.0,0.0,0.0,0.0,0.0,0.0,0.0,0.0,0.0,1.1737,1.1811,1.1811,1.1811,1.2174,1.2431,1.2174,1.236,1.2469,1.2429,1.2146,1.1942,1.1915,1.1738,1.1694,1.1875,1.21,1.2185,1.2185,1.2637,1.2881,1.2881,1.2881,1.2881,1.2881,1.2881,1.3195,1.3821,1.4376,1.4601,1.4417,1.4761,1.4469,1.3634,1.3317,1.3198,1.3232,1.3452,1.4137,1.5052,1.4657,1.521,1.6297,1.6154,1.6277,1.6515,1.6515,1.592,1.5061,1.4586,1.38,1.3081,1.2967,1.2001,1.091,1.1059,1.0719,1.0283,1.0283,1.0283,1.0239,0.9961,0.9681,0.0,0.0,0.8909,0.8704,0.8457,0.8381,0.8389,0.8416,0.8424,0.842,0.8571,0.839,0.8265,0.8265,0.7292,0.6475,0.6091,0.5706,0.5218,0.4572,0.4517,0.4517,0.4517,0.4517,0.4517,0.4517,0.4517,0.452,0.4525,0.4475,0.4139,0.3351,0.2626,0.1843,0.1116,0.1117,0.0727,0.0,0.0,0.0,0.0,0.0,0.0,0.0,0.0,0.0,0.0,0.0,0.0,0.0,0.0,0.0,0.0,1.2066,1.2071,1.2071,1.2071,1.2389,1.2644,1.2644,1.2644,1.2723,1.2928,1.2751,1.2467,1.2111,1.1861,1.191,1.2361,1.2281,1.2301,1.2515,1.2783,1.2928,1.2876,1.2881,1.2881,1.2881,1.2881,1.3195,1.3821,1.4283,1.4428,1.4316,1.4612,1.4287,1.3511,1.3292,1.3267,1.3369,1.3853,1.466,1.5588,1.5286,1.5684,1.6407,1.6378,1.6315,1.6292,1.6193,1.5942,1.5572,1.5211,1.4355,1.3436,1.3496,1.2441,1.1212,1.1618,1.1104,1.0386,1.0303,1.0283,1.0162,0.9637,0.9518,0.9199,0.0,0.0,0.0,0.7869,0.7842,0.7953,0.831,0.8327,0.8307,0.8414,0.8574,0.8669,0.8508,0.7422,0.6642,0.6804,0.6034,0.5271,0.4734,0.4572,0.4517,0.4517,0.4517,0.4517,0.4517,0.4517,0.4517,0.4517,0.4525,0.4475,0.4475,0.4489,0.3865,0.2622,0.2623,0.2009,0.0837,0.0558,0.028,0.0,0.0,0.0,0.0,0.0,0.0,0.0,0.0,0.0,0.0,0.0,0.0,0.0,1.2943,1.3047,1.3047,1.3047,1.3088,1.3129,1.3129,1.3129,1.2979,1.2545,1.322,1.3173,1.1802,1.2007,1.2448,1.295,1.2578,1.2687,1.3549,1.3232,1.2955,1.2915,1.2881,1.2881,1.2881,1.2881,1.3195,1.3821,1.3862,1.4402,1.5397,1.4535,1.4329,1.4676,1.3665,1.3425,1.3868,1.4443,1.5202,1.6031,1.6125,1.6409,1.6768,1.6046,1.5713,1.555,1.5136,1.5277,1.5672,1.5591,1.506,1.4445,1.4141,1.312,1.1924,1.1227,1.0915,1.0757,1.0386,1.0283,1.0162,0.9637,0.9518,0.9199,0.816,0.0,0.7851,0.7592,0.0,0.7742,0.8319,0.0,0.0,0.833,0.8404,0.8215,0.7542,0.6945,0.6858,0.7509,0.6357,0.5487,0.5378,0.4842,0.4517,0.4517,0.4517,0.4517,0.4517,0.4517,0.4517,0.4517,0.4519,0.4519,0.4519,0.4475,0.4423,0.4252,0.4262,0.4154,0.3926,0.2568,0.1227,0.0,0.0,0.0,0.0,0.0,0.0,0.0,0.0,0.0,0.0,0.0,0.0,0.0,1.3163,1.3198,1.3198,1.3198,1.3198,1.3198,1.3198,1.3165,1.2871,1.2072,1.237,1.2362,1.1678,1.1536,1.1684,1.2176,1.2242,1.2403,1.2821,1.2921,1.291,1.292,1.2881,1.2881,1.2881,1.2881,1.3012,1.3286,1.3642,1.409,1.4603,1.4199,1.4147,1.44,1.3839,1.3925,1.4465,1.4824,1.5611,1.6677,1.6575,1.6499,1.637,1.5816,1.541,1.5159,1.5284,1.5488,1.5734,1.6009,1.5732,1.5241,1.5449,1.4041,1.2364,1.2351,1.1495,1.0503,1.0371,1.0283,1.0162,0.9637,0.9518,0.9199,0.816,0.7916,0.7842,0.7538,0.0,0.0,0.0,0.0,0.0,0.0,0.7494,0.7184,0.691,0.6312,0.5963,0.6396,0.5546,0.4893,0.4893,0.4679,0.4517,0.4517,0.4517,0.4517,0.4517,0.4517,0.4517,0.4517,0.4517,0.4517,0.4517,0.4522,0.4524,0.4524,0.4473,0.4479,0.4485,0.3802,0.3186,0.2516,0.0782,0.0,0.0,0.0,0.0,0.0,0.0,0.0,0.0,0.0,0.0,0.0,1.3163,1.3198,1.3198,1.3198,1.3198,1.3163,1.3019,1.2973,1.2595,1.1657,1.1752,1.1755,1.1313,1.1046,1.1104,1.1589,1.1895,1.2188,1.2422,1.2745,1.2936,1.2876,1.2881,1.2881,1.2881,1.2881,1.2881,1.2881,1.3505,1.3925,0.0,0.0,0.0,1.4317,1.3904,1.4065,1.4749,1.5268,1.6178,1.7261,1.7065,1.6524,1.5766,1.5365,1.5043,1.4842,1.5408,1.56,1.5743,1.6262,1.6053,1.5682,1.6101,1.4812,1.3184,1.3488,1.2533,1.1271,1.0829,1.0724,1.0494,0.9506,0.9279,0.8999,0.7901,0.7728,0.7731,0.7555,0.758,0.0,0.0,0.0,0.7398,0.7476,0.0,0.6595,0.6786,0.5986,0.5449,0.5745,0.5167,0.4679,0.4517,0.4517,0.4517,0.4517,0.4517,0.4517,0.4517,0.4517,0.4517,0.4517,0.4517,0.4517,0.4517,0.4517,0.4517,0.4517,0.4517,0.4522,0.4473,0.4473,0.448,0.4378,0.2177,0.1004,0.0558,0.0168,0.0,0.0,0.0,0.0,0.0,0.0,0.0,0.0112,1.3123,1.3198,1.3198,1.3198,1.3198,1.3053,1.2573,1.2571,1.2213,1.1168,1.1938,1.2019,1.0518,1.0713,1.1218,1.1765,1.1748,1.2095,1.3013,1.3007,1.2965,1.291,1.2881,1.2881,1.2881,1.2881,1.2881,1.2881,1.3505,1.4091,0.0,0.0,0.0,0.0,1.3716,1.3688,1.4605,1.5895,1.6936,1.769,1.7667,1.6657,1.5102,1.4683,1.4525,1.4568,1.5106,1.5385,1.5596,1.614,1.5978,1.5588,1.5626,1.5168,1.4569,1.4192,1.4028,1.3664,1.2171,1.1755,1.1241,0.9242,0.872,0.8427,0.7269,0.7288,0.75,0.7506,0.7705,0.7872,0.7878,0.7692,0.7595,0.7848,0.7245,0.0,0.0,0.6224,0.5753,0.6477,0.5928,0.5218,0.4572,0.4517,0.4517,0.4517,0.4517,0.4517,0.4517,0.4517,0.4517,0.4517,0.4517,0.4517,0.4517,0.4517,0.4517,0.4517,0.4517,0.4517,0.4517,0.4517,0.4524,0.4479,0.4423,0.3519,0.2007,0.0614,0.0,0.0,0.0,0.0,0.0,0.0,0.0,0.0393,1.3163,1.3198,1.3198,1.3198,1.3198,1.3047,1.2579,1.2506,1.2298,1.1601,1.2136,1.2065,1.0888,1.1175,1.138,1.1216,1.1694,1.2173,1.2458,1.2757,1.2907,1.292,1.2881,1.2881,1.2881,1.2881,1.2881,1.2881,1.3104,1.351,0.0,0.0,0.0,0.0,1.3874,1.4206,1.5221,1.5938,1.6804,1.7652,1.6941,1.6219,1.5514,1.5066,1.4721,1.4577,1.5118,1.516,1.5036,1.5577,1.572,1.5658,1.5658,1.5308,1.4881,1.4759,1.4171,1.3499,1.2997,1.2348,1.1589,1.0517,0.9731,0.8954,0.7859,0.7817,0.7854,0.7301,0.7575,0.7866,0.7662,0.7037,0.6558,0.6645,0.568,0.501,0.0,0.5009,0.4856,0.502,0.4888,0.4734,0.4517,0.4377,0.436,0.451,0.4375,0.4362,0.4512,0.4517,0.4517,0.4517,0.4517,0.4517,0.4517,0.4517,0.4517,0.4517,0.4517,0.4517,0.4517,0.4517,0.4412,0.4331,0.4434,0.4202,0.3689,0.3161,0.1788,0.0112,0.1061,0.0839,0.0,0.0,0.0,0.0448,1.2943,1.2943,1.3012,1.3163,1.2908,1.2656,1.2508,1.2204,1.1915,1.1811,1.1915,1.1721,1.1089,1.1137,1.108,1.0729,1.1489,1.1992,1.1992,1.2549,1.2881,1.2881,1.2881,1.3017,1.3243,1.3017,1.3022,1.3243,1.3243,1.3428,0.0,0.0,0.0,0.0,1.3947,1.4365,1.52,1.6077,1.6786,1.727,1.6579,1.6229,1.6084,1.5793,1.5496,1.53,1.5439,1.5496,1.5607,1.589,1.6002,1.6023,1.6217,1.5921,1.5544,1.5544,1.5043,1.4363,1.3807,1.3192,1.2412,1.1217,1.0447,0.9648,0.8512,0.8468,0.852,0.7833,0.7789,0.7879,0.7881,0.689,0.6096,0.6179,0.5092,0.4237,0.0,0.4502,0.4595,0.4183,0.4451,0.4628,0.4362,0.4683,0.4752,0.4433,0.4558,0.4629,0.4512,0.4517,0.4517,0.4517,0.4517,0.4517,0.4517,0.4517,0.4438,0.4385,0.4385,0.4358,0.4304,0.4304,0.4255,0.4122,0.4272,0.4318,0.4351,0.4461,0.3357,0.1594,0.1444,0.151,0.1459,0.0392,0.0,0.0336,1.2502,1.2508,1.2685,1.3129,1.2431,1.1999,1.2431,1.1684,1.1244,1.1774,1.1394,1.1089,1.1089,1.0654,1.0356,1.0356,1.1092,1.1582,1.1606,1.2368,1.2856,1.2881,1.2881,1.3195,1.3774,1.3195,1.3195,1.3821,1.3753,1.3793,0.0,0.0,0.0,0.0,1.3929,1.4091,1.4609,1.6305,1.6903,1.6712,1.6749,1.6741,1.6712,1.6749,1.6786,1.6726,1.6099,1.6413,1.707,1.6958,1.6714,1.6593,1.7107,1.6889,1.6515,1.6515,1.6515,1.6182,1.463,1.4183,1.3641,1.1479,1.0892,1.0512,0.9286,0.9232,0.9335,0.9042,0.8428,0.8113,0.8457,0.7218,0.6264,0.6519,0.5477,0.4532,0.4069,0.4723,0.4964,0.4088,0.4647,0.4835,0.4143,0.5316,0.5627,0.4351,0.5009,0.5206,0.4506,0.4513,0.4572,0.4572,0.4517,0.4519,0.4572,0.4519,0.439,0.4195,0.4195,0.4115,0.4019,0.4019,0.4016,0.4009,0.4016,0.4016,0.4022,0.4355,0.449,0.4191,0.1323,0.1961,0.4067,0.1119,0.0112,0.0392,1.2502,1.2797,1.3053,1.317,1.272,1.236,1.2467,1.2282,1.2168,1.2282,1.2502,1.2496,1.2168,1.1695,1.125,1.0873,1.1,1.1216,1.1582,1.2085,1.2544,1.2866,1.2881,1.3195,1.3774,1.3195,1.3195,1.3821,1.299,1.2813,1.3199,0.0,0.0,0.0,1.3382,1.3802,1.455,1.5508,1.6222,1.6749,1.7242,1.7145,1.6764,1.7249,1.7742,1.8119,1.746,1.7155,1.7084,1.7064,1.6801,1.6519,1.6672,1.6615,1.6515,1.6515,1.6515,1.6398,1.5991,1.535,1.4532,1.3563,1.2371,1.1286,1.0561,1.0242,1.0038,0.9722,0.9424,0.9096,0.8589,0.7188,0.6053,0.5831,0.4954,0.4335,0.4381,0.4543,0.452,0.4051,0.4548,0.4958,0.4943,0.5298,0.5379,0.502,0.5215,0.5033,0.4302,0.4882,0.5218,0.5218,0.4787,0.4734,0.5218,0.4734,0.439,0.4195,0.4195,0.4115,0.4019,0.4019,0.3958,0.3856,0.397,0.3955,0.387,0.4143,0.437,0.4448,0.3636,0.3347,0.313,0.0839,0.1401,0.3257,1.2174,1.2726,1.3198,1.3198,1.3138,1.3051,1.2832,1.2615,1.2579,1.2797,1.2867,1.2797,1.2544,1.1878,1.1319,1.1014,1.093,1.1016,1.126,1.187,1.2344,1.2583,1.3047,1.3557,1.4195,1.3836,1.3831,1.419,1.3368,1.2947,1.3017,0.0,0.0,0.0,1.3408,1.3868,1.4554,1.5321,1.6213,1.7145,1.7227,1.7384,0.0,1.7973,1.856,1.9084,1.8717,1.8285,1.7869,1.781,1.7393,1.6904,1.7135,1.6898,1.6515,1.6515,1.6515,1.6429,1.6188,1.5696,1.511,1.4553,1.3729,1.2866,1.2258,1.1762,1.1408,1.1225,1.0543,0.9914,0.9553,0.7794,0.6029,0.4925,0.4383,0.4153,0.4167,0.4228,0.416,0.3863,0.4451,0.4965,0.5119,0.5574,0.5809,0.5602,0.5949,0.5885,0.5292,0.5709,0.598,0.598,0.5605,0.5441,0.5485,0.5109,0.4674,0.4097,0.4097,0.4036,0.3827,0.3827,0.378,0.3704,0.379,0.3778,0.3722,0.4022,0.4209,0.4401,0.4452,0.3741,0.262,0.2124,0.2633,0.3477,1.1884,1.2615,1.3198,1.3198,1.3581,1.3742,1.326,1.2902,1.2826,1.3157,1.2832,1.2579,1.2508,1.1689,1.1089,1.1019,1.088,1.085,1.0903,1.1626,1.2064,1.218,1.3072,1.395,1.4703,1.4606,1.4606,1.4703,1.4061,1.3431,0.0,0.0,0.0,0.0,1.3608,1.4098,1.4682,1.5543,1.6608,1.7652,1.7167,1.7652,1.8717,1.8799,1.9181,1.9682,1.9682,1.9406,1.8963,1.8791,1.8134,1.747,1.786,1.7312,1.6515,1.6515,1.6515,1.638,1.5864,1.5726,1.5588,1.4966,1.4744,1.4555,1.3851,1.3248,1.2831,1.2831,1.159,1.0565,1.07,0.8599,0.6241,0.4315,0.4124,0.4179,0.4184,0.4189,0.4114,0.3808,0.4473,0.0,0.4861,0.5873,0.6362,0.5968,0.6773,0.7046,0.6503,0.6648,0.6735,0.6709,0.6627,0.6364,0.5812,0.5679,0.5125,0.4264,0.4195,0.4033,0.3709,0.3709,0.3667,0.358,0.358,0.358,0.3604,0.3899,0.41,0.4277,0.4445,0.3694,0.2676,0.3979,0.3638,0.2678,1.2282,1.2832,1.3198,1.3198,1.3581,1.3742,1.326,1.3446,1.3541,1.3232,1.3129,1.2943,1.2538,1.1993,1.1473,1.1057,1.0648,1.0542,1.0889,1.105,1.1465,1.2151,1.2388,1.3176,1.4646,1.4195,1.419,1.4703,1.3374,1.2637,1.241,0.0,1.2225,1.265,1.3116,1.4065,1.5379,1.621,1.6988,1.7727,1.8186,1.85,1.8762,1.9301,1.9585,1.9682,1.9682,1.9646,1.9508,1.9031,1.8443,1.79,1.7544,1.6993,1.6515,1.6515,1.6515,1.6479,1.638,1.6337,1.6194,1.5594,1.5056,1.456,1.3899,1.3314,1.2856,1.2856,1.1915,1.0932,1.0531,0.8679,0.674,0.5278,0.5173,0.5436,0.6048,0.559,0.5153,0.4844,0.4975,0.4916,0.4511,0.5465,0.5999,0.5751,0.672,0.6823,0.5741,0.6856,0.7412,0.7206,0.6815,0.6856,0.7286,0.6498,0.5918,0.5634,0.5363,0.4881,0.4262,0.4262,0.4007,0.358,0.358,0.358,0.3604,0.3899,0.4165,0.445,0.4513,0.4361,0.4127,0.4421,0.4304,0.4127,1.2354,1.2685,1.3006,1.348,1.3934,1.4058,1.3648,1.3927,1.396,1.3295,1.3198,1.3123,1.2908,1.2216,1.1695,1.1436,1.0731,1.0366,1.0571,1.0786,1.1099,1.1523,1.2273,1.306,1.3857,1.4461,1.4589,1.4236,1.361,1.2965,1.2282,1.2228,1.2282,1.2556,1.3831,1.493,1.5858,1.6834,1.76,1.8261,1.8583,1.8912,1.9241,1.9563,1.9682,1.9637,1.9301,1.9181,1.9103,1.863,1.8304,1.7965,1.715,1.6718,1.6515,1.6515,1.6515,1.6515,1.6515,1.6281,1.5958,1.5676,1.5147,1.4606,1.4329,1.3779,1.3377,1.3377,1.2359,1.1076,0.9659,0.8124,0.6809,0.5978,0.561,0.567,0.6413,0.6197,0.5829,0.5464,0.5415,0.5248,0.49,0.5321,0.5769,0.6142,0.682,0.7079,0.6778,0.7604,0.7992,0.7863,0.7668,0.7526,0.7474,0.7033,0.6436,0.5756,0.5558,0.5115,0.4389,0.4389,0.4092,0.358,0.358,0.3622,0.3714,0.4014,0.4267,0.4517,0.4524,0.4522,0.4517,0.4524,0.4522,0.4517,1.2591,1.2807,1.3051,1.3888,1.4374,1.4501,1.4091,1.431,1.4181,1.3295,1.3198,1.3163,1.3053,1.2282,1.1737,1.1621,1.0802,1.0283,1.0283,1.0591,1.0815,1.0903,1.2235,1.3065,1.3299,1.4825,1.5135,1.4179,1.4138,1.3613,1.2685,1.264,1.2764,1.3026,1.4607,1.5579,1.6178,1.723,1.7988,1.8523,1.8799,1.9061,1.9278,1.942,1.939,1.9203,1.868,1.85,1.8395,1.7855,1.7747,1.7675,1.6711,1.6348,1.6283,1.6283,1.6288,1.6297,1.6169,1.5879,1.5537,1.527,1.4869,1.4474,1.434,1.3967,1.3595,1.3595,1.255,1.0906,0.8733,0.7706,0.7046,0.655,0.6065,0.6013,0.6582,0.6533,0.6311,0.6041,0.5844,0.569,0.5496,0.53,0.5535,0.6446,0.6842,0.7251,0.7782,0.8176,0.8347,0.8283,0.8404,0.8177,0.755,0.7443,0.6927,0.5914,0.5866,0.5385,0.4607,0.4607,0.4222,0.3581,0.3612,0.3724,0.3907,0.4097,0.4333,0.4517,0.4517,0.4517,0.4517,0.4517,0.4517,0.4517,1.3589,1.3762,1.3921,1.4367,1.4783,1.4914,1.4501,1.447,1.4181,1.3295,1.3198,1.3053,1.2615,1.2102,1.1584,1.1132,1.0616,1.0283,1.0283,1.0356,1.0513,1.0889,1.1943,1.3006,1.3975,1.5063,1.5537,1.5448,1.456,1.4043,1.3902,1.339,1.362,1.448,1.4577,1.5145,1.6178,1.723,1.7727,1.7884,1.9114,1.8919,1.7936,1.8568,1.8425,1.7869,1.7809,1.7779,1.765,1.6615,1.6601,1.693,1.6328,1.5888,1.5604,1.5604,1.5677,1.5651,1.5097,1.5286,1.5359,1.4226,1.3909,1.3737,1.32,1.3017,1.2968,1.2968,1.1886,1.0234,0.8153,0.8252,0.8193,0.6822,0.7095,0.7525,0.7579,0.6985,0.6655,0.6926,0.6379,0.6,0.6044,0.5249,0.5194,0.624,0.6521,0.6917,0.7508,0.8108,0.8253,0.7935,0.849,0.8589,0.8276,0.8006,0.7655,0.7324,0.7018,0.6273,0.5219,0.5219,0.4615,0.3587,0.3715,0.3938,0.4155,0.4184,0.4333,0.4517,0.4517,0.4517,0.4517,0.4517,0.4517,0.4517,1.3697,1.4139,1.4614,1.5325,1.5594,1.5563,1.517,1.4768,1.431,1.3813,1.3433,1.3129,1.2943,1.2252,1.1847,1.1872,1.1169,1.072,1.072,1.072,1.0802,1.0936,1.1657,1.2361,1.3044,1.4116,1.4457,1.4047,1.3702,1.3569,1.3569,1.3645,1.4369,1.5547,1.5898,1.6225,1.6517,1.7342,1.769,1.7742,1.8298,1.8194,1.772,1.7988,1.7921,1.7645,1.7242,1.7107,1.6971,1.6187,1.6354,1.6702,1.5596,1.5379,1.5447,1.5197,1.5171,1.5153,1.4893,1.4502,1.4115,1.3859,1.3299,1.2864,1.2866,1.2881,1.2881,1.2881,1.1792,1.0309,0.8679,0.8567,0.8705,0.8544,0.8734,0.9041,0.9474,0.8806,0.8243,0.818,0.7413,0.6971,0.7164,0.6349,0.6134,0.6921,0.6683,0.6656,0.7068,0.7724,0.8133,0.8196,0.807,0.8036,0.811,0.7802,0.7498,0.7198,0.7078,0.6595,0.583,0.583,0.5469,0.4891,0.5038,0.5037,0.4875,0.4971,0.4785,0.4517,0.4517,0.4517,0.4517,0.4517,0.4517,0.457,1.4068,1.453,1.5079,1.5877,1.6152,1.6108,1.5659,1.527,1.4822,1.4302,1.3779,1.3471,1.3471,1.2597,1.2144,1.2467,1.1721,1.1164,1.1014,1.1169,1.1169,1.1019,1.1733,1.2346,1.2652,1.3714,1.4014,1.3581,1.3605,1.3802,1.4192,1.4504,1.526,1.6351,1.6463,1.6478,1.6473,1.713,1.7287,1.7184,1.754,1.7466,1.7169,1.7331,1.7287,1.7086,1.6592,1.6435,1.6353,1.5948,1.6157,1.638,1.5201,1.499,1.5118,1.4739,1.4644,1.4592,1.4204,1.3678,1.3178,1.3162,1.2659,1.2314,1.2622,1.2788,1.2827,1.2613,1.1787,1.0767,0.9614,0.9329,0.9411,0.9732,0.9919,1.0109,1.0434,0.9803,0.919,0.8919,0.8,0.7517,0.7862,0.7197,0.6994,0.7548,0.722,0.7028,0.696,0.7837,0.8397,0.8476,0.823,0.8022,0.7882,0.7622,0.7318,0.6979,0.6979,0.6729,0.6181,0.6004,0.5867,0.5789,0.5952,0.5889,0.5683,0.5543,0.5216,0.4787,0.4572,0.4517,0.4517,0.4517,0.4625,0.484,1.4998,1.5074,1.5232,1.5719,1.6286,1.6495,1.5882,1.6055,1.5855,1.4667,1.4273,1.4079,1.4079,1.3143,1.2502,1.2502,1.2066,1.1584,1.1014,1.151,1.1542,1.1019,1.2461,1.3281,1.3287,1.4347,1.4871,1.4871,1.4673,1.5241,1.646,1.6325,1.6473,1.684,1.564,1.5374,1.5851,1.645,1.6353,1.5933,1.7206,1.6952,1.5896,1.648,1.6353,1.5821,1.5814,1.5814,1.5814,1.5799,1.5814,1.5727,1.5246,1.4828,1.4427,1.4046,1.3994,1.3859,1.274,1.2821,1.2935,1.191,1.1904,1.2185,1.219,1.2573,1.2666,1.1972,1.1814,1.1566,1.0914,1.0767,1.0543,0.9838,1.0324,1.0543,0.9838,0.9355,0.9052,0.8915,0.7892,0.7369,0.7862,0.7492,0.7422,0.7972,0.8274,0.8141,0.7442,0.867,0.9178,0.8717,0.9156,0.8884,0.7933,0.7622,0.7318,0.6979,0.6979,0.6729,0.6179,0.5569,0.555,0.6021,0.5978,0.623,0.6529,0.5814,0.5485,0.5433,0.4732,0.4517,0.4517,0.4517,0.4893,0.5485,1.5544,1.5898,1.6239,1.6405,1.657,1.6545,1.6069,1.5715,1.5529,1.5702,1.4951,1.4572,1.5125,1.3568,1.2615,1.2943,1.2544,1.2204,1.2018,1.2174,1.221,1.2018,1.2476,1.2896,1.323,1.3559,1.3753,1.3753,1.3957,1.4774,1.6163,1.6536,1.675,1.6767,1.6354,1.6055,1.5814,1.5987,1.5964,1.5836,1.6226,1.6173,1.5821,1.6002,1.5986,1.5799,1.5799,1.5799,1.5799,1.5799,1.558,1.5262,1.4814,1.4596,1.4374,1.3648,1.3229,1.2932,1.2517,1.2052,1.1681,1.1621,1.1714,1.1855,1.2158,1.2568,1.2666,1.1967,1.1814,1.1616,1.0914,1.1162,1.1408,1.1186,1.1774,1.205,1.1501,1.074,1.0124,0.9765,0.8834,0.8415,0.8926,0.8693,0.8399,0.8147,0.8637,0.8717,0.819,0.9082,0.9647,0.9735,0.9117,0.8722,0.8566,0.7633,0.7114,0.6979,0.6979,0.6894,0.6735,0.6793,0.6988,0.7305,0.7542,0.7255,0.6586,0.6367,0.5658,0.4787,0.4572,0.4787,0.5164,0.5164,0.5655,0.631,1.5799,1.6099,1.6346,1.6346,1.6547,1.653,1.6049,1.586,1.578,1.5822,1.523,1.4908,1.5228,1.4065,1.3257,1.3192,1.2943,1.2691,1.2502,1.2685,1.2685,1.2502,1.2685,1.2902,1.3198,1.3357,1.3452,1.3452,1.4278,1.5215,1.6285,1.6665,1.6792,1.6704,1.645,1.6151,1.5799,1.5799,1.5799,1.5799,1.5799,1.5799,1.5799,1.5799,1.5799,1.5799,1.5799,1.5799,1.5799,1.5799,1.5485,1.5036,1.4627,1.4406,1.4123,1.3425,1.2873,1.246,1.2214,1.1616,1.1002,1.1102,1.1243,1.1475,1.209,1.2568,1.2774,1.2295,1.2187,1.2084,1.1688,1.1936,1.2187,1.2187,1.2266,1.2282,1.2219,1.1245,1.0426,1.0129,0.9431,0.9039,0.9199,0.925,0.9073,0.8704,0.9273,0.9481,0.9176,0.9789,1.0109,1.0069,0.9624,0.9148,0.8697,0.7785,0.7238,0.6979,0.6979,0.6979,0.6992,0.7328,0.7639,0.7898,0.8247,0.8014,0.7399,0.713,0.6475,0.566,0.5389,0.555,0.5925,0.5925,0.6362,0.7074,1.5799,1.5799,1.5799,1.5799,1.6271,1.6443,1.5896,1.6391,1.6448,1.535,1.5279,1.5143,1.4644,1.4554,1.4214,1.3357,1.326,1.3047,1.2579,1.2943,1.3019,1.2579,1.2984,1.3232,1.3267,1.3675,1.3927,1.3993,1.536,1.6242,1.6644,1.6644,1.6644,1.6614,1.6039,1.5799,1.5799,1.5799,1.5799,1.5799,1.5799,1.5799,1.5799,1.5799,1.5799,1.5799,1.5799,1.5799,1.5799,1.5799,1.5485,1.4975,1.4627,1.4214,1.3802,1.3329,1.2832,1.236,1.1926,1.1394,1.0835,1.039,1.062,1.1167,1.1952,1.2544,1.2876,1.2842,1.2856,1.2881,1.2881,1.2881,1.2881,1.2881,1.2054,1.1565,1.2044,1.0913,1.0047,1.0062,0.974,0.9319,0.8837,0.9279,0.9532,0.9519,1.0004,1.0298,1.0327,1.0644,1.0577,1.0007,1.0492,1.0025,0.8444,0.8077,0.7617,0.6979,0.6979,0.6979,0.6992,0.7328,0.7639,0.7898,0.8247,0.8537,0.8646,0.7993,0.767,0.756,0.6858,0.6642,0.6696,0.6696,0.7128,0.7777,1.5799,1.5799,1.5799,1.5799,1.5933,1.5971,1.5821,1.5936,1.6128,1.6291,1.5949,1.5679,1.5716,1.526,1.4752,1.4246,1.3901,1.3547,1.3088,1.3123,1.3163,1.3047,1.3123,1.3357,1.3742,1.3835,1.4214,1.4814,1.5156,1.5585,1.6002,1.6002,1.6002,1.6002,1.5866,1.5799,1.5799,1.5799,1.5799,1.5799,1.5799,1.5799,1.5799,1.5799,1.5799,1.5799,1.5799,1.5799,1.5799,1.5799,1.5292,1.4627,1.4533,1.4214,1.3802,1.3329,1.2615,1.1957,1.1811,1.1142,1.0428,1.0322,1.0891,1.1508,1.167,1.2319,1.2788,1.2456,1.2651,1.2881,1.2881,1.2881,1.2881,1.2881,1.2054,1.1324,1.1166,1.0197,0.9528,0.9609,0.9577,0.9597,0.9878,1.004,1.0049,0.9815,0.992,1.014,1.0492,1.0919,1.0967,1.0684,1.0758,1.0418,0.9679,0.8486,0.7617,0.6979,0.6979,0.6979,0.6992,0.7328,0.7639,0.7898,0.8247,0.8223,0.794,0.7777,0.7345,0.6858,0.6642,0.6966,0.7453,0.7453,0.7883,0.8537,1.5799,1.5799,1.5799,1.5799,1.5799,1.5799,1.5799,1.5799,1.5933,1.6256,1.5987,1.5839,1.5963,1.5624,1.5262,1.4814,1.4406,1.4058,1.3802,1.3615,1.3615,1.3802,1.3615,1.3742,1.4149,1.4342,1.4783,1.5418,1.5418,1.5544,1.5799,1.5799,1.5799,1.5799,1.5799,1.5799,1.5799,1.5799,1.5799,1.5799,1.5799,1.5799,1.5799,1.5799,1.5799,1.5799,1.5799,1.5799,1.5799,1.5799,1.5352,1.4783,1.4783,1.4501,1.4123,1.3868,1.2985,1.2037,1.1842,1.1067,1.0283,1.0283,1.0776,1.1361,1.1557,1.209,1.2573,1.2539,1.2715,1.2881,1.2881,1.2881,1.2817,1.2612,1.1771,1.1062,1.0883,0.9789,0.9221,0.9788,0.9642,0.9716,1.0244,1.0283,1.0253,1.0107,1.0085,1.0137,1.0275,1.0984,1.132,1.1221,1.1361,1.1016,1.0107,0.8653,0.7742,0.7405,0.715,0.7091,0.7235,0.7538,0.7842,0.815,0.8444,0.8449,0.8209,0.8209,0.794,0.7616,0.7616,0.7833,0.8209,0.8209,0.848,0.8808,1.5885,1.582,1.5799,1.5799,1.5799,1.5799,1.5799,1.5799,1.5799,1.5799,1.5799,1.5799,1.5799,1.5799,1.5639,1.5232,1.4883,1.4627,1.4501,1.4181,1.4149,1.4501,1.4181,1.4181,1.4596,1.4975,1.5389,1.5799,1.5799,1.5799,1.5799,1.5799,1.5799,1.5799,1.5799,1.5827,1.5877,1.5827,1.5827,1.5877,1.5877,1.5856,1.5799,1.5856,1.5848,1.5799,1.5799,1.5799,1.5799,1.5799,1.5485,1.5104,1.5104,1.4883,1.4596,1.4533,1.3657,1.2583,1.2037,1.1094,1.0283,1.0283,1.0596,1.0986,1.1341,1.1763,1.2212,1.252,1.269,1.2778,1.2778,1.2832,1.2711,1.2232,1.1383,1.0758,1.0709,0.9553,0.9079,1.004,0.976,0.9716,1.0244,1.0283,1.0283,1.0283,1.0283,1.021,1.0038,1.1003,1.1621,1.161,1.1952,1.1428,1.0021,0.8719,0.8029,0.7949,0.7397,0.7291,0.759,0.7809,0.8093,0.839,0.8634,0.8768,0.8808,0.8808,0.8808,0.8808,0.8808,0.8808,0.8808,0.8808,0.8808,0.8808,1.6171,1.5983,1.5799,1.5799,1.5799,1.5799,1.5799,1.5799,1.5799,1.5799,1.5799,1.5799,1.5799,1.5799,1.577,1.5704,1.5639,1.5292,1.4564,1.4438,1.4438,1.4501,1.4438,1.4596,1.5006,1.5448,1.5733,1.5799,1.5799,1.5799,1.5799,1.5799,1.5799,1.5799,1.5799,1.5962,1.6183,1.5934,1.5955,1.6219,1.6219,1.606,1.5827,1.6108,1.606,1.5799,1.5799,1.5799,1.5799,1.5799,1.5485,1.5104,1.5104,1.5066,1.4944,1.4596,1.4326,1.3841,1.2618,1.1324,1.0283,1.0283,1.0596,1.0835,1.0547,1.1136,1.1621,1.1274,1.1811,1.2329,1.2329,1.2632,1.2647,1.1997,1.1264,1.0584,0.9977,0.9215,0.8922,0.9558,0.9558,0.9716,1.0244,1.0283,1.0283,1.0283,1.0283,1.0378,1.048,1.1208,1.165,1.1762,1.1714,1.1032,0.9618,0.9127,0.8704,0.8245,0.7891,0.7769,0.7859,0.7862,0.8093,0.8377,0.842,0.8581,0.8808,0.8808,0.8808,0.8808,0.8808,0.8808,0.8808,0.8808,0.8808,0.8808,1.6535,1.6448,1.6355,1.6355,1.6355,1.6355,1.6355,1.6355,1.6355,1.6355,1.6355,1.6266,1.6088,1.606,1.6011,1.5835,1.5799,1.5639,1.5225,1.4975,1.4944,1.5195,1.4975,1.5036,1.5485,1.5704,1.5799,1.5799,1.5799,1.5877,1.6067,1.5877,1.5913,1.606,1.606,1.6171,1.6293,1.632,1.6429,1.6581,1.6581,1.6482,1.6348,1.6509,1.6375,1.606,1.606,1.5955,1.5799,1.5799,1.5675,1.5485,1.5485,1.5485,1.5448,1.5262,1.4502,1.3519,1.2653,1.1766,1.1029,1.0764,1.0801,1.0884,1.069,1.0923,1.1216,1.1255,1.1777,1.2112,1.1914,1.2231,1.2275,1.1455,1.1063,1.0653,1.0084,0.95,0.9324,0.9883,0.9681,0.9716,1.0244,1.0283,1.0283,1.0283,1.004,0.9853,0.9782,1.0308,1.0725,1.1045,1.164,1.1595,1.0979,1.0316,0.9678,0.9054,0.8632,0.8334,0.817,0.817,0.833,0.8607,0.8607,0.8684,0.8808,0.8808,0.8808,0.8808,0.8808,0.8808,0.8808,0.8808,0.8808,0.8857,1.6909,1.6858,1.6789,1.6789,1.6789,1.6789,1.6789,1.6789,1.6789,1.6789,1.6789,1.6659,1.6355,1.6293,1.6171,1.5827,1.5799,1.5799,1.5799,1.5448,1.5418,1.577,1.5448,1.5418,1.5799,1.5799,1.5827,1.5906,1.5906,1.6088,1.6402,1.6136,1.6163,1.6429,1.6429,1.6448,1.6546,1.6704,1.6841,1.6909,1.6909,1.6866,1.6823,1.6892,1.6712,1.6402,1.632,1.6136,1.5898,1.5827,1.5799,1.5799,1.5799,1.5799,1.5799,1.5799,1.4598,1.3138,1.2692,1.2199,1.1658,1.1132,1.1014,1.0961,1.0804,1.0762,1.0854,1.1234,1.1616,1.1816,1.147,1.1772,1.1806,1.0951,1.0889,1.0755,1.0266,0.99,0.9839,1.0239,0.9922,0.9843,1.0244,1.0283,1.0283,1.0283,0.9922,0.9609,0.9441,0.9726,1.0174,1.0731,1.1691,1.2183,1.2075,1.1272,1.0605,1.0048,0.9396,0.8962,0.872,0.8572,0.8597,0.8808,0.8808,0.8808,0.8808,0.8808,0.8808,0.8808,0.8808,0.8808,0.8801,0.8731,0.8808,0.8944,1.7199,1.7002,1.6789,1.6789,1.6789,1.6789,1.6789,1.6789,1.6789,1.6789,1.6789,1.6659,1.6355,1.6293,1.6171,1.5827,1.5799,1.5799,1.5799,1.577,1.577,1.5799,1.577,1.577,1.5799,1.5799,1.5955,1.6266,1.6266,1.6421,1.6763,1.6746,1.6738,1.6763,1.6763,1.6934,1.7215,1.6934,1.6985,1.7264,1.7264,1.7085,1.6841,1.7142,1.706,1.6712,1.6394,1.6293,1.6219,1.5898,1.5799,1.5799,1.5799,1.5799,1.5799,1.5799,1.4775,1.3581,1.3164,1.2437,1.1658,1.1132,1.1014,1.0873,1.0429,1.0327,1.0337,1.041,1.0713,1.0996,1.0962,1.1313,1.1407,1.0713,1.078,1.0687,1.002,1.0113,1.0244,1.0283,1.0283,1.0244,1.0283,1.0283,1.0283,1.0283,1.0244,1.0312,1.0481,1.0503,1.0906,1.1648,1.203,1.2031,1.166,1.1352,1.1141,1.1098,1.0188,0.9706,0.9681,0.9079,0.8784,0.8808,0.8808,0.8808,0.8808,0.8808,0.8808,0.8808,0.8808,0.8808,0.8774,0.8504,0.8745,0.9135,1.7589,1.7511,1.7416,1.7416,1.7416,1.7416,1.7416,1.7416,1.7416,1.7416,1.7416,1.7216,1.6659,1.6807,1.6688,1.6171,1.6293,1.6429,1.6429,1.6429,1.632,1.6116,1.6301,1.6429,1.6429,1.6429,1.6474,1.6615,1.6615,1.6781,1.7101,1.6909,1.6909,1.7101,1.7101,1.7167,1.732,1.7384,1.7479,1.7604,1.7604,1.7534,1.7432,1.7549,1.74,1.7101,1.6977,1.6799,1.6581,1.6448,1.6274,1.6116,1.6116,1.5962,1.5799,1.5799,1.5028,1.4091,1.3603,1.259,1.1649,1.1474,1.145,1.1387,1.126,1.0986,1.072,1.072,1.0805,1.083,1.0566,1.0869,1.0986,1.0514,1.0459,1.0438,1.0189,1.0224,1.0283,1.0283,1.0283,1.0283,1.0283,1.0518,1.0561,1.0303,1.0481,1.0535,1.0281,1.0433,1.0498,1.0551,1.1038,1.1482,1.1714,1.1618,1.1149,1.032,0.9951,0.9562,0.9159,0.8906,0.8808,0.8808,0.8808,0.8808,0.8794,0.8614,0.8644,0.8771,0.8407,0.8567,0.899,0.835,0.8654,0.9377,1.8048,1.8048,1.8048,1.8048,1.7992,1.7936,1.7936,1.7847,1.7811,1.7811,1.7811,1.7581,1.701,1.7167,1.7068,1.6509,1.6667,1.6789,1.6789,1.6909,1.6807,1.6474,1.6686,1.6789,1.6789,1.6789,1.6841,1.696,1.696,1.7134,1.7447,1.7207,1.7232,1.7471,1.7547,1.7585,1.7593,1.7932,1.8005,1.7936,1.7936,1.7869,1.7811,1.7811,1.7658,1.7447,1.7344,1.715,1.6934,1.6704,1.6474,1.6274,1.6163,1.5983,1.5799,1.5799,1.5057,1.4118,1.356,1.2385,1.1324,1.1401,1.1566,1.1684,1.1567,1.1395,1.1239,1.1239,1.1077,1.085,1.056,1.0627,1.062,1.0327,1.0283,1.0283,1.0283,1.0395,1.043,1.0303,1.0395,1.0425,1.0293,1.0542,1.0591,1.0303,1.0528,1.0534,1.0288,1.0619,1.0709,1.0458,1.0864,1.1212,1.1462,1.1711,1.1471,1.0783,1.0265,0.9762,0.9266,0.8871,0.8671,0.8671,0.8671,0.8671,0.8647,0.8353,0.8353,0.8494,0.8038,0.8283,0.8713,0.8223,0.8597,0.9379,1.8594,1.8594,1.8594,1.8594,1.8371,1.8208,1.8208,1.7971,1.7811,1.7811,1.7811,1.7681,1.7336,1.7312,1.7175,1.6841,1.6815,1.6815,1.6815,1.7126,1.7167,1.6841,1.6815,1.6823,1.6815,1.6815,1.6977,1.732,1.7312,1.7471,1.7811,1.7811,1.7811,1.7833,1.8091,1.8208,1.8229,1.8489,1.845,1.8208,1.8208,1.8048,1.7803,1.7803,1.7811,1.7758,1.7415,1.7312,1.7191,1.652,1.6301,1.6246,1.5906,1.5799,1.5799,1.5799,1.4819,1.3582,1.2969,1.1788,1.0712,1.0778,1.1249,1.1544,1.1012,1.1374,1.1816,1.1816,1.1394,1.1014,1.1014,1.0611,1.0283,1.0283,1.0283,1.0283,1.0283,1.0645,1.0757,1.0332,1.0654,1.0742,1.0322,1.0288,1.0288,1.0283,1.0327,1.0412,1.0575,1.1343,1.1814,1.1765,1.1765,1.1462,1.0813,1.1462,1.2183,1.2876,1.12,1.0377,1.0333,0.8997,0.837,0.837,0.837,0.837,0.835,0.8049,0.7878,0.7882,0.7878,0.7875,0.7933,0.8211,0.8652,0.9154,1.8614,1.8594,1.8594,1.8594,1.8528,1.8469,1.8469,1.841,1.8371,1.8371,1.8371,1.8235,1.7903,1.8056,1.8085,1.7734,1.792,1.8073,1.8073,1.8165,1.8173,1.8073,1.7693,1.7587,1.7766,1.7766,1.7841,1.7936,1.8111,1.8264,1.8371,1.8371,1.8371,1.8371,1.845,1.8469,1.8498,1.8575,1.8547,1.8469,1.8469,1.831,1.8091,1.8091,1.7971,1.7789,1.7681,1.7658,1.7572,1.715,1.6858,1.6554,1.5983,1.5799,1.5799,1.5799,1.5065,1.4131,1.3567,1.2399,1.1238,1.0821,1.1184,1.1702,1.1903,1.2128,1.2288,1.2288,1.161,1.1014,1.1014,1.0611,1.0283,1.0283,1.0283,1.0283,1.0283,1.0645,1.0757,1.0332,1.0654,1.0742,1.0322,1.0552,1.0601,1.0303,1.0881,1.1151,1.1034,1.1539,1.1366,1.0415,1.0415,1.0316,1.0115,1.1216,1.1421,1.0728,1.0028,0.9716,0.9659,0.8532,0.8063,0.8063,0.8063,0.8063,0.8039,0.7732,0.7732,0.7839,0.7417,0.7854,0.8676,0.8175,0.8836,0.9882,1.9089,1.9028,1.8998,1.8998,1.8851,1.8752,1.8752,1.8669,1.8594,1.8594,1.8594,1.8529,1.8321,1.8482,1.851,1.8329,1.8482,1.8594,1.8594,1.8594,1.8651,1.8752,1.8351,1.8187,1.8351,1.8351,1.8351,1.8351,1.8508,1.8594,1.8594,1.8594,1.8594,1.8604,1.8706,1.8752,1.8762,1.8834,1.8825,1.8752,1.8752,1.8594,1.8351,1.8351,1.8187,1.7949,1.7949,1.7892,1.7735,1.7256,1.6799,1.632,1.5934,1.5799,1.5799,1.5799,1.5292,1.4562,1.3749,1.2718,1.1645,1.0795,1.0934,1.1393,1.1958,1.2103,1.2246,1.2671,1.1971,1.1347,1.154,1.1212,1.0807,1.0616,1.0577,1.0505,1.0322,1.0645,1.0757,1.0332,1.0654,1.0742,1.0322,1.0513,1.0557,1.0303,1.0959,1.131,1.136,1.1472,1.1259,1.061,1.0312,1.0003,0.9627,1.0702,1.085,1.0012,0.9349,0.9037,0.903,0.815,0.7749,0.7749,0.7749,0.7749,0.7722,0.7415,0.7402,0.749,0.7125,0.768,0.8597,0.8312,0.8958,0.9961,2.0038,1.9867,1.9735,1.9735,1.9369,1.9076,1.9076,1.8843,1.8698,1.8698,1.867,1.866,1.866,1.866,1.866,1.866,1.866,1.866,1.866,1.866,1.878,1.9027,1.8798,1.866,1.866,1.8642,1.8632,1.8632,1.8642,1.866,1.866,1.866,1.866,1.8679,1.8922,1.9027,1.9035,1.9221,1.9189,1.9027,1.9027,1.8869,1.8632,1.8632,1.845,1.8187,1.8187,1.8035,1.7712,1.7068,1.6402,1.5848,1.5848,1.5827,1.5799,1.5799,1.5485,1.4838,1.3684,1.2823,1.196,1.0817,1.0593,1.0825,1.1381,1.1588,1.1933,1.286,1.2302,1.1785,1.2342,1.2033,1.1571,1.1121,1.1014,1.0835,1.0428,1.0685,1.0757,1.0332,1.0654,1.0742,1.0322,1.0283,1.0298,1.0332,1.0728,1.1157,1.164,1.1458,1.1501,1.1801,1.1166,1.0348,0.943,0.9923,1.0191,1.0227,0.9052,0.8484,0.8484,0.779,0.7469,0.7469,0.7469,0.7469,0.7449,0.7134,0.7021,0.7063,0.7063,0.7485,0.8118,0.8598,0.9119,0.9642,2.1796,2.1224,2.0765,2.0765,2.0136,1.9632,1.9632,1.9481,1.9385,1.9385,1.9249,1.9155,1.9155,1.9155,1.9155,1.9155,1.9155,1.9155,1.9155,1.9155,1.9171,1.9236,1.918,1.9155,1.9155,1.8991,1.8905,1.8905,1.9066,1.9155,1.9155,1.9155,1.9155,1.9155,1.9212,1.9227,1.9236,1.9274,1.9274,1.9227,1.9227,1.9117,1.8905,1.8905,1.8613,1.8187,1.8187,1.8035,1.7735,1.7328,1.6747,1.6191,1.6191,1.6004,1.5799,1.5799,1.5485,1.4932,1.4127,1.3263,1.241,1.1618,1.0948,1.0548,1.0834,1.16,1.2178,1.1983,1.1441,1.119,1.1755,1.1463,1.1198,1.156,1.1282,1.0943,1.0867,1.087,1.0757,1.0332,1.0654,1.0742,1.0322,1.0283,1.042,1.0752,1.1172,1.1616,1.2061,1.2348,1.2308,1.1814,1.1166,1.0348,0.943,0.8749,0.8714,0.9213,0.8719,0.8484,0.8473,0.7527,0.7118,0.7118,0.7118,0.7118,0.7114,0.7047,0.728,0.7704,0.7704,0.8308,0.9159,0.9279,0.9681,1.0123,2.256,2.2153,2.1679,2.128,2.0766,2.0274,1.9856,1.9682,1.9605,1.9605,1.9418,1.9305,1.9305,1.9305,1.9305,1.9305,1.9305,1.9305,1.9305,1.9305,1.9305,1.9305,1.9305,1.9335,1.9433,1.9338,1.9292,1.9292,1.9389,1.9481,1.9536,1.9471,1.9447,1.9447,1.9447,1.9389,1.9305,1.9305,1.9305,1.9305,1.9305,1.9236,1.9134,1.9134,1.8913,1.8566,1.843,1.8023,1.7502,1.7175,1.6722,1.6266,1.6108,1.5715,1.5394,1.5709,1.5165,1.4394,1.4043,1.3262,1.234,1.1679,1.125,1.1015,1.0941,1.1086,1.1309,1.1708,1.1236,1.1112,1.2323,1.2023,1.1798,1.2324,1.185,1.1282,1.1057,1.0768,1.0527,1.0312,1.0478,1.0522,1.0303,1.0283,1.0459,1.0874,1.1123,1.1538,1.2151,1.2446,1.2349,1.181,1.1462,1.0694,0.943,0.8728,0.8307,0.8236,0.7921,0.777,0.7763,0.7218,0.6979,0.6979,0.6979,0.6979,0.7021,0.7321,0.7617,0.7916,0.8197,0.8801,0.9518,0.9518,0.9839,1.0283,2.3226,2.2911,2.241,2.1674,2.1229,2.0725,2.0001,1.9759,1.9666,1.9636,1.9476,1.9344,1.9305,1.9305,1.9305,1.9305,1.9305,1.9305,1.9305,1.9305,1.9329,1.9359,1.935,1.9433,1.9592,1.964,1.9653,1.9627,1.9627,1.9695,1.98,1.9682,1.9627,1.9627,1.9627,1.9536,1.9376,1.9365,1.935,1.9359,1.9305,1.9305,1.9305,1.9305,1.9182,1.8966,1.8697,1.8069,1.7344,1.706,1.6763,1.6421,1.6088,1.5556,1.5119,1.5506,1.4827,1.3922,1.3698,1.3026,1.2214,1.1553,1.1515,1.1552,1.1267,1.0697,1.0527,1.1651,1.1292,1.1307,1.3179,1.2863,1.2538,1.3248,1.2549,1.1768,1.1297,1.0759,1.0395,1.0322,1.0283,1.0283,1.0283,1.0283,1.0488,1.0981,1.102,1.1406,1.2248,1.2344,1.2196,1.2016,1.1873,1.109,0.9577,0.9289,0.8584,0.7506,0.7344,0.7156,0.6979,0.6979,0.6979,0.6979,0.6979,0.6979,0.7024,0.7534,0.787,0.8077,0.8521,0.9079,0.9637,0.9637,0.9922,1.0283,2.4957,2.3784,2.2737,2.2621,2.1384,2.0369,2.0244,2.0069,1.9902,1.9788,1.9643,1.949,1.932,1.9305,1.9305,1.9305,1.9305,1.9305,1.9305,1.9305,1.9374,1.9555,1.9564,1.9569,1.9605,1.9834,1.989,1.9764,1.9764,1.9776,1.98,1.9776,1.9764,1.9764,1.9764,1.9752,1.9719,1.9613,1.9564,1.9541,1.9374,1.9305,1.9305,1.9305,1.9182,1.8966,1.8697,1.8229,1.7735,1.7689,1.7447,1.7118,1.6781,1.6385,1.5933,1.5161,1.4805,1.4401,1.3258,1.2829,1.2566,1.1889,1.1533,1.1333,1.131,1.1381,1.146,1.1489,1.1158,1.1445,1.3337,1.2776,1.2545,1.4074,1.3232,1.2378,1.2218,1.1472,1.0759,1.0361,1.0283,1.0283,1.0283,1.0283,1.0655,1.1454,1.1518,1.1905,1.2749,1.2793,1.2764,1.2769,1.2107,1.1309,1.0289,1.0235,0.9268,0.751,0.8041,0.7831,0.6979,0.6979,0.6979,0.6979,0.6979,0.6979,0.7024,0.7108,0.7686,0.8598,0.8675,0.9319,1.0201,1.0201,1.0239,1.0283,2.5293,2.4341,2.3369,2.2879,2.1793,2.0821,2.0369,2.0134,1.9983,1.9913,1.98,1.9685,1.9589,1.9589,1.9589,1.9589,1.9589,1.9589,1.9589,1.9499,1.9536,1.9698,1.964,1.9669,1.9813,1.9933,2.0031,2.0079,1.9972,1.9963,2.0079,1.9963,1.9913,1.9913,1.9913,1.9869,1.98,1.9747,1.9679,1.9592,1.949,1.9404,1.9305,1.9305,1.9243,1.9117,1.8734,1.8258,1.7758,1.7572,1.7415,1.7215,1.6678,1.6163,1.5621,1.498,1.4259,1.3558,1.2966,1.2538,1.2164,1.1872,1.1681,1.163,1.1819,1.2106,1.2241,1.1952,1.136,1.1524,1.3558,1.3079,1.2848,1.427,1.3577,1.2816,1.2798,1.2014,1.125,1.0759,1.0687,1.0572,1.0322,1.0493,1.0894,1.1557,1.1797,1.2212,1.2847,1.2651,1.252,1.252,1.1977,1.1329,1.0499,1.0331,0.9606,0.8381,0.8543,0.8036,0.6979,0.6979,0.6979,0.6979,0.6979,0.6979,0.7063,0.7686,0.8263,0.876,0.9359,0.9883,1.0283,1.0283,1.0283,1.0307]}]]